[[{"header":{"parameterUnit":"m.s-1","parameterCategory":1,"la1":30.6,"la2":29.2853,"lo1":-89.7004,"lo2":-87.6739,"dy":0.0162,"dx":0.0183,"nx":112,"ny":82,"refTime":"2023-04-19T06:00:00:Z","depth":0,"parameterNumber":2,"parameterNumberName":"U-component_of_WINDS"},"data":[0.0,0.0,0.0,0.0,0.0,0.0,0.0,0.0,0.0,0.0,0.0,0.0,0.0,0.0,0.0,0.0,0.0,0.0,0.0,0.0,0.0,0.0,0.0,0.0,0.0,0.0,0.0,0.0,0.0,0.0,0.0,0.0,0.0,0.0,0.0,0.0,0.0,0.0,0.0,0.0,0.0,0.0,0.0,0.0,0.0,0.0,0.0,0.0,0.0,0.0,0.0,0.0,0.0,0.0,0.0,0.0,0.0,0.0,0.0,0.0,0.0,0.0,0.0,0.0,0.0,0.0,0.0,0.0,0.0,0.0,0.0,0.0,0.0,0.0,0.0,0.0,0.0,0.0,0.0,0.0,0.0,0.0,0.0,0.0,0.0,0.0,0.0,0.0,0.0,0.0,0.0,4.3359,4.3506,4.3506,4.3506,4.2882,4.2506,4.2506,0.0,0.0,0.0,0.0,0.0,0.0,0.0,0.0,0.0,0.0,0.0,0.0,0.0,0.0,0.0,0.0,0.0,0.0,0.0,0.0,0.0,0.0,0.0,0.0,0.0,0.0,0.0,0.0,0.0,0.0,0.0,0.0,0.0,0.0,0.0,0.0,0.0,0.0,0.0,0.0,0.0,0.0,0.0,0.0,0.0,0.0,0.0,0.0,0.0,0.0,0.0,0.0,0.0,0.0,0.0,0.0,0.0,0.0,0.0,0.0,0.0,0.0,0.0,0.0,0.0,0.0,0.0,0.0,0.0,0.0,0.0,0.0,0.0,0.0,0.0,0.0,0.0,0.0,0.0,0.0,0.0,0.0,0.0,0.0,0.0,0.0,0.0,0.0,0.0,0.0,0.0,0.0,0.0,0.0,0.0,0.0,0.0,0.0,0.0,0.0,0.0,0.0,0.0,0.0,4.3212,4.3469,4.3506,4.3506,4.3506,4.3396,4.3322,4.3322,0.0,0.0,0.0,0.0,0.0,0.0,0.0,0.0,0.0,0.0,0.0,0.0,0.0,0.0,0.0,0.0,0.0,0.0,0.0,0.0,0.0,0.0,0.0,0.0,0.0,0.0,0.0,0.0,0.0,0.0,0.0,0.0,0.0,0.0,0.0,0.0,0.0,0.0,0.0,0.0,0.0,0.0,0.0,0.0,0.0,0.0,0.0,0.0,0.0,0.0,0.0,0.0,0.0,0.0,0.0,0.0,0.0,0.0,0.0,0.0,0.0,0.0,0.0,0.0,0.0,0.0,0.0,0.0,0.0,0.0,0.0,0.0,0.0,0.0,0.0,0.0,0.0,0.0,0.0,0.0,0.0,0.0,0.0,0.0,0.0,0.0,0.0,0.0,0.0,0.0,0.0,0.0,0.0,0.0,0.0,0.0,0.0,0.0,0.0,0.0,0.0,0.0,0.0,4.3286,4.3506,4.3506,4.3506,4.3506,4.3506,4.3506,4.3506,4.3506,4.28,0.0,0.0,0.0,0.0,0.0,0.0,0.0,0.0,0.0,0.0,0.0,0.0,0.0,0.0,0.0,0.0,0.0,0.0,0.0,0.0,0.0,0.0,0.0,0.0,0.0,0.0,0.0,0.0,0.0,0.0,0.0,0.0,0.0,0.0,0.0,0.0,0.0,0.0,0.0,0.0,0.0,0.0,0.0,0.0,0.0,0.0,0.0,0.0,0.0,0.0,0.0,0.0,0.0,0.0,0.0,0.0,0.0,0.0,0.0,0.0,0.0,0.0,0.0,0.0,0.0,0.0,0.0,0.0,0.0,0.0,0.0,0.0,0.0,0.0,0.0,0.0,0.0,0.0,0.0,0.0,0.0,0.0,0.0,0.0,0.0,0.0,0.0,0.0,0.0,0.0,0.0,0.0,0.0,0.0,0.0,0.0,0.0,0.0,0.0,0.0,0.0,0.0,4.38,4.3873,4.4057,4.4057,4.4057,4.4057,4.3873,4.38,4.38,4.3616,0.0,0.0,0.0,0.0,0.0,0.0,0.0,0.0,0.0,0.0,0.0,0.0,0.0,0.0,0.0,0.0,0.0,0.0,0.0,0.0,0.0,0.0,0.0,0.0,0.0,0.0,0.0,0.0,0.0,0.0,0.0,0.0,0.0,0.0,0.0,0.0,0.0,0.0,0.0,0.0,0.0,0.0,0.0,0.0,0.0,0.0,0.0,0.0,0.0,0.0,0.0,0.0,0.0,0.0,0.0,0.0,0.0,0.0,0.0,0.0,0.0,0.0,0.0,0.0,0.0,0.0,0.0,0.0,0.0,0.0,0.0,0.0,0.0,0.0,0.0,0.0,0.0,0.0,0.0,0.0,0.0,0.0,0.0,0.0,0.0,0.0,0.0,0.0,0.0,0.0,0.0,0.0,0.0,0.0,0.0,0.0,0.0,0.0,0.0,0.0,0.0,0.0,4.4626,4.4883,4.5663,4.5736,4.5736,4.5736,4.5039,4.4626,4.4626,4.3901,0.0,0.0,0.0,0.0,0.0,0.0,0.0,0.0,0.0,0.0,0.0,0.0,0.0,0.0,0.0,0.0,0.0,0.0,0.0,0.0,0.0,0.0,0.0,0.0,0.0,0.0,0.0,0.0,0.0,0.0,0.0,0.0,0.0,0.0,0.0,0.0,0.0,0.0,0.0,0.0,0.0,0.0,0.0,0.0,0.0,0.0,0.0,0.0,0.0,0.0,0.0,0.0,0.0,0.0,0.0,0.0,0.0,0.0,0.0,0.0,0.0,0.0,0.0,0.0,0.0,0.0,0.0,0.0,0.0,0.0,0.0,0.0,0.0,0.0,0.0,0.0,0.0,0.0,0.0,0.0,0.0,0.0,0.0,0.0,0.0,0.0,0.0,0.0,0.0,0.0,0.0,0.0,0.0,0.0,0.0,0.0,0.0,0.0,0.0,0.0,0.0,0.0,4.5443,4.5553,0.0,4.5883,4.5883,4.5883,4.5626,4.5443,4.5443,0.0,0.0,0.0,0.0,0.0,0.0,0.0,0.0,0.0,0.0,0.0,0.0,0.0,0.0,0.0,0.0,0.0,0.0,0.0,0.0,0.0,0.0,0.0,0.0,0.0,0.0,0.0,0.0,0.0,0.0,0.0,0.0,0.0,0.0,0.0,0.0,0.0,0.0,0.0,0.0,0.0,0.0,0.0,0.0,0.0,0.0,0.0,0.0,0.0,0.0,0.0,0.0,0.0,0.0,0.0,0.0,0.0,0.0,0.0,0.0,0.0,0.0,0.0,0.0,0.0,0.0,0.0,0.0,0.0,0.0,0.0,0.0,0.0,0.0,0.0,0.0,0.0,0.0,0.0,0.0,0.0,0.0,0.0,0.0,0.0,0.0,0.0,0.0,0.0,0.0,0.0,0.0,0.0,0.0,0.0,0.0,0.0,0.0,0.0,0.0,0.0,0.0,4.6177,4.6278,4.6397,0.0,4.6654,4.6654,4.6654,4.6434,4.6278,4.6278,0.0,0.0,0.0,0.0,0.0,0.0,0.0,0.0,0.0,0.0,0.0,0.0,0.0,0.0,0.0,0.0,0.0,0.0,0.0,0.0,0.0,0.0,0.0,0.0,0.0,0.0,0.0,0.0,0.0,0.0,0.0,0.0,0.0,0.0,0.0,0.0,0.0,0.0,0.0,0.0,0.0,0.0,0.0,0.0,0.0,0.0,0.0,0.0,0.0,0.0,0.0,0.0,0.0,0.0,0.0,0.0,0.0,0.0,0.0,0.0,0.0,0.0,0.0,0.0,0.0,0.0,0.0,0.0,0.0,0.0,0.0,0.0,0.0,0.0,0.0,0.0,0.0,0.0,0.0,0.0,0.0,0.0,0.0,0.0,0.0,0.0,0.0,0.0,0.0,0.0,0.0,0.0,0.0,0.0,0.0,0.0,0.0,0.0,0.0,0.0,0.0,0.0,4.7003,4.7113,4.7406,4.8223,4.8296,4.8296,4.8296,4.7553,4.7113,0.0,0.0,0.0,0.0,0.0,0.0,0.0,0.0,0.0,0.0,0.0,0.0,0.0,0.0,0.0,0.0,0.0,0.0,0.0,0.0,0.0,0.0,0.0,0.0,0.0,0.0,0.0,0.0,0.0,0.0,0.0,0.0,0.0,0.0,0.0,0.0,0.0,0.0,0.0,0.0,0.0,0.0,0.0,0.0,0.0,0.0,0.0,0.0,0.0,0.0,0.0,0.0,0.0,0.0,0.0,0.0,0.0,0.0,0.0,0.0,0.0,0.0,0.0,0.0,0.0,0.0,0.0,0.0,0.0,0.0,0.0,0.0,0.0,0.0,0.0,0.0,0.0,0.0,0.0,0.0,0.0,0.0,0.0,0.0,0.0,0.0,0.0,0.0,0.0,0.0,0.0,0.0,0.0,0.0,0.0,0.0,0.0,0.0,0.0,0.0,0.0,0.0,0.0,0.0,4.7966,4.8039,4.826,4.8296,4.8296,4.8296,4.8076,4.7966,4.7966,0.0,0.0,0.0,0.0,0.0,0.0,0.0,0.0,0.0,0.0,0.0,0.0,0.0,0.0,0.0,0.0,0.0,0.0,0.0,0.0,0.0,0.0,0.0,0.0,0.0,0.0,0.0,0.0,0.0,0.0,0.0,0.0,0.0,0.0,0.0,0.0,0.0,0.0,0.0,0.0,0.0,0.0,0.0,0.0,0.0,0.0,0.0,0.0,0.0,0.0,0.0,0.0,0.0,0.0,0.0,0.0,0.0,0.0,0.0,0.0,0.0,0.0,0.0,0.0,0.0,0.0,0.0,0.0,0.0,0.0,0.0,0.0,0.0,0.0,0.0,0.0,0.0,0.0,0.0,0.0,0.0,0.0,0.0,0.0,0.0,0.0,0.0,0.0,0.0,0.0,0.0,0.0,0.0,0.0,0.0,0.0,0.0,0.0,0.0,0.0,0.0,0.0,4.8223,4.8296,4.8296,4.8296,4.8296,4.8296,4.8296,4.8296,4.8296,4.8296,0.0,0.0,0.0,0.0,0.0,0.0,0.0,0.0,0.0,0.0,0.0,0.0,0.0,0.0,0.0,0.0,0.0,0.0,0.0,0.0,0.0,0.0,0.0,0.0,0.0,0.0,0.0,0.0,0.0,0.0,0.0,0.0,0.0,0.0,0.0,0.0,0.0,0.0,0.0,0.0,0.0,0.0,0.0,0.0,0.0,0.0,0.0,0.0,0.0,0.0,0.0,0.0,0.0,0.0,0.0,0.0,0.0,0.0,0.0,0.0,0.0,0.0,0.0,0.0,0.0,0.0,0.0,0.0,0.0,0.0,0.0,0.0,0.0,0.0,0.0,0.0,0.0,0.0,0.0,0.0,0.0,0.0,0.0,0.0,0.0,0.0,0.0,0.0,0.0,0.0,0.0,0.0,0.0,0.0,0.0,0.0,0.0,0.0,0.0,0.0,0.0,0.0,4.8517,4.8517,4.8517,4.8517,4.8517,4.8517,4.8517,4.8517,4.8517,4.8517,0.0,0.0,0.0,0.0,0.0,0.0,0.0,0.0,0.0,0.0,0.0,0.0,0.0,0.0,0.0,0.0,0.0,0.0,0.0,0.0,0.0,0.0,0.0,0.0,0.0,0.0,0.0,0.0,0.0,0.0,0.0,0.0,0.0,0.0,0.0,0.0,0.0,0.0,0.0,0.0,0.0,0.0,0.0,0.0,0.0,0.0,0.0,0.0,0.0,0.0,0.0,0.0,0.0,0.0,0.0,0.0,0.0,0.0,0.0,0.0,3.9804,0.0,0.0,0.0,0.0,0.0,0.0,0.0,0.0,0.0,0.0,0.0,0.0,0.0,0.0,0.0,0.0,0.0,0.0,0.0,0.0,0.0,0.0,0.0,0.0,0.0,0.0,0.0,0.0,0.0,0.0,0.0,0.0,0.0,0.0,0.0,0.0,0.0,0.0,0.0,0.0,0.0,5.0178,5.0288,5.0288,5.0288,5.0288,5.0288,5.0288,5.0288,5.0288,5.0288,0.0,0.0,0.0,0.0,0.0,0.0,0.0,0.0,0.0,0.0,0.0,0.0,0.0,0.0,0.0,0.0,0.0,0.0,0.0,0.0,0.0,0.0,0.0,0.0,0.0,0.0,0.0,0.0,0.0,0.0,0.0,0.0,0.0,0.0,0.0,0.0,0.0,0.0,0.0,0.0,0.0,0.0,0.0,0.0,0.0,0.0,0.0,0.0,0.0,0.0,0.0,0.0,0.0,0.0,0.0,0.0,0.0,0.0,0.0,0.0,0.0,4.0955,0.0,0.0,0.0,0.0,0.0,0.0,0.0,0.0,0.0,0.0,0.0,0.0,0.0,0.0,0.0,0.0,0.0,0.0,0.0,0.0,0.0,0.0,0.0,0.0,0.0,0.0,0.0,0.0,0.0,0.0,0.0,0.0,0.0,0.0,0.0,0.0,0.0,0.0,0.0,0.0,5.0765,5.0802,5.0802,5.0802,5.0802,5.0802,5.0802,5.0802,5.0802,5.0802,5.0398,0.0,0.0,0.0,0.0,0.0,0.0,0.0,0.0,0.0,0.0,0.0,0.0,0.0,0.0,0.0,0.0,0.0,0.0,0.0,0.0,0.0,0.0,0.0,0.0,0.0,0.0,0.0,0.0,0.0,0.0,0.0,0.0,0.0,0.0,0.0,0.0,0.0,0.0,0.0,0.0,0.0,0.0,0.0,0.0,0.0,0.0,0.0,0.0,0.0,0.0,0.0,0.0,0.0,0.0,0.0,4.23,4.2435,4.2489,4.2489,4.2638,4.2841,4.3031,0.0,0.0,0.0,0.0,0.0,0.0,0.0,0.0,0.0,0.0,0.0,0.0,0.0,0.0,0.0,0.0,0.0,0.0,0.0,0.0,0.0,0.0,0.0,0.0,0.0,4.6946,4.7199,0.0,0.0,0.0,0.0,0.0,0.0,0.0,0.0,0.0,0.0,0.0,0.0,5.1206,5.1232,5.1232,5.1232,5.1232,5.1232,5.1232,5.1114,5.1015,5.1015,5.0905,5.0791,0.0,0.0,0.0,0.0,0.0,0.0,0.0,0.0,0.0,0.0,0.0,0.0,0.0,0.0,0.0,0.0,0.0,0.0,0.0,0.0,0.0,0.0,0.0,0.0,0.0,0.0,0.0,0.0,0.0,0.0,0.0,0.0,3.791,3.791,0.0,0.0,0.0,0.0,0.0,0.0,0.0,0.0,0.0,0.0,0.0,0.0,0.0,0.0,4.23,4.23,4.23,4.23,4.23,4.23,4.2333,4.2949,4.3254,4.3288,4.3992,0.0,4.2432,4.2432,0.0,0.0,0.0,0.0,0.0,0.0,0.0,0.0,0.0,0.0,0.0,0.0,0.0,0.0,0.0,0.0,0.0,0.0,0.0,0.0,0.0,0.0,4.7518,4.8805,4.8763,4.854,0.0,4.8571,4.8233,4.9087,0.0,0.0,0.0,0.0,0.0,0.0,0.0,0.0,5.2774,5.2884,5.2884,5.2884,5.2884,5.2884,5.2884,5.2308,5.194,5.194,5.1266,5.0615,5.0049,5.0413,0.0,0.0,0.0,0.0,0.0,0.0,0.0,0.0,0.0,0.0,0.0,0.0,0.0,0.0,0.0,0.0,0.0,0.0,0.0,0.0,0.0,0.0,0.0,0.0,0.0,0.0,0.0,0.0,0.0,3.9153,3.9276,3.9715,4.0054,4.0392,0.0,0.0,0.0,0.0,0.0,0.0,0.0,0.0,0.0,4.2916,4.2929,4.3132,4.3586,4.3586,4.3789,4.4215,4.4215,4.4418,4.4838,4.5162,4.5331,4.5331,4.5684,4.5447,4.477,4.3924,4.3763,4.3983,0.0,0.0,0.0,0.0,0.0,0.0,4.4949,0.0,0.0,0.0,0.0,0.0,0.0,0.0,0.0,0.0,0.0,0.0,0.0,0.0,0.0,4.903,4.8874,4.8734,4.9079,4.8826,4.8625,0.0,4.9394,4.9922,5.0722,0.0,0.0,0.0,0.0,0.0,5.1958,5.203,5.203,5.203,5.203,5.203,5.203,5.174,5.1531,5.1531,5.1575,5.1263,5.0603,5.1135,5.1119,0.0,0.0,0.0,0.0,0.0,0.0,0.0,0.0,0.0,0.0,0.0,0.0,0.0,0.0,0.0,0.0,0.0,0.0,0.0,0.0,0.0,0.0,0.0,0.0,0.0,0.0,0.0,0.0,4.0654,4.0878,4.1407,4.1474,4.1711,0.0,0.0,0.0,0.0,0.0,0.0,4.2875,4.3078,4.3436,4.3964,4.4167,4.4553,4.5142,4.5142,4.5447,4.5974,4.5974,4.6278,4.68,4.68,4.68,4.68,4.68,4.68,4.6733,4.5616,4.5142,4.5142,4.5142,4.5445,0.0,4.584,4.6122,4.6447,4.5978,4.584,4.5866,4.6004,0.0,4.6485,4.7449,0.0,0.0,0.0,0.0,4.9305,4.8635,0.0,4.9162,4.9045,4.8879,4.8787,4.8985,4.9161,4.9265,0.0,4.9412,4.9995,5.082,0.0,0.0,0.0,0.0,5.1099,5.1099,5.1099,5.1099,5.1099,5.1099,5.1099,5.1099,5.0929,5.0823,5.0823,5.1292,5.1355,5.0836,5.1442,5.159,0.0,0.0,0.0,0.0,0.0,0.0,0.0,0.0,0.0,0.0,0.0,0.0,0.0,0.0,0.0,0.0,0.0,0.0,0.0,0.0,0.0,0.0,0.0,0.0,0.0,0.0,0.0,0.0,0.0,0.0,4.2232,4.2232,0.0,0.0,0.0,0.0,4.3355,4.4045,4.4479,4.4479,4.5162,4.5568,4.5602,4.6244,4.6665,4.6699,4.6699,4.6733,4.6718,4.6718,4.6752,4.68,4.68,4.68,4.68,4.68,4.68,4.6786,4.6733,4.6699,4.6699,4.6699,4.6713,4.6709,4.6709,4.6738,4.6767,4.6757,4.6709,4.6826,4.7403,4.8028,4.8544,4.8641,4.8654,0.0,0.0,4.8203,4.861,4.7921,4.7794,4.817,4.9501,4.9363,4.9084,4.9784,5.049,5.0767,0.0,4.9857,5.0143,5.0961,0.0,0.0,5.1138,5.1125,5.1099,5.1099,5.1099,5.1099,5.1099,5.1099,5.1099,5.1099,5.0459,5.0061,5.0061,5.0104,5.0104,5.0061,5.0761,5.1446,5.2029,5.1306,0.0,0.0,0.0,0.0,0.0,0.0,0.0,0.0,0.0,0.0,0.0,0.0,0.0,0.0,0.0,0.0,0.0,0.0,0.0,0.0,0.0,0.0,0.0,0.0,0.0,0.0,0.0,0.0,4.2963,4.3017,0.0,0.0,4.4451,4.4877,4.4877,4.5602,4.6022,4.6022,4.6278,4.6413,4.6413,4.665,4.68,4.68,4.68,4.7022,4.7515,4.7515,4.7767,4.8206,4.8206,4.8206,4.8206,4.8206,4.8206,4.8206,4.8206,4.7665,4.68,4.68,4.68,4.68,4.68,4.68,4.68,4.68,4.68,4.6844,4.7058,4.7569,4.7974,4.761,4.8086,4.8624,4.8014,4.8665,4.9368,4.8719,4.8859,4.9207,4.9304,4.9125,4.9035,4.9308,4.9566,4.9653,4.9398,4.968,5.0048,5.0341,5.0019,4.991,5.0321,5.0019,4.9737,4.9737,4.9737,4.9737,4.9737,4.9737,4.9737,4.9737,4.9506,4.9361,4.9361,4.9766,4.9824,4.9357,5.0459,5.0995,5.077,5.1357,5.1784,0.0,0.0,0.0,0.0,0.0,0.0,0.0,0.0,0.0,0.0,0.0,0.0,0.0,0.0,0.0,0.0,0.0,0.0,0.0,0.0,0.0,0.0,0.0,0.0,0.0,0.0,4.3349,4.4099,4.4167,4.4471,4.5277,4.5771,4.6075,4.6075,4.6515,4.68,4.68,4.7022,4.7158,4.7158,4.7394,4.753,4.753,4.753,4.78,4.8259,4.8259,4.8529,4.9018,4.9018,4.9018,4.9018,4.9018,4.9018,4.9018,4.9018,4.8409,4.753,4.753,4.753,4.753,4.753,4.753,4.753,4.753,4.753,4.753,4.753,4.7822,4.8057,4.7645,4.8143,4.8782,4.8361,4.8956,4.9566,4.9123,4.9346,4.9566,4.9107,4.9018,4.9018,4.9018,4.9018,4.9018,4.9018,4.9376,4.9664,4.9664,4.9301,4.9153,4.961,4.9286,4.9018,4.9018,4.9018,4.9018,4.9018,4.9018,4.9018,4.9018,4.9018,4.9018,4.9018,4.9402,4.958,4.9361,5.0244,5.0608,5.0362,5.1292,5.2006,5.245,0.0,0.0,0.0,0.0,0.0,0.0,0.0,0.0,0.0,0.0,0.0,0.0,0.0,0.0,0.0,0.0,0.0,0.0,0.0,0.0,0.0,0.0,0.0,4.4736,4.4649,4.4939,4.5635,4.5722,4.6007,4.6733,4.6834,4.6834,4.6834,4.6868,4.6868,4.6868,4.7564,4.7921,4.7921,4.8631,4.9018,4.9018,4.9018,4.9018,4.9018,4.9018,4.9018,4.9018,4.9018,4.9018,4.9018,4.9018,4.9018,4.9018,4.9018,4.9018,4.9018,4.9018,4.9018,4.9018,4.9018,4.9018,4.9018,4.9018,4.9018,4.9018,4.9018,4.9018,4.9018,4.9018,4.9018,4.9018,4.9018,4.9018,4.9018,4.9018,4.9018,4.9018,4.9018,4.9018,4.9018,4.9018,4.9018,4.9018,4.9018,4.9018,4.9018,4.9018,4.9018,4.9018,4.9018,4.9018,0.0,4.9018,4.9018,4.9018,4.9018,4.9018,4.9018,4.9018,4.9018,4.9018,4.9018,4.9018,4.9286,4.9933,4.9962,5.0307,5.1047,5.106,5.1765,5.3146,0.0,0.0,0.0,0.0,0.0,0.0,0.0,0.0,0.0,0.0,0.0,0.0,0.0,0.0,0.0,0.0,0.0,0.0,0.0,0.0,0.0,0.0,4.47,4.5308,4.5853,4.6259,4.6481,4.6481,4.6583,4.68,4.7293,4.7582,4.7582,4.8105,4.8409,4.8409,4.8578,4.8698,4.8698,4.8883,4.9018,4.9018,4.9018,4.9018,4.9018,4.9018,4.9018,4.9018,4.9018,4.9018,4.9018,4.9018,4.9018,4.9018,4.9018,4.9018,4.9018,4.9018,4.9018,4.9018,4.9018,4.9018,4.9018,4.9018,4.9018,4.9018,4.9018,4.9018,4.9018,4.9018,4.9018,4.9018,4.9018,4.9018,4.9018,4.9018,4.9018,4.9018,4.9018,4.9018,4.9018,4.9018,4.9018,4.9018,4.9018,4.9018,4.9018,4.9018,4.9018,4.9018,4.9018,0.0,0.0,4.9018,4.9018,4.9018,4.9018,4.9018,4.9018,4.9018,4.9018,4.9018,0.0,4.9018,4.9077,4.9271,4.9271,4.961,5.0279,5.0293,5.1008,0.0,0.0,0.0,0.0,0.0,0.0,0.0,0.0,0.0,0.0,0.0,0.0,0.0,0.0,0.0,0.0,0.0,0.0,0.0,0.0,0.0,0.0,4.4619,4.47,4.5348,4.5881,4.6344,4.6645,4.7016,4.7226,4.7144,4.7515,4.7782,4.7782,4.7831,4.7819,4.7819,4.7819,4.7998,4.8418,4.8314,4.8414,4.8821,4.8696,4.8862,4.9289,4.9289,4.9516,4.9916,4.9916,4.9916,0.0,4.9916,4.9763,4.9458,4.9458,4.9289,0.0,0.0,0.0,0.0,0.0,4.9018,4.9018,4.9018,4.9018,4.9018,4.9018,4.9018,4.9018,4.9018,4.9018,4.9018,4.9018,4.9018,4.9018,4.9018,4.9018,4.9018,4.9018,4.9018,4.9018,4.9018,4.9018,4.9018,4.9018,0.0,0.0,4.9018,4.9018,4.9018,4.9018,4.9018,4.9018,0.0,4.9018,4.9018,4.9018,4.9018,4.9018,4.9018,4.9018,0.0,0.0,0.0,4.9138,4.9402,0.0,0.0,0.0,0.0,5.0251,0.0,0.0,0.0,0.0,5.2631,5.27,0.0,0.0,0.0,0.0,0.0,0.0,0.0,0.0,0.0,0.0,0.0,0.0,0.0,0.0,0.0,0.0,4.4551,4.4946,4.5051,4.5223,4.5603,4.6389,4.7195,4.7653,4.7473,4.744,4.744,4.744,4.6759,4.6319,0.0,0.0,0.0,0.0,0.0,4.768,4.8553,4.8242,4.8564,4.9521,4.9521,5.0055,5.1021,5.1021,5.1104,5.1201,5.1201,5.0845,5.0202,5.0202,4.983,4.9221,4.9052,4.9018,4.9018,4.9018,4.9018,0.0,0.0,0.0,0.0,4.9018,4.9018,4.9018,4.9018,4.9018,4.9018,4.9018,4.9018,4.9018,4.9018,4.9018,4.9018,4.9018,4.9018,4.9018,4.9018,4.9018,4.9018,4.9018,4.9018,4.9018,4.9018,4.9018,4.9018,4.9018,4.9018,0.0,4.9018,4.9018,4.9018,4.9018,0.0,0.0,4.9018,4.9018,4.9018,4.9018,4.9018,4.9271,4.9847,4.9331,4.9595,5.0836,4.9639,4.9669,5.0981,5.0981,5.133,5.2018,5.2813,5.3214,0.0,0.0,0.0,0.0,0.0,0.0,0.0,0.0,0.0,0.0,0.0,0.0,0.0,0.0,0.0,4.4668,4.4101,4.3945,4.4744,4.4877,4.525,4.6174,4.6416,4.6515,4.6488,4.6471,4.6471,4.6471,4.6788,4.7015,4.7015,4.7458,0.0,4.7983,4.796,4.8024,4.8207,4.8134,4.8198,4.84,0.0,0.0,5.0003,5.0003,5.0443,5.1201,5.1201,5.1133,5.0998,5.0998,5.0897,5.066,4.9458,4.9018,4.9018,4.9018,4.9018,4.9018,4.9018,4.9018,4.9018,4.9018,4.9018,4.9018,4.9018,4.9018,0.0,4.9018,4.9018,4.9018,4.9018,4.9018,4.9018,4.9018,4.9018,4.9018,4.9018,4.9018,4.9018,4.9018,4.9018,4.9018,4.9018,4.9018,4.9018,4.9018,4.9018,4.9018,4.9018,4.9018,4.9018,4.9018,4.9018,4.9018,4.9018,4.9018,4.9018,4.9018,4.9018,4.9046,4.9199,4.9061,4.9123,4.9406,4.9138,4.9421,5.023,5.023,5.0581,5.1317,5.2613,5.3214,0.0,0.0,0.0,0.0,0.0,0.0,0.0,0.0,0.0,0.0,0.0,4.4948,0.0,0.0,4.4062,4.4062,4.3615,4.3488,4.3985,4.4062,4.4415,4.5379,4.5889,4.6014,4.5543,4.5754,4.5956,4.5956,4.6145,4.6241,4.6241,4.6531,4.692,4.7371,4.7263,4.7429,4.7905,4.7771,4.7947,4.8427,4.8427,4.8987,5.0061,5.0061,5.0334,5.0816,5.1321,5.1327,5.1011,5.1157,5.1201,5.1133,5.0389,4.9898,4.9492,4.9154,4.9018,4.9018,4.9018,4.9018,4.9018,4.9018,4.9018,4.9018,4.9018,4.9018,4.9018,4.9018,4.9018,4.9018,4.9018,4.9018,4.9018,4.9018,4.9018,4.9018,4.9018,4.9018,4.912,4.9492,4.956,4.9661,5.0017,5.0085,4.9848,4.912,4.9018,4.9018,4.9018,4.9018,4.9018,4.9018,4.9018,4.9018,4.9018,4.9018,4.9018,4.9018,4.9018,4.9018,4.9018,4.9018,4.9018,4.9018,4.9018,4.9168,4.9506,4.9853,5.0216,5.0616,5.1666,5.2149,0.0,0.0,0.0,0.0,0.0,0.0,0.0,0.0,4.4701,4.4538,4.451,4.451,4.451,4.3849,4.329,4.329,4.329,4.329,4.329,4.329,4.3655,4.458,4.5346,4.5531,4.4771,4.5241,4.5641,4.5641,4.5536,4.5484,4.5484,4.5603,4.6058,4.678,4.6592,4.6873,4.7599,4.7407,4.77,4.8491,4.8491,4.9054,5.0087,5.0087,5.0204,5.0455,5.1451,5.1681,5.1348,5.1547,5.1641,5.1641,5.1472,5.1048,5.0455,4.9695,4.9424,4.9424,4.9424,4.9424,4.9424,4.9424,4.9424,4.9424,4.9424,4.9424,4.9424,4.9424,4.9424,4.9424,4.9424,4.9424,4.9424,4.9424,4.9424,4.9424,4.9424,4.9424,4.9593,5.0202,5.0304,5.0507,5.11,5.1201,5.0795,4.9627,4.9424,4.9424,4.9424,4.9424,4.9424,4.9424,4.9424,4.9424,4.9424,4.9289,4.9221,4.9221,4.9086,4.9018,4.9018,4.9018,4.9018,4.9018,4.9018,4.9018,4.9018,4.9551,4.9824,4.9887,5.0439,5.0836,4.1633,4.2055,4.2496,4.2557,4.2971,4.3365,0.0,0.0,4.3485,4.3477,4.3468,4.3468,4.3468,4.3369,4.329,4.329,4.329,4.329,4.329,4.329,4.3559,4.4278,4.4429,4.4469,4.4379,4.498,4.532,4.532,4.5876,4.6181,4.6181,4.6749,4.7113,4.7242,4.7203,4.7233,4.7332,4.7292,4.7374,4.7473,4.7473,4.7988,4.8973,4.8973,4.9496,5.0455,5.1451,5.2385,5.3197,5.323,5.3247,5.3179,5.2469,5.2131,5.1961,5.1235,5.0964,5.0964,5.0964,5.0964,5.0964,5.0964,5.0964,5.0964,5.0964,5.0964,5.0964,5.0964,5.0964,5.0964,5.0964,5.0964,5.0964,5.0964,5.0964,5.0964,5.0964,5.0964,5.0964,5.1066,5.1066,5.11,5.1201,5.1201,5.1133,5.0964,5.0964,5.0964,5.0964,5.0964,5.0964,5.0964,5.0964,5.0964,5.0964,5.0338,4.9981,4.9981,4.9357,4.9018,4.9018,4.9018,4.9018,4.9018,4.9018,4.9018,4.9018,4.9077,4.9123,4.9123,4.9214,4.991,4.1901,4.2451,4.291,0.0,4.31,4.329,4.329,4.329,4.329,4.329,4.329,4.329,4.329,4.329,4.329,0.0,4.329,4.329,4.329,4.3638,4.3997,4.4267,4.4984,4.5313,4.4915,4.5514,4.5882,4.5882,4.648,4.6869,4.6869,4.716,4.7309,4.7309,4.7668,4.7878,4.7878,4.8289,4.8468,4.8468,4.8468,4.8681,4.9079,4.8684,4.887,4.9496,4.9899,5.0722,5.1722,5.2312,5.2575,5.2594,5.2893,5.301,5.2841,5.1641,5.1201,5.1201,5.1201,5.1201,5.1201,5.1201,5.1201,5.1201,5.1201,5.1201,5.1201,5.1201,5.1201,5.1201,5.1201,5.1201,5.1201,5.1201,5.1201,5.1201,5.1201,5.1201,5.1336,5.1758,5.1844,5.1979,5.2452,5.252,5.252,5.252,5.1776,5.1201,5.1201,5.1201,5.1201,5.1201,5.1201,5.1201,5.1201,5.0897,5.0744,5.0744,5.0033,4.9627,4.9627,4.9221,4.9018,4.9018,4.9018,4.9018,4.9018,4.9018,4.9018,4.9018,4.9018,4.9316,4.2511,0.0,0.0,4.329,4.329,4.329,4.329,4.329,4.329,4.329,4.329,4.329,4.329,4.329,4.329,4.329,4.329,4.3349,4.3549,4.3997,4.4446,4.4805,4.5702,4.6181,4.5873,4.6292,4.657,4.657,4.704,4.7369,4.7578,4.7578,4.7668,4.7848,4.8319,4.8588,4.8588,4.9067,4.9277,4.9277,4.9277,4.9277,4.9277,4.8798,4.8871,4.9357,4.9357,4.9866,5.0724,5.1447,5.1666,5.1612,5.2645,5.3059,5.2959,5.2133,5.1844,5.1844,5.1844,5.1844,5.1844,5.1844,5.1844,5.1844,5.1844,5.1844,5.1844,5.1844,5.1844,5.1844,5.1844,5.1844,5.1844,5.1844,5.1844,5.1844,5.1844,5.1844,5.1979,5.2536,5.2638,5.2807,5.3416,5.3518,5.3518,5.3518,5.2554,5.1844,5.1844,5.1844,5.1844,5.1844,5.1844,5.1844,5.1844,5.1641,5.1505,5.1505,5.0811,5.0405,5.0405,4.9898,4.9627,4.9627,4.9627,4.9627,4.9627,4.9627,4.9627,4.9627,4.9627,4.9627,0.0,0.0,4.329,4.329,4.329,4.329,4.329,4.329,4.329,4.329,4.329,4.329,4.329,4.329,4.329,4.329,4.329,4.3549,4.4177,4.4296,4.4775,4.6091,4.6271,4.654,0.0,4.7249,4.7279,4.7279,4.7309,4.7578,4.8207,4.8289,4.8558,4.9217,4.9247,4.9247,4.9247,4.9299,4.9277,4.9277,4.9277,4.9277,4.9277,4.9299,4.9811,5.0729,5.0729,5.0985,5.1382,5.1401,5.1024,5.0531,5.1576,5.1957,5.2065,5.3043,5.345,5.345,5.345,5.345,5.345,5.345,5.345,5.345,5.345,5.345,5.345,5.345,5.345,5.345,5.345,5.345,5.345,5.345,5.345,5.345,5.345,5.345,5.345,5.345,5.345,5.3484,5.3518,5.3518,5.3518,5.3518,5.345,5.345,5.345,5.345,5.345,5.345,5.345,5.345,5.345,5.2706,5.2266,5.2266,5.1573,5.1167,5.1167,5.1167,5.1133,5.1133,5.1133,5.1133,5.1133,5.1133,5.1133,5.1133,5.1133,5.1133,4.329,0.0,4.329,4.329,4.329,4.329,4.329,4.329,4.329,4.329,4.329,4.329,4.329,4.329,4.329,4.329,4.329,4.3529,4.4207,4.4676,4.5304,4.6181,4.6689,0.0,0.0,0.0,0.0,4.7309,4.7698,4.8057,4.8289,4.8708,4.9067,4.9299,4.9673,4.989,4.989,5.0331,5.0571,5.0571,5.0571,5.0331,4.989,4.989,4.9847,4.9797,4.9797,4.9896,5.0064,5.0725,5.0631,5.0126,5.1179,5.1293,5.0949,5.1317,5.1447,5.1631,5.3024,5.3518,5.3518,5.3518,5.3518,5.3518,5.3518,5.3518,5.3518,5.3518,5.3518,5.3518,5.3518,5.3518,5.3518,5.3518,5.3518,5.3518,5.3518,5.3518,5.3518,5.3518,5.3518,5.3518,5.3518,5.3518,5.3518,5.3518,5.3518,5.3518,5.3518,5.3518,5.3518,5.3518,5.3518,5.3518,5.3518,5.3247,5.3112,5.3112,5.2351,5.1928,5.1928,5.1472,5.1201,5.1201,5.1201,5.1201,5.1201,5.1201,5.1201,5.1201,5.1201,5.1201,4.329,4.329,4.329,4.329,4.329,4.329,4.329,4.329,4.329,4.329,4.329,4.329,4.329,4.329,4.329,4.329,4.3519,4.3878,4.4556,4.5244,4.5933,4.657,4.704,0.0,0.0,0.0,0.0,4.7668,4.8057,4.8506,4.8955,4.9374,4.9733,4.9965,5.0361,5.0578,5.0578,5.0996,5.1206,5.1206,5.1206,5.0966,5.0578,5.0578,5.0361,4.9995,4.9995,4.9823,4.9681,5.0308,5.0188,4.9736,5.0787,5.0773,5.0232,5.0625,5.0602,5.0589,5.1936,5.2398,5.2451,5.2818,5.2922,5.3024,5.3382,5.3518,5.3518,5.3518,5.3518,5.3518,5.3518,5.3518,5.3518,5.3518,5.3518,5.3518,5.3518,5.3518,5.3518,5.3518,5.3518,5.3518,5.3518,5.3518,5.3518,5.3518,5.3518,5.3518,5.3518,5.3518,5.3518,5.3518,5.3518,5.3518,5.3518,5.3518,5.3518,5.3518,5.301,5.2739,5.2739,5.2249,5.2013,5.2013,5.2013,5.2013,5.2013,5.2013,5.2013,5.2013,5.2013,5.2013,4.329,4.329,4.329,4.329,4.329,4.329,4.329,4.329,4.329,4.329,4.329,4.329,0.0,0.0,4.329,4.329,4.3878,4.4536,4.5214,4.5882,4.654,0.0,0.0,0.0,0.0,0.0,0.0,4.8409,0.0,4.8925,5.0159,5.0226,5.0548,5.1176,5.1206,5.1206,5.1206,5.1206,5.1206,5.1206,5.1206,5.1206,5.1206,5.1206,5.1206,5.1206,5.1206,5.0847,5.0255,5.0255,4.989,4.9449,5.0389,5.0366,4.9894,5.094,5.0873,5.0287,5.0287,5.0332,5.055,5.1506,5.1831,5.2011,5.3041,5.3331,5.3348,5.3399,5.3416,5.3416,5.3501,5.3518,5.3518,5.3518,5.3518,5.3518,5.3518,5.3518,5.3518,5.3518,5.3518,5.3518,5.3518,5.3518,5.3518,5.3518,5.3518,5.3518,5.3518,5.3518,5.3518,5.3518,5.3518,5.3518,5.3518,5.3518,5.3518,5.3518,5.3518,5.3518,5.3518,5.3518,5.3518,5.3518,5.3518,5.3518,5.3518,5.3518,5.3518,5.3518,5.3518,5.3518,4.329,4.329,4.329,4.329,4.329,4.329,4.329,4.329,4.329,4.329,4.329,4.329,0.0,0.0,0.0,4.329,4.3878,0.0,4.5214,4.5882,0.0,0.0,0.0,4.7489,4.7997,4.8199,0.0,0.0,4.971,4.986,5.0166,5.0667,5.1026,5.1176,5.1206,5.1206,5.1206,5.1206,5.1206,5.1206,5.1206,5.1206,5.1206,5.1206,5.1206,5.1206,5.1206,5.1086,5.0936,5.0936,5.0548,5.0025,5.0238,4.9982,4.9444,4.9752,4.9404,4.8855,4.8855,4.9521,5.0435,5.0703,5.0779,5.0817,5.1131,5.1206,5.1355,5.2116,5.2312,5.2504,5.3297,5.3518,5.3518,5.3518,5.3518,5.3518,5.3518,5.3518,5.3518,5.3518,5.3518,5.3518,5.3518,5.3518,5.3518,5.3518,5.3518,5.3518,5.3518,5.3518,5.3518,5.3518,5.3518,5.3518,5.3518,5.3518,5.3518,5.3518,5.3518,5.3518,5.3518,5.3518,5.3518,5.3518,5.3518,5.3518,5.3518,5.3518,5.3518,5.3518,5.3518,5.3518,4.329,4.329,4.329,4.329,4.329,4.329,4.329,4.329,4.329,4.329,4.329,0.0,0.0,0.0,0.0,0.0,0.0,0.0,4.5244,4.6142,4.6869,0.0,4.7309,0.0,4.8207,4.8558,4.9134,0.0,5.0196,5.0338,5.0637,5.0996,5.1206,5.1206,5.1206,5.1206,5.1206,5.1206,5.1206,5.1206,5.1206,5.1206,5.1206,5.1206,5.1206,5.1206,0.0,5.1206,5.1206,5.1206,5.0966,5.0637,5.0637,5.0249,4.9673,4.9673,4.9284,4.8708,4.8409,4.8813,4.951,4.965,4.9694,4.9793,5.0242,5.0397,5.0608,5.1631,5.1903,5.217,5.3213,5.3518,5.3518,5.3518,5.3518,5.3518,5.3518,5.3518,5.3518,5.3518,5.3518,5.3518,5.3518,5.3518,5.3518,5.3518,5.3518,5.3518,5.3518,5.3518,5.3518,5.3518,5.3518,5.3518,5.3518,5.3518,5.3518,5.3518,5.3518,5.3518,5.3518,5.3518,5.3518,5.3518,5.3518,5.3518,5.3518,5.3518,5.3518,5.3518,5.3518,5.3518,4.329,4.329,4.329,4.329,4.329,4.329,4.329,4.329,4.329,4.329,0.0,4.329,4.329,4.329,4.329,4.329,0.0,4.5304,4.5304,4.6441,4.7309,4.7309,4.7369,4.7698,4.8379,4.9037,4.9673,5.0308,5.0315,5.0607,5.1176,5.1206,5.1206,5.1206,5.1206,5.1206,5.1206,5.1206,5.1206,5.1206,5.1206,5.1206,5.1206,5.1206,5.1206,5.1206,0.0,0.0,5.1206,5.1206,5.1206,5.1206,5.1206,5.0847,5.0315,5.0315,4.9972,4.9337,4.8745,4.8498,4.8443,4.8559,4.8594,4.8779,4.9694,4.9989,5.0204,5.1211,5.1488,5.1758,5.28,5.3093,5.3093,5.3093,5.3179,5.3297,5.3297,5.3399,5.3518,5.3518,5.3518,5.3518,5.3518,5.3518,5.3518,5.3518,5.3518,5.3518,5.3518,5.3518,5.3518,5.3518,5.3518,5.3518,5.3518,5.3518,5.3518,5.3518,5.3518,5.3518,5.3518,5.3518,5.3518,5.3518,5.3518,5.3518,5.3518,5.3518,5.3518,5.3518,5.3518,5.3518,4.329,4.329,4.329,4.329,4.329,4.329,4.329,4.329,0.0,0.0,4.329,4.329,4.329,4.329,4.329,4.329,0.0,0.0,0.0,0.0,4.7309,0.0,0.0,0.0,0.0,0.0,0.0,0.0,0.0,0.0,5.1176,5.1206,5.1206,5.1206,5.1206,5.1206,5.1206,5.1206,5.1206,5.1206,5.1206,5.1206,5.1206,5.1206,5.1206,5.1206,0.0,0.0,5.1206,5.1206,5.1206,5.1206,5.1206,5.1116,5.1026,5.1026,5.0607,5.0039,4.992,4.9553,4.8962,4.7907,4.7559,4.7602,4.7785,4.7828,4.803,4.9054,4.9336,4.9595,5.0646,5.0962,5.0962,5.0962,5.1576,5.2187,5.2187,5.287,5.3518,5.3518,5.3518,5.3518,5.3518,5.3518,5.3518,5.3518,5.3518,5.3518,5.3518,5.3518,5.3518,5.3518,5.3518,5.3518,5.3518,5.3518,5.3518,5.3518,5.3518,5.3518,5.3518,5.3518,5.3518,5.3518,5.3518,5.3518,5.3518,5.3518,5.3518,5.3518,5.3518,5.3518,4.329,4.329,4.329,4.329,4.329,4.329,4.329,0.0,0.0,0.0,4.329,4.329,4.329,4.329,0.0,4.3758,4.4646,4.5424,0.0,0.0,0.0,0.0,0.0,0.0,0.0,0.0,0.0,0.0,0.0,0.0,5.1206,5.1206,5.1206,5.1206,5.1206,5.1206,5.1206,5.1206,5.1206,5.1206,5.1206,5.1206,5.1206,5.1206,5.1206,5.1206,0.0,0.0,5.1206,5.1206,5.1206,5.1206,5.1206,5.1206,5.1206,5.1206,5.0996,5.0667,5.0315,5.0009,4.9613,4.8626,4.8087,4.7758,4.7399,4.7309,4.7516,4.8512,4.882,4.9034,5.0126,5.0397,5.0397,5.0397,5.076,5.1248,5.1795,5.2312,5.2835,5.3382,5.3518,5.3518,5.3518,5.3518,5.3518,5.3518,5.3518,5.3518,5.3518,5.3518,5.3518,5.3518,5.3518,5.3518,5.3518,5.3518,5.3518,5.3518,5.3518,5.3518,5.3518,5.3518,5.3518,5.3518,5.3518,5.3518,5.3518,5.3518,5.3518,5.3518,5.3518,5.3518,4.329,4.329,4.329,4.329,4.329,4.329,4.329,4.329,0.0,0.0,4.329,4.329,4.329,4.329,4.3499,0.0,4.4855,4.5544,4.6211,4.6869,0.0,0.0,0.0,0.0,0.0,0.0,0.0,0.0,0.0,0.0,0.0,5.1206,5.1206,5.1206,5.1206,5.1206,5.1206,5.1206,5.1206,5.1206,5.1206,5.1206,5.1206,5.1206,5.1206,5.1206,0.0,0.0,0.0,5.1206,5.1206,5.1206,5.1206,5.1206,5.1206,5.1206,5.1206,5.1116,5.0607,5.0405,5.0308,4.9673,4.8947,4.8199,4.7668,4.7429,4.7452,4.8252,4.847,4.8677,4.9496,4.9734,4.9773,5.0009,5.0048,5.0339,5.1359,5.1758,5.217,5.2973,5.3348,5.3518,5.3518,5.3518,5.3518,5.3518,5.3518,5.3518,5.3518,5.3518,5.3518,5.3518,5.3518,5.3518,5.3518,5.3518,5.3518,5.3518,5.3518,5.3518,5.3518,5.3518,5.3518,5.3518,5.3518,5.3518,5.3518,5.3518,5.3518,5.3518,5.3518,5.3518,4.329,4.329,4.329,4.329,4.329,4.329,4.329,0.0,0.0,4.329,4.329,4.329,4.329,4.329,0.0,0.0,0.0,4.5544,4.6211,4.6869,4.7309,4.7309,0.0,0.0,0.0,0.0,0.0,0.0,0.0,0.0,0.0,5.1206,5.1206,5.1206,5.1206,5.1206,5.1206,5.1206,5.1206,5.1206,5.1206,5.1206,5.1206,5.1206,5.1206,5.1206,0.0,0.0,0.0,5.1206,5.1206,5.1206,5.1206,5.1206,5.1206,5.1206,5.1206,5.1176,5.1116,5.1116,5.0996,5.0338,4.9314,4.8289,4.8229,4.7788,4.7331,4.7387,4.743,4.7452,4.7559,4.7581,4.7828,4.8738,4.8932,4.9235,5.0301,5.1248,5.1939,5.2029,5.2835,5.3518,5.3518,5.3518,5.3518,5.3518,5.3518,5.3518,5.3518,5.3518,5.3518,5.3518,5.3518,5.3518,5.3518,5.3518,5.3518,5.3518,5.3518,5.3518,5.3518,5.3518,5.3518,5.3518,5.3518,5.3518,5.3518,5.3518,5.3518,5.3518,5.3518,5.3518,4.329,4.329,4.329,4.329,4.329,4.329,4.329,0.0,4.329,4.329,4.329,4.329,4.329,4.329,4.3668,4.4736,4.5125,0.0,4.6749,4.7108,4.7309,4.7309,0.0,0.0,0.0,0.0,0.0,0.0,0.0,0.0,0.0,5.1206,5.1206,5.1206,5.1206,5.1206,5.1206,5.1206,5.1206,5.1206,5.1206,5.1206,5.1206,5.1206,5.1206,5.1206,0.0,0.0,0.0,5.1206,5.1206,5.1206,5.1206,5.1206,5.1206,5.1206,5.1206,5.1206,5.1206,5.1206,5.1146,5.0877,4.9942,4.8828,4.8438,4.7818,4.7309,4.7309,4.7309,4.7309,4.7309,4.7309,4.7387,4.7807,4.7882,4.8198,4.9195,4.9742,5.0211,5.0873,5.1355,5.1846,5.2451,5.254,5.2765,5.3399,5.3518,5.3518,5.3518,5.3518,5.3518,5.3518,5.3518,5.3518,5.3518,5.3518,5.3518,5.3518,5.3518,5.3518,5.3518,5.3518,5.3518,5.3518,5.3518,5.3518,5.3518,5.3518,5.3518,5.3518,5.3518,5.3518,4.329,4.329,4.329,4.329,4.329,4.329,0.0,0.0,4.329,4.329,4.329,4.329,4.329,4.329,4.3758,4.5095,4.5304,4.5753,4.713,4.7309,4.7369,0.0,0.0,0.0,0.0,0.0,0.0,0.0,0.0,0.0,0.0,5.1206,5.1206,5.1206,5.1206,5.1206,5.1206,5.1206,5.1206,5.1206,5.1206,5.1206,5.1206,5.1206,5.1206,0.0,0.0,0.0,0.0,5.1206,5.1206,5.1206,5.1206,5.1206,5.1206,5.1206,5.1206,5.1206,5.1206,5.1206,5.1176,5.0966,5.0182,4.9157,4.8498,4.7818,4.7309,4.7309,4.7309,4.7309,4.7309,4.7309,4.7309,4.7309,4.7309,4.7495,4.8189,4.8594,4.9013,4.9773,5.0184,5.0627,5.1322,5.1451,5.1813,5.287,5.3041,5.3144,5.3484,5.3518,5.3518,5.3518,5.3518,5.3518,5.3518,5.3518,5.3518,5.3518,5.3518,5.3518,5.3518,5.3518,5.3518,5.3518,5.3518,5.3518,5.3518,5.3518,5.3518,5.3518,5.3518,5.3518,4.329,4.329,4.329,4.329,4.329,4.329,0.0,0.0,4.329,4.329,4.329,4.329,4.329,4.329,4.3758,4.5095,4.5304,4.5753,4.713,4.7309,4.7549,0.0,0.0,0.0,0.0,0.0,0.0,0.0,0.0,0.0,0.0,0.0,5.1206,5.1206,5.1206,5.1206,5.1206,5.1206,5.1206,5.1206,5.1206,5.1206,5.1206,5.1206,0.0,0.0,0.0,0.0,0.0,5.1206,5.1206,5.1206,5.1206,5.1206,5.1206,5.1206,5.1206,5.1206,5.1206,5.1206,5.1086,5.0428,4.9793,4.9157,4.8498,4.7818,4.7309,4.7309,4.7309,4.7309,4.7309,4.7309,4.7309,4.7309,4.7309,4.7309,4.7309,4.8115,4.882,4.8789,4.9675,5.0397,5.0397,5.0416,5.076,5.1776,5.1921,5.2294,5.3365,5.3518,5.3518,5.3518,5.3518,5.3518,5.3518,5.3518,5.3518,5.3518,5.3518,5.3518,5.3518,5.3518,5.3518,5.3518,5.3518,5.3518,5.3518,5.3518,5.3518,5.3518,5.3518,5.3518,4.329,4.329,4.329,4.329,4.329,4.329,4.329,4.329,4.329,4.329,4.329,4.329,4.329,4.329,4.3609,4.4476,4.5005,4.5603,0.0,0.0,0.0,0.0,0.0,0.0,0.0,0.0,0.0,0.0,0.0,0.0,0.0,0.0,5.1206,5.1206,5.1206,5.1206,5.1206,5.1206,5.1206,5.1206,5.1206,5.1206,5.1206,5.1206,0.0,0.0,0.0,0.0,0.0,5.1206,5.1206,5.1206,5.1206,5.1206,5.1206,5.1206,5.1206,5.1116,5.0697,5.0518,5.0428,4.9793,4.9157,4.8588,4.8379,4.7818,4.7309,4.7309,4.7309,4.7309,4.7309,4.7309,4.7309,4.7309,4.7309,4.7309,4.7309,4.7559,4.7785,4.7785,4.803,4.8501,4.9175,4.9316,4.9675,5.0722,5.1451,5.2011,5.2365,5.3059,5.3518,5.3518,5.3518,5.3518,5.3518,5.3518,5.3518,5.3518,5.3518,5.3518,5.3518,5.3518,5.3518,5.3518,5.3518,5.3518,5.3518,5.3518,5.3518,5.3518,5.3518,5.3788,4.329,4.329,4.329,4.329,4.329,0.0,0.0,4.329,4.329,4.329,4.329,4.329,4.329,4.329,4.3499,4.4177,4.4855,0.0,0.0,0.0,0.0,0.0,0.0,0.0,0.0,0.0,0.0,0.0,0.0,0.0,0.0,0.0,5.1206,5.1206,5.1206,5.1206,5.1206,5.1206,5.1206,5.1206,5.1206,5.1206,5.1206,0.0,0.0,0.0,0.0,0.0,0.0,5.1206,5.1206,5.1206,5.1206,5.1206,5.1176,5.0907,5.0817,5.0727,5.0069,4.9883,4.9763,4.9127,4.8468,4.7908,4.7908,4.7638,4.7309,4.7309,4.7309,4.7309,4.7309,4.7309,4.7309,4.7309,4.7309,4.7309,4.7309,4.7309,4.7309,4.7309,4.7309,4.7495,4.8136,4.8231,4.8574,4.9635,5.0684,5.1451,5.1867,5.2835,5.3518,5.3518,5.3518,5.3518,5.3518,5.3518,5.3518,5.3518,5.3518,5.3518,5.3518,5.3518,5.3518,5.3518,5.3518,5.3518,5.3518,5.3518,5.3518,5.3518,5.3788,5.416,0.0,4.329,4.329,4.329,4.329,4.329,4.329,4.329,0.0,4.329,4.329,4.329,4.329,4.329,4.3519,0.0,0.0,0.0,0.0,0.0,0.0,0.0,0.0,0.0,0.0,0.0,0.0,0.0,0.0,0.0,0.0,0.0,0.0,5.1206,5.1206,5.1206,5.1206,5.1206,5.1206,5.1206,5.1206,5.1206,5.1206,0.0,0.0,0.0,0.0,0.0,0.0,5.1206,5.1206,5.1206,5.1146,5.1116,5.1056,5.0398,5.0159,5.0039,4.9456,4.9239,4.9097,4.8468,4.7818,4.7309,4.7309,4.7309,4.7309,4.7309,4.7309,4.7309,4.7309,4.7309,4.7309,4.7309,4.7309,4.7309,4.7309,4.7309,4.7309,4.7309,4.7309,4.7309,4.7309,4.7309,4.7615,4.8553,4.9595,5.0627,5.1543,5.261,5.3314,5.3382,5.3382,5.3416,5.3501,5.3518,5.3518,5.3518,5.3518,5.3518,5.3518,5.3518,5.3518,5.3518,5.3518,5.3518,5.3518,5.3518,5.3518,5.3585,5.4262,5.4651,4.329,0.0,4.329,4.329,4.329,4.329,0.0,0.0,0.0,0.0,0.0,4.329,4.329,4.329,4.3349,0.0,0.0,0.0,0.0,0.0,0.0,0.0,0.0,0.0,0.0,0.0,0.0,0.0,0.0,0.0,0.0,0.0,0.0,5.1206,5.1206,5.1206,5.1206,5.1206,5.1206,5.1206,5.1206,5.1206,5.1206,0.0,0.0,0.0,0.0,0.0,0.0,5.1206,5.1206,5.1146,5.0637,5.0458,5.0368,4.9733,4.9516,4.9426,4.8768,4.8528,4.8438,4.7758,4.7429,4.7309,4.7309,4.7309,4.7309,4.7309,4.7309,4.7309,4.7309,4.7309,4.7309,4.7309,4.7309,4.7309,4.7309,4.7309,4.7309,4.7309,4.7309,4.7309,4.7309,4.7309,4.7366,4.7624,4.8522,4.9256,4.9516,5.0474,5.1428,5.2205,5.2277,5.261,5.3416,5.3518,5.3518,5.3518,5.3518,5.3518,5.3518,5.3518,5.3518,5.3518,5.3518,5.3518,5.3518,5.3518,5.3788,5.4329,5.4499,5.5209,4.329,4.329,4.329,4.329,4.329,4.329,4.329,4.329,0.0,0.0,0.0,4.329,4.329,4.329,0.0,0.0,0.0,0.0,0.0,0.0,0.0,0.0,0.0,0.0,0.0,0.0,0.0,0.0,0.0,0.0,0.0,0.0,0.0,0.0,5.1206,5.1206,5.1206,5.1206,5.1206,5.1206,5.1206,5.1206,5.1206,0.0,0.0,0.0,0.0,0.0,5.1206,5.1206,5.1026,5.0697,5.0338,5.0039,4.9703,4.9067,4.8828,4.8738,4.8057,4.7848,4.7788,4.7429,4.7309,4.7309,4.7309,4.7309,4.7309,4.7309,4.7309,4.7309,4.7309,4.7309,4.7309,4.7309,4.7309,4.7309,4.7309,4.7309,4.7309,4.7309,4.7309,4.7309,4.7309,4.7309,4.7309,4.7309,4.8147,4.882,4.882,4.9734,5.0608,5.1155,5.1211,5.1631,5.2662,5.2783,5.2956,5.345,5.3518,5.3518,5.3518,5.3518,5.3518,5.3518,5.3518,5.3518,5.3518,5.3518,5.389,5.46,5.4938,5.5716,4.329,4.329,4.329,4.329,4.329,4.329,4.329,4.329,4.329,0.0,0.0,0.0,4.3061,4.319,0.0,0.0,0.0,0.0,0.0,0.0,0.0,0.0,0.0,0.0,0.0,0.0,0.0,0.0,0.0,0.0,0.0,0.0,0.0,0.0,5.1206,5.1206,5.1206,5.1206,5.1206,5.1206,5.1206,5.1206,5.1206,5.1206,0.0,0.0,0.0,0.0,5.1056,5.1056,5.0667,5.0039,4.9949,4.9613,4.9067,4.8409,4.8169,4.8079,4.7489,4.7309,4.7309,4.7309,4.7309,4.7309,4.7309,4.7309,4.7309,4.7309,4.7309,4.7309,4.7309,4.7309,4.7309,4.7309,4.7309,4.7309,4.7309,4.7309,4.7309,4.7309,4.7309,4.7309,4.7309,4.7309,4.7309,4.7309,4.803,4.8574,4.8574,4.9356,4.997,5.0145,5.0145,5.057,5.1561,5.1685,5.2134,5.3179,5.3399,5.3518,5.3518,5.3518,5.3518,5.3518,5.3518,5.3518,5.3518,5.3619,5.4059,5.4769,5.553,5.624,4.329,4.329,4.329,4.329,4.329,4.329,4.329,4.329,4.329,0.0,0.0,0.0,0.0,4.2649,0.0,0.0,0.0,0.0,0.0,0.0,0.0,0.0,0.0,0.0,0.0,0.0,0.0,0.0,0.0,0.0,0.0,0.0,0.0,0.0,0.0,5.1206,5.1206,5.1206,5.1206,5.1206,5.1206,5.1206,5.1206,5.1206,5.1206,0.0,0.0,0.0,5.0345,5.0345,4.9979,4.9366,4.8805,4.8558,4.8379,4.7698,4.7459,4.7429,4.7339,4.7309,4.7309,4.7309,4.7309,4.7309,4.7309,4.7309,4.7309,4.7309,4.7309,4.7309,4.7309,4.7309,4.7309,4.7309,4.7309,4.7309,4.7309,4.7309,4.7309,4.7309,4.7309,4.7309,4.7309,4.7309,4.7309,4.7309,4.743,4.7538,4.7538,4.7658,4.8093,4.8932,4.9034,4.9476,5.0531,5.0627,5.1061,5.2065,5.3024,5.3518,5.3518,5.3518,5.3518,5.3518,5.3518,5.3518,5.3518,5.4126,5.4803,5.553,5.6274,5.7036,4.329,4.329,4.329,4.329,4.329,4.315,4.2528,4.2386,4.2386,0.0,0.0,0.0,0.0,0.0,0.0,0.0,0.0,0.0,0.0,0.0,0.0,0.0,0.0,0.0,0.0,0.0,0.0,0.0,0.0,0.0,0.0,0.0,0.0,0.0,0.0,0.0,5.0119,5.0119,5.0484,5.1206,5.1206,5.1206,5.1206,5.1206,5.0996,0.0,0.0,5.0278,4.9703,4.9703,4.9344,4.8738,4.8438,4.8079,4.7728,4.7429,4.7309,4.7309,4.7309,4.7309,4.7309,4.7309,4.7309,4.7309,4.7309,4.7309,4.7309,4.7309,4.7309,4.7309,4.7309,4.7309,4.7309,4.7309,4.7309,4.7309,4.7309,4.7309,4.7309,4.7309,4.7309,4.7309,4.7309,4.7309,4.7309,4.7309,4.7309,4.7309,4.7309,4.7309,4.7473,4.7925,4.7988,4.8418,4.9456,4.9536,5.0191,5.1813,5.2904,5.3518,5.3518,5.3518,5.3518,5.3518,5.3518,5.3687,5.4093,5.4431,5.5175,5.6308,5.663,5.7205,4.329,4.329,4.329,4.329,4.329,4.3001,4.1864,4.1587,0.0,0.0,0.0,0.0,0.0,0.0,0.0,0.0,0.0,0.0,0.0,0.0,0.0,0.0,0.0,0.0,0.0,0.0,0.0,0.0,0.0,0.0,0.0,0.0,0.0,0.0,0.0,0.0,4.9186,4.921,4.9873,5.1206,5.1206,5.1206,5.1176,5.1026,5.0697,5.0196,5.0039,4.9643,4.9067,4.9067,4.8678,4.8079,4.8079,4.7758,4.7309,4.7309,4.7309,4.7309,4.7309,4.7309,4.7309,4.7309,4.7309,4.7309,4.7309,4.7309,4.7309,4.7309,4.7309,4.7309,4.7309,4.7309,4.7309,4.7309,4.7309,4.7309,4.7309,4.7309,4.7309,4.7309,4.7309,4.7309,4.7309,4.7309,4.7309,4.7309,4.7309,4.7309,4.7309,4.7309,4.7309,4.7309,4.7309,4.7593,4.8397,4.8656,4.9496,5.1048,5.2383,5.3263,5.3501,5.3518,5.3518,5.3518,5.3518,5.3856,5.4617,5.4769,5.5513,5.6799,5.6968,5.734,4.329,4.329,4.329,4.329,4.329,4.3001,4.1864,4.1587,0.0,4.0232,0.0,0.0,0.0,0.0,0.0,0.0,0.0,0.0,0.0,0.0,0.0,0.0,0.0,0.0,0.0,0.0,0.0,0.0,0.0,0.0,0.0,0.0,0.0,0.0,0.0,0.0,4.9186,4.921,4.9873,5.1206,5.1206,5.1206,5.1176,5.0578,5.0255,5.0166,4.9613,4.8977,4.8379,4.8379,4.7967,4.7369,4.7369,4.7339,4.7309,4.7309,4.7309,4.7309,4.7309,4.7309,4.7309,4.7309,4.7309,4.7309,4.7309,4.7309,4.7309,4.7309,4.7309,4.7309,4.7309,4.7309,4.7309,4.7309,4.7309,4.7309,4.7309,4.7309,4.7309,4.7309,4.7309,4.7309,4.7309,4.7309,4.7309,4.7309,4.7309,4.7309,4.7309,4.7309,4.7309,4.7309,4.7309,4.7331,4.7387,4.8252,4.8851,4.9013,5.093,5.2469,5.3484,5.3518,5.3518,5.3518,5.3518,5.3856,5.4617,5.531,5.6037,5.6833,5.7476,5.7866,4.329,4.28,4.2426,4.313,4.278,0.0,0.0,4.0532,4.021,3.9028,3.8783,0.0,0.0,0.0,0.0,0.0,0.0,0.0,0.0,0.0,0.0,0.0,0.0,0.0,0.0,0.0,0.0,0.0,0.0,0.0,0.0,0.0,0.0,0.0,0.0,0.0,0.0,4.6083,4.6601,4.7692,4.9663,5.0578,5.0578,4.9942,4.9404,4.9015,4.8798,4.8319,4.7668,4.7668,4.7519,4.7309,4.7309,4.7309,4.7309,4.7309,4.7309,4.7309,4.7309,4.7309,4.7309,4.7309,4.7309,4.7309,4.7309,4.7309,4.7309,4.7309,4.7309,4.7309,4.7309,4.7309,4.7309,4.7309,4.7309,4.7309,4.7309,4.7309,4.7309,4.7309,4.7309,4.7309,4.7309,4.7309,4.7309,4.7309,4.7309,4.7309,4.7309,4.7309,4.7309,4.7309,4.7309,4.7309,4.7309,4.7636,4.8136,4.8779,5.0747,5.2065,5.2504,5.3144,5.3518,5.3518,5.3957,5.4532,5.531,5.6021,5.6765,5.7476,5.7764,5.79,4.278,4.1926,4.1253,4.2009,4.1657,4.0767,3.9601,3.9623,3.9448,3.7883,3.7563,0.0,0.0,0.0,0.0,0.0,0.0,0.0,0.0,0.0,0.0,0.0,0.0,0.0,0.0,0.0,0.0,0.0,0.0,0.0,0.0,0.0,0.0,0.0,0.0,0.0,0.0,4.3966,4.445,4.5521,4.7472,4.8512,4.8711,4.8068,4.7541,4.7102,4.7287,4.7118,4.6726,4.7127,4.7309,4.7309,4.7309,4.7309,4.7309,4.7309,4.7309,4.7309,4.7309,4.7309,4.7309,4.7309,4.7309,4.7309,4.7309,4.7309,4.7309,4.7309,4.7309,4.7309,4.7309,4.7309,4.7309,4.7309,4.7309,4.7309,4.7309,4.7309,4.7309,4.7309,4.7309,4.7309,4.7309,4.7309,4.7309,4.7309,4.7309,4.7309,4.7309,4.7309,4.7309,4.7309,4.7309,4.7309,4.7309,4.7309,4.7602,4.8272,4.9958,5.1229,5.1885,5.261,5.3245,5.3856,5.4329,5.5074,5.6037,5.6544,5.7171,5.79,5.79,5.79,4.1587,4.0746,3.9913,3.9913,3.9913,3.9558,3.8379,3.9028,3.9205,3.6873,0.0,0.0,0.0,0.0,0.0,0.0,0.0,0.0,0.0,0.0,0.0,0.0,0.0,0.0,0.0,0.0,0.0,0.0,0.0,0.0,0.0,0.0,0.0,0.0,0.0,0.0,0.0,4.3358,4.4072,4.5444,4.4761,4.4841,4.5468,4.4785,4.4484,4.4529,4.5143,4.5389,4.5508,4.677,4.7309,4.7309,4.7309,4.7309,4.7309,4.7309,4.7309,4.7309,4.7309,4.7309,4.7309,4.7309,4.7309,4.7309,4.7309,4.7309,4.7309,4.7309,4.7309,4.7309,4.7309,4.7309,4.7309,4.7309,4.7309,4.7309,4.7309,4.7309,4.7309,4.7309,4.7309,4.7309,4.7309,4.7309,4.7309,4.7309,4.7309,4.7309,4.7309,4.7309,4.7309,4.7309,4.7309,4.7309,4.7309,4.7309,4.7309,4.7309,4.8231,4.9702,5.1762,5.1903,5.2766,5.4549,5.46,5.5344,5.6799,5.6799,5.7171,5.79,5.79,5.79,4.0404,3.9558,0.0,3.9689,3.9249,0.0,0.0,3.8379,0.0,0.0,0.0,0.0,0.0,0.0,0.0,0.0,0.0,0.0,0.0,0.0,0.0,0.0,0.0,0.0,0.0,0.0,0.0,0.0,0.0,0.0,0.0,0.0,0.0,0.0,0.0,0.0,0.0,0.0,4.1363,4.1412,4.1231,4.242,4.4758,4.4076,4.3804,4.3847,4.492,4.5389,4.5508,4.677,4.7309,4.7309,4.7309,4.7309,4.7309,4.7309,4.7309,4.7309,4.7309,4.7309,4.7309,4.7309,4.7309,4.7309,4.7309,4.7309,4.7309,4.7309,4.7309,4.7309,4.7309,4.7309,4.7309,4.7309,4.7309,4.7309,4.7309,4.7309,4.7309,4.7309,4.7309,4.7309,4.7309,4.7309,4.7309,4.7309,4.7309,4.7309,4.7309,4.7309,4.7309,4.7309,4.7309,4.7309,4.7309,4.7309,4.7309,4.7309,4.7581,4.8335,4.9643,5.1628,5.2942,5.3464,5.523,5.6359,5.6799,5.7306,5.7697,5.79,5.79,5.79,3.9183,3.8311,0.0,3.8338,3.7952,3.7402,3.7402,0.0,0.0,0.0,0.0,0.0,0.0,0.0,0.0,0.0,0.0,0.0,0.0,0.0,0.0,0.0,0.0,0.0,0.0,0.0,0.0,0.0,0.0,0.0,0.0,0.0,0.0,0.0,0.0,0.0,0.0,0.0,0.0,3.9697,3.9697,4.0721,4.2591,4.217,4.1985,4.2108,4.3882,4.5207,4.6211,4.6975,4.7309,4.7309,4.7309,4.7309,4.7309,4.7309,4.7309,4.7309,4.7309,4.7309,4.7309,4.7309,4.7309,4.7309,4.7309,4.7309,4.7309,4.7309,4.7309,4.7309,4.7309,4.7309,4.7309,4.7309,4.7309,4.7309,4.7309,4.7309,4.7309,4.7309,4.7309,4.7309,4.7309,4.7309,4.7309,4.7309,4.7309,4.7309,4.7309,4.7309,4.7309,4.7309,4.7309,4.7309,4.7309,4.7309,4.7309,4.7309,4.7549,4.7972,4.8596,5.0623,5.2185,5.3173,5.515,5.6285,5.6553,5.7462,5.79,5.79,5.79,5.79,3.7948,3.7196,0.0,3.6405,3.6405,0.0,0.0,0.0,0.0,0.0,0.0,0.0,0.0,0.0,0.0,0.0,0.0,0.0,0.0,0.0,0.0,0.0,0.0,0.0,0.0,0.0,0.0,0.0,0.0,0.0,0.0,0.0,0.0,0.0,0.0,0.0,0.0,0.0,0.0,0.0,3.9697,3.9697,3.9697,3.9697,3.9774,4.0006,4.2301,4.4794,4.7127,4.7127,4.7222,4.7309,4.7309,4.7309,4.7309,4.7309,4.7309,4.7309,4.7309,4.7309,4.7309,4.7309,4.7309,4.7309,4.7309,4.7309,4.7309,4.7309,4.7309,4.7309,4.7309,4.7309,4.7309,4.7309,4.7309,4.7309,4.7309,4.7309,4.7309,4.7309,4.7309,4.7309,4.7309,4.7309,4.7309,4.7309,4.7309,4.7309,4.7309,4.7309,4.7309,4.7309,4.7309,4.7309,4.7309,4.7309,4.7339,4.7399,4.7967,4.8327,4.8446,4.9445,5.1049,5.3307,5.4561,5.5526,5.6204,5.7335,5.79,5.79,5.79,5.79,3.6779,3.6593,0.0,0.0,3.6405,3.6405,3.6405,0.0,0.0,0.0,0.0,0.0,0.0,0.0,0.0,0.0,0.0,0.0,0.0,0.0,0.0,0.0,0.0,0.0,0.0,0.0,0.0,0.0,0.0,0.0,0.0,0.0,0.0,0.0,0.0,0.0,3.9697,3.9697,3.9697,0.0,3.9697,3.9697,3.9697,3.9697,4.0236,4.1219,4.1764,4.3456,4.5801,4.5801,4.6388,4.7309,4.7309,4.7309,4.7309,4.7309,4.7309,4.7309,4.7309,4.7309,4.7309,4.7309,4.7309,4.7309,4.7309,4.7309,4.7309,4.7309,4.7309,4.7309,4.7309,4.7309,4.7309,4.7309,4.7309,4.7309,4.7309,4.7309,4.7309,4.7309,4.7309,4.7309,4.7309,4.7309,4.7309,4.7309,4.7309,4.7309,4.7309,4.7309,4.7309,4.7309,4.7309,4.7309,4.7309,4.7309,4.7519,4.8027,4.8207,4.8745,4.974,5.0874,5.1707,5.2245,5.4677,5.6039,5.6204,5.7335,5.79,5.79,5.79,5.79,3.6405,0.0,0.0,3.6405,0.0,3.6405,3.6405,0.0,0.0,0.0,0.0,0.0,0.0,0.0,0.0,0.0,0.0,0.0,0.0,0.0,0.0,0.0,0.0,0.0,0.0,0.0,0.0,0.0,0.0,0.0,0.0,0.0,0.0,0.0,0.0,0.0,3.9697,3.9697,3.9697,3.9697,3.9697,3.9697,3.9697,3.9697,4.0415,4.1591,4.1591,4.2689,4.4489,4.4489,4.4886,4.5457,4.5457,4.5457,4.5553,4.6166,4.6388,4.6484,4.7084,4.7309,4.7309,4.7309,4.7309,4.7309,4.7309,4.7309,4.7309,4.7309,4.7309,4.7309,4.7309,4.7309,4.7309,4.7309,4.7309,4.7309,4.7309,4.7309,4.7309,4.7309,4.7309,4.7309,4.7309,4.7309,4.7309,4.7309,4.7309,4.7309,4.7309,4.7309,4.7309,4.7309,4.7309,4.7309,4.7309,4.7309,4.7578,4.8259,4.8588,4.9194,5.0136,5.1077,5.1568,5.1568,5.4093,5.5417,5.5417,5.7076,5.79,5.79,5.79,5.79,3.6405,3.6405,3.6405,3.6405,3.6405,0.0,3.6405,3.6405,0.0,0.0,0.0,0.0,0.0,0.0,0.0,0.0,0.0,0.0,0.0,0.0,0.0,0.0,0.0,0.0,0.0,0.0,0.0,0.0,0.0,0.0,0.0,0.0,0.0,0.0,0.0,3.9697,3.9697,3.9697,3.9697,3.9697,3.9697,3.9697,3.9697,3.9697,4.0287,4.1269,4.1269,4.1985,4.317,4.317,4.3313,4.3504,4.3504,4.3504,4.3622,4.4674,4.5207,4.5553,4.6616,4.7106,4.7309,4.7309,4.7309,4.7309,4.7309,4.7309,4.7309,4.7309,4.7309,4.7309,4.7309,4.7309,4.7309,4.7309,4.7309,4.7309,4.7309,4.7309,4.7309,4.7309,4.7309,4.7309,4.7309,4.7309,4.7309,4.7309,4.7309,4.7309,4.7309,4.7309,4.7309,4.7309,4.7309,4.7309,4.7309,4.7399,4.7758,4.8438,4.9097,4.9733,5.0368,5.0907,5.1206,5.1206,5.3418,5.461,5.461,5.6811,5.79,5.79,5.79,5.79,3.6405,0.0,3.6405,0.0,3.6405,3.6405,0.0,0.0,0.0,0.0,0.0,0.0,0.0,0.0,0.0,0.0,0.0,0.0,0.0,0.0,0.0,0.0,0.0,0.0,0.0,0.0,0.0,0.0,0.0,0.0,0.0,0.0,3.9697,3.9697,3.9697,0.0,3.9697,3.9697,3.9697,3.9697,3.9697,3.9697,3.9697,3.9697,3.98,3.9955,3.9955,4.0668,4.1838,4.1838,4.2496,4.3504,4.3504,4.3504,4.3527,4.3693,4.4442,4.5411,4.5598,4.6366,4.7309,4.7309,4.7309,4.7309,4.7309,4.7309,4.7309,4.7309,4.7309,4.7309,4.7309,4.7309,4.7309,4.7309,4.7309,4.7309,4.7309,4.7309,4.7309,4.7309,4.7309,4.7309,4.7309,4.7309,4.7309,4.7309,4.7309,4.7309,4.7309,4.7309,4.7309,4.7309,4.7309,4.7309,4.7309,4.7818,4.8468,4.9127,4.9733,5.0368,5.1026,5.1146,5.1206,5.1206,5.3418,5.461,5.461,5.6811,5.79,5.79,5.79,5.79,3.6405,3.6405,3.6405,0.0,3.6405,3.6405,3.6405,0.0,0.0,0.0,0.0,0.0,0.0,0.0,0.0,0.0,0.0,0.0,0.0,0.0,0.0,0.0,0.0,0.0,0.0,0.0,0.0,0.0,0.0,0.0,0.0,3.9697,3.9697,3.9697,3.9697,0.0,3.9697,3.9697,3.9697,3.9697,3.9697,3.9697,3.9697,3.9697,3.9697,3.9697,3.9697,4.0032,4.0542,4.0542,4.0869,4.1369,4.1369,4.1369,4.1468,4.2181,4.2786,4.348,4.4909,4.5779,4.6344,4.7062,4.7309,4.7309,4.7309,4.7309,4.7309,4.7309,4.7309,4.7309,4.7309,4.7309,4.7309,4.7309,4.7309,4.7309,4.7309,4.7309,4.7309,4.7309,4.7309,4.7309,4.7309,4.7309,4.7309,4.7309,4.7309,4.7309,4.7309,4.7309,4.7309,4.7309,4.7309,4.7309,4.7309,4.7908,4.8588,4.9247,4.986,5.0518,5.1176,5.1206,5.1206,5.1206,5.2812,5.3656,5.3656,5.5268,5.6354,5.6963,5.6963,5.7297,3.6405,0.0,3.6405,3.6405,3.6405,3.6405,0.0,0.0,0.0,0.0,0.0,0.0,0.0,0.0,0.0,0.0,0.0,0.0,0.0,0.0,0.0,0.0,0.0,0.0,0.0,0.0,0.0,0.0,0.0,0.0,3.9697,3.9697,3.9697,3.9697,3.9697,3.9697,3.9697,3.9697,3.9697,3.9697,3.9697,3.9697,3.9697,3.9697,3.9697,3.9697,3.9697,3.9697,3.9697,3.9697,3.9697,3.9697,3.9697,3.9697,3.9801,4.0769,4.1319,4.1912,4.4139,4.5138,4.5621,4.6909,4.7309,4.7309,4.7309,4.7309,4.7309,4.7309,4.7309,4.7309,4.7309,4.7309,4.7309,4.7309,4.7309,4.7309,4.7309,4.7309,4.7309,4.7309,4.7309,4.7309,4.7309,4.7309,4.7309,4.7309,4.7309,4.7309,4.7309,4.7309,4.7309,4.7309,4.7309,4.7369,4.7549,4.8169,4.8828,4.9486,5.0099,5.0697,5.1176,5.1206,5.1206,5.1206,5.204,5.262,5.29,5.4041,5.5134,5.6204,5.6204,5.6797,0.0,3.6405,0.0,3.6405,3.6405,0.0,0.0,0.0,0.0,0.0,0.0,0.0,0.0,0.0,0.0,0.0,0.0,0.0,0.0,0.0,0.0,0.0,0.0,0.0,0.0,0.0,0.0,0.0,0.0,0.0,3.9697,3.9697,3.9697,3.9697,3.9697,3.9697,3.9697,3.9697,3.9697,3.9697,3.9697,3.9697,3.9697,3.9697,3.9697,3.9697,3.9697,3.9697,3.9697,3.9697,3.9697,3.9697,3.9697,3.9697,3.9723,3.9774,4.0541,4.1789,4.3122,4.4396,4.5621,4.6909,4.7309,4.7309,4.7309,4.7309,4.7309,4.7309,4.7309,4.7309,4.7309,4.7309,4.7309,4.7309,4.7309,4.7309,4.7309,4.7309,4.7309,4.7309,4.7309,4.7309,4.7309,4.7309,4.7309,4.7309,4.7309,4.7309,4.7309,4.7309,4.7309,4.7309,4.7309,4.7549,4.8177,4.8858,4.9516,5.0106,5.0787,5.1146,5.1206,5.1206,5.1206,5.1206,5.1276,5.1842,5.29,5.4041,5.5134,5.6204,5.6204,5.6797,0.0,0.0,0.0,3.6405,3.6405,3.6405,0.0,0.0,0.0,0.0,0.0,0.0,0.0,0.0,0.0,0.0,0.0,0.0,0.0,0.0,0.0,0.0,0.0,0.0,0.0,0.0,0.0,0.0,0.0,0.0,3.9672,3.9697,3.9697,3.9697,3.9697,3.9697,3.9697,3.9697,3.9697,3.9697,3.9697,3.9697,3.9697,3.9697,3.9697,3.9697,3.9697,3.9697,3.9697,3.9697,3.9697,3.9697,3.9697,3.9697,3.9697,3.9697,3.9981,4.0668,4.2762,4.3811,4.4512,4.6616,4.7309,4.7309,4.7309,4.7309,4.7309,4.7309,4.7309,4.7309,4.7309,4.7309,4.7309,4.7309,4.7309,4.7309,4.7309,4.7309,4.7309,4.7309,4.7309,4.7309,4.7309,4.7309,4.7309,4.7309,4.7309,4.7309,4.7309,4.7309,4.7309,4.7309,4.7309,4.7578,4.8259,4.8917,4.9576,5.0136,5.0817,5.1206,5.1206,5.1206,5.1206,5.1206,5.1206,5.1409,5.1819,5.2245,5.3011,5.4094,5.4826,5.577,3.6405,0.0,0.0,0.0,0.0,3.6405,0.0,0.0,0.0,0.0,0.0,0.0,0.0,0.0,0.0,0.0,0.0,0.0,0.0,0.0,0.0,0.0,0.0,0.0,0.0,0.0,0.0,0.0,0.0,0.0,3.9396,3.9446,3.9496,3.9697,3.9697,3.9697,3.9697,3.9697,3.9697,3.9697,3.9697,3.9697,3.9697,3.9697,3.9697,3.9697,3.9697,3.9697,3.9697,3.9697,3.9697,3.9697,3.9697,3.9697,3.9697,3.9697,3.9697,4.0057,4.2617,4.3218,4.3361,4.6322,4.7019,4.6726,4.7149,4.7309,4.7309,4.7309,4.7309,4.7309,4.7309,4.7309,4.7309,4.7309,4.7309,4.7309,4.7309,4.7309,4.7309,4.7309,4.7309,4.7309,4.7309,4.7309,4.7309,4.7309,4.7309,4.7309,4.7309,4.7309,4.7309,4.7309,4.7309,4.7668,4.8558,4.9037,4.9666,5.0488,5.0936,5.1206,5.1206,5.1206,5.1206,5.1206,5.1206,5.1206,5.1206,5.1206,5.1796,5.2923,5.4062,5.5389,0.0,0.0,0.0,0.0,0.0,0.0,0.0,0.0,0.0,0.0,0.0,0.0,0.0,0.0,0.0,0.0,0.0,0.0,0.0,0.0,0.0,0.0,0.0,0.0,0.0,0.0,0.0,0.0,0.0,3.8241,3.8843,3.8894,3.9145,3.9672,3.9697,3.9697,3.9697,3.9697,3.9697,3.9697,3.9697,3.9697,3.9697,3.9697,3.9697,3.9697,3.9697,3.9697,3.9697,3.9697,3.9697,3.9697,3.9697,3.9697,3.9697,3.9697,3.9697,4.0057,4.2568,4.2617,4.223,4.5958,4.6344,4.5598,4.6866,4.7244,4.7266,4.7287,4.7309,4.7309,4.7309,4.7309,4.7309,4.7309,4.7309,4.7309,4.7309,4.7309,4.7309,4.7309,4.7309,4.7309,4.7309,4.7309,4.7309,4.7309,4.7309,4.7309,4.7309,4.7309,4.7309,4.7309,4.7309,4.7848,4.9187,4.9307,4.9875,5.1116,5.1206,5.1206,5.1206,5.1206,5.1206,5.1206,5.1206,5.1206,5.1206,5.1206,5.1773,5.2878,5.4062,5.577,3.6405,0.0,0.0,0.0,0.0,0.0,0.0,0.0,0.0,0.0,0.0,0.0,0.0,0.0,0.0,0.0,0.0,0.0,0.0,0.0,0.0,0.0,0.0,0.0,0.0,0.0,0.0,0.0,3.7412,3.7663,3.8216,3.8668,3.9145,3.9672,3.9697,3.9697,3.9697,3.9697,3.9697,3.9697,3.9697,3.9697,3.9697,3.9697,3.9697,3.9697,3.9697,3.9697,3.9697,3.9697,3.9697,3.9697,3.9697,3.9697,3.9697,3.9697,3.9697,3.9929,4.1541,4.1887,4.1936,4.3905,4.4303,4.4256,4.5553,4.5913,4.6121,4.704,4.7309,4.7309,4.7309,4.7309,4.7309,4.7309,4.7309,4.7309,4.7309,4.7309,4.7309,4.7309,4.7309,4.7309,4.7309,4.7309,4.7309,4.7309,4.7309,4.7309,4.7309,4.7309,4.7309,4.7309,4.7728,4.8379,4.9239,4.9703,5.0308,5.1146,5.1206,5.1206,5.1206,5.1206,5.1206,5.1206,5.1206,5.1206,5.1206,5.1206,5.1363,5.1727,5.3677,5.577,0.0,0.0,0.0,0.0,0.0,0.0,0.0,3.6405,0.0,0.0,0.0,0.0,0.0,0.0,0.0,0.0,0.0,0.0,0.0,0.0,0.0,0.0,0.0,0.0,0.0,0.0,0.0,0.0,3.6859,3.711,3.7638,3.8191,3.8793,3.9346,3.9371,3.9471,3.9697,3.9697,3.9697,3.9697,3.9697,3.9697,3.9697,3.9697,3.9697,3.9697,3.9697,3.9697,3.9697,3.9697,3.9697,3.9697,3.9697,3.9697,3.9697,3.9697,3.9697,3.9878,4.1144,4.1244,4.1094,4.2906,4.3146,4.2954,4.421,4.4978,4.5553,4.6299,4.6909,4.7309,4.7309,4.7309,4.7309,4.7309,4.7309,4.7309,4.7309,4.7309,4.7309,4.7309,4.7309,4.7309,4.7309,4.7309,4.7309,4.7309,4.7309,4.7309,4.7309,4.7309,4.7309,4.7309,4.7908,4.8588,4.9217,4.9853,5.0488,5.1146,5.1206,5.1206,5.1206,5.1206,5.1206,5.1206,5.1206,5.1206,5.1206,5.1206,5.1681,5.2664,5.3977,5.577,0.0,0.0,0.0,0.0,0.0,0.0,3.6405,3.6405,0.0,0.0,0.0,0.0,0.0,0.0,0.0,0.0,0.0,0.0,0.0,0.0,0.0,0.0,0.0,0.0,0.0,0.0,3.6405,3.6405,3.6405,3.6632,3.7185,3.7638,3.8191,3.8793,3.8869,3.9145,3.9597,3.9672,3.9697,3.9697,3.9697,3.9697,3.9697,3.9697,3.9697,3.9697,3.9697,3.9697,3.9697,3.9697,3.9697,3.9697,3.9697,3.9697,3.9697,3.9697,3.9697,3.9852,4.0994,4.0642,4.0083,4.2325,4.2301,4.1616,4.2906,4.4069,4.5047,4.532,4.6322,4.7309,4.7309,4.7309,4.7309,4.7309,4.7309,4.7309,4.7309,4.7309,4.7309,4.7309,4.7309,4.7309,4.7309,4.7309,4.7309,4.7309,4.7309,4.7309,4.7309,4.7309,4.7339,4.7399,4.7997,4.8678,4.9337,4.9949,5.0578,5.1146,5.1206,5.1206,5.1206,5.1206,5.1206,5.1206,5.1206,5.1206,5.1206,5.1206,5.2305,5.4421,5.4421,5.5591,0.0,0.0,0.0,0.0,0.0,0.0,3.6405,3.6405,3.6405,0.0,0.0,0.0,0.0,0.0,0.0,0.0,0.0,0.0,0.0,0.0,0.0,0.0,0.0,0.0,0.0,0.0,3.6405,3.6405,3.6405,3.6632,3.7185,3.7311,3.7588,3.8165,3.8642,3.8944,3.9044,3.9471,3.9697,3.9697,3.9697,3.9697,3.9697,3.9697,3.9697,3.9697,3.9697,3.9697,3.9697,3.9697,3.9697,3.9697,3.9697,3.9697,3.9697,3.9697,3.9697,3.9749,3.9981,3.9904,3.98,4.0287,4.0262,4.0313,4.1566,4.2157,4.2762,4.484,4.6322,4.7309,4.7309,4.7309,4.7309,4.7309,4.7309,4.7309,4.7309,4.7309,4.7309,4.7309,4.7309,4.7309,4.7309,4.7309,4.7309,4.7309,4.7309,4.7309,4.7309,4.7309,4.7519,4.8027,4.8708,4.9366,4.9979,5.0637,5.1056,5.1176,5.1206,5.1206,5.1206,5.1206,5.1206,5.1206,5.1206,5.1206,5.1206,5.1206,5.188,5.3253,5.3253,5.441,0.0,0.0,0.0,3.6405,0.0,0.0,0.0,3.6405,3.6405,0.0,0.0,0.0,0.0,0.0,0.0,0.0,0.0,0.0,0.0,0.0,0.0,0.0,0.0,0.0,0.0,0.0,3.6405,3.6405,3.6405,3.6531,3.6783,3.6808,3.706,3.7588,3.7914,3.8316,3.8894,3.917,3.9446,3.9697,3.9697,3.9697,3.9697,3.9697,3.9697,3.9697,3.9697,3.9697,3.9697,3.9697,3.9697,3.9697,3.9697,3.9697,3.9697,3.9697,3.9697,3.9697,3.9697,3.9697,3.9697,3.9697,3.9697,3.9801,4.0465,4.1094,4.2133,4.4674,4.5846,4.6506,4.7127,4.7309,4.7309,4.7309,4.7309,4.7309,4.7309,4.7309,4.7309,4.7309,4.7309,4.7309,4.7309,4.7309,4.7309,4.7309,4.7309,4.7309,4.7309,4.7309,4.7549,4.8229,4.8887,4.9546,5.0159,5.0817,5.1206,5.1206,5.1206,5.1206,5.1206,5.1206,5.1206,5.1206,5.1206,5.1206,5.1206,5.1206,5.1796,5.29,5.29,5.3806,0.0,0.0,0.0,0.0,0.0,3.6405,0.0,0.0,0.0,3.6405,0.0,0.0,0.0,0.0,0.0,0.0,0.0,0.0,0.0,0.0,0.0,0.0,0.0,0.0,0.0,0.0,3.6405,3.6405,3.6405,3.6405,3.6405,3.6405,3.6582,3.7034,3.716,3.7637,3.8567,3.8793,3.912,3.9546,3.9647,3.9697,3.9697,3.9697,3.9697,3.9697,3.9697,3.9697,3.9697,3.9697,3.9697,3.9697,3.9697,3.9697,3.9697,3.9697,3.9697,3.9697,3.9697,3.9697,3.9697,3.9697,3.9697,3.9697,3.9697,4.0592,4.2035,4.4093,4.5024,4.5644,4.666,4.7106,4.7309,4.7309,4.7309,4.7309,4.7309,4.7309,4.7309,4.7309,4.7309,4.7309,4.7309,4.7309,4.7309,4.7309,4.7309,4.7309,4.7309,4.7429,4.7758,4.8438,4.9097,4.9703,5.0338,5.0877,5.1206,5.1206,5.1206,5.1206,5.1206,5.1206,5.1206,5.1206,5.1206,5.1206,5.1206,5.1206,5.1681,5.2575,5.2575,5.3187,0.0,0.0,0.0,0.0,3.6405,0.0,0.0,0.0,3.6405,3.6405,0.0,0.0,0.0,0.0,0.0,0.0,0.0,0.0,0.0,0.0,0.0,0.0,0.0,0.0,0.0,0.0,0.0,3.6405,3.6405,3.6405,3.6405,3.6405,3.643,3.6505,3.6959,3.7261,3.7411,3.8391,3.8919,3.8994,3.9471,3.9697,3.9697,3.9697,3.9697,3.9697,3.9697,3.9697,3.9697,3.9697,3.9697,3.9697,3.9697,3.9697,3.9697,3.9697,3.9697,3.9697,3.9697,3.9697,3.9697,3.9697,3.9697,3.9697,3.9697,4.0592,4.164,4.1961,4.3669,4.5411,4.5598,4.6432,4.7309,4.7309,4.7309,4.7309,4.7309,4.7309,4.7309,4.7309,4.7309,4.7309,4.7309,4.7309,4.7309,4.7309,4.7309,4.7309,4.7309,4.7818,4.8438,4.9097,4.9733,5.0368,5.1026,5.1146,5.1206,5.1206,5.1206,5.1206,5.1206,5.1206,5.1206,5.1206,5.1206,5.1206,5.1206,5.1206,5.1276,5.1386,5.1386,5.1995,0.0,0.0,0.0,0.0,0.0,0.0,0.0,0.0,3.5475,0.0,0.0,0.0,0.0,0.0,0.0,0.0,0.0,0.0,0.0,0.0,0.0,0.0,0.0,0.0,0.0,0.0,0.0,0.0,0.0,3.6405,3.6405,3.6405,3.6405,3.6405,3.6607,3.6884,3.721,3.7688,3.824,3.8894,3.9145,3.9396,3.9697,3.9697,3.9697,3.9697,3.9697,3.9697,3.9697,3.9697,3.9697,3.9697,3.9697,3.9697,3.9697,3.9697,3.9697,3.9697,3.9697,3.9697,3.9697,3.9697,3.9697,3.9697,3.9697,4.0083,4.0642,4.1394,4.235,4.3551,4.5024,4.5801,4.6366,4.7106,4.7309,4.7309,4.7309,4.7309,4.7309,4.7309,4.7309,4.7309,4.7309,4.7309,4.7309,4.7309,4.7309,4.7309,4.7309,4.7878,4.8558,4.9239,4.9853,5.0465,5.1146,5.1206,5.1206,5.1206,5.1206,5.1206,5.1206,5.1206,5.1206,5.1206,5.1206,5.1206,5.1206,5.1206,5.1206,5.1206,5.1206,5.1456,3.5114,0.0,0.0,0.0,0.0,0.0,0.0,0.0,0.0,0.0,0.0,0.0,0.0,0.0,0.0,0.0,0.0,0.0,0.0,0.0,0.0,0.0,0.0,0.0,0.0,0.0,0.0,0.0,0.0,0.0,3.6405,3.6405,3.6405,3.6405,3.6405,3.6606,3.6984,3.7135,3.7612,3.8441,3.8743,3.9095,3.9497,3.9622,3.9697,3.9697,3.9697,3.9697,3.9697,3.9697,3.9697,3.9697,3.9697,3.9697,3.9697,3.9697,3.9697,3.9697,3.9697,3.9697,3.9697,3.9697,3.9697,3.9697,3.9697,3.9697,3.9878,4.0819,4.1344,4.2035,4.3882,4.4604,4.5207,4.6484,4.677,4.6887,4.7222,4.7309,4.7309,4.7309,4.7309,4.7309,4.7309,4.7309,4.7309,4.7309,4.7309,4.7369,4.7549,4.8147,4.8828,4.9486,5.0099,5.0667,5.1146,5.1206,5.1206,5.1206,5.1206,5.1206,5.1206,5.1206,5.1206,5.1206,5.1206,5.1206,5.1206,5.1206,5.1206,5.1206,5.1206,5.1206,0.0,0.0,0.0,0.0,0.0,0.0,0.0,0.0,3.2381,0.0,0.0,0.0,0.0,0.0,0.0,0.0,0.0,0.0,0.0,0.0,0.0,0.0,0.0,0.0,0.0,0.0,0.0,0.0,0.0,0.0,3.6405,3.6405,3.6405,3.6405,3.6405,3.6405,3.643,3.6934,3.7235,3.7286,3.8366,3.8894,3.8944,3.9472,3.9697,3.9697,3.9697,3.9697,3.9697,3.9697,3.9697,3.9697,3.9697,3.9697,3.9697,3.9697,3.9697,3.9697,3.9697,3.9697,3.9697,3.9697,3.9697,3.9697,3.9697,3.9697,3.9723,3.9749,4.0642,4.1616,4.169,4.2641,4.3882,4.5161,4.5457,4.5801,4.7019,4.7309,4.7309,4.7309,4.7309,4.7309,4.7309,4.7309,4.7309,4.7309,4.7309,4.7549,4.8177,4.8858,4.9516,5.0129,5.0757,5.1176,5.1206,5.1206,5.1206,5.1206,5.1206,5.1206,5.1206,5.1206,5.1206,5.1206,5.1206,5.1206,5.1206,5.1206,5.1206,5.1206,5.1206,5.1206,0.0,0.0,3.0198,3.2454,0.0,0.0,0.0,0.0,0.0,0.0,0.0,0.0,0.0,0.0,0.0,0.0,0.0,0.0,0.0,0.0,0.0,0.0,0.0,0.0,0.0,0.0,0.0,0.0,0.0,0.0,0.0,3.6405,3.6405,3.6405,3.6405,3.6405,3.6405,3.6581,3.6859,3.721,3.7939,3.8492,3.8919,3.9472,3.9697,3.9697,3.9697,3.9697,3.9697,3.9697,3.9697,3.9697,3.9697,3.9697,3.9697,3.9697,3.9697,3.9697,3.9697,3.9697,3.9697,3.9697,3.9697,3.9697,3.9697,3.9697,3.9697,3.9697,4.0006,4.0542,4.1394,4.2544,4.3811,4.5092,4.6054,4.677,4.7222,4.7309,4.7309,4.7309,4.7309,4.7309,4.7309,4.7309,4.7309,4.7309,4.7309,4.7549,4.8229,4.8887,4.9546,5.0159,5.0817,5.1206,5.1206,5.1206,5.1206,5.1206,5.1206,5.1206,5.1206,5.1206,5.1206,5.1206,5.1206,5.1206,5.1206,5.1206,5.1206,5.1206,5.1206,5.1206,3.1214,2.999,0.0,0.0,2.9937,0.0,0.0,0.0,0.0,0.0,0.0,0.0,0.0,0.0,0.0,0.0,0.0,0.0,0.0,3.5858,0.0,0.0,0.0,0.0,0.0,0.0,0.0,0.0,0.0,0.0,0.0,0.0,3.6405,3.6405,3.6405,3.6405,3.6405,3.6405,3.6557,3.6909,3.7437,3.8015,3.8617,3.917,3.9522,3.9697,3.9697,3.9697,3.9697,3.9697,3.9697,3.9697,3.9697,3.9697,3.9697,3.9697,3.9697,3.9697,3.9697,3.9697,3.9697,3.9697,3.9697,3.9697,3.9697,3.9697,3.9772,4.0174,3.9998,3.9979,4.1157,4.1808,4.2471,4.3764,4.4674,4.5531,4.641,4.6616,4.6748,4.7222,4.7309,4.7309,4.7309,4.7309,4.7309,4.7309,4.7309,4.7638,4.8528,4.9037,4.9636,5.0458,5.0936,5.1206,5.1206,5.1206,5.1206,5.1206,5.1206,5.1206,5.1206,5.1206,5.1415,5.1917,5.1415,5.1415,5.1917,5.1415,5.1206,5.1206,5.1206,5.1206]},{"header":{"parameterUnit":"m.s-1","parameterCategory":1,"la1":30.6,"la2":29.2853,"lo1":-89.7004,"lo2":-87.6739,"dy":0.0162,"dx":0.0183,"nx":112,"ny":82,"refTime":"2023-04-19T06:00:00:Z","depth":0,"parameterNumber":3,"parameterNumberName":"V-component_of_WINDS"},"data":[0.0,0.0,0.0,0.0,0.0,0.0,0.0,0.0,0.0,0.0,0.0,0.0,0.0,0.0,0.0,0.0,0.0,0.0,0.0,0.0,0.0,0.0,0.0,0.0,0.0,0.0,0.0,0.0,0.0,0.0,0.0,0.0,0.0,0.0,0.0,0.0,0.0,0.0,0.0,0.0,0.0,0.0,0.0,0.0,0.0,0.0,0.0,0.0,0.0,0.0,0.0,0.0,0.0,0.0,0.0,0.0,0.0,0.0,0.0,0.0,0.0,0.0,0.0,0.0,0.0,0.0,0.0,0.0,0.0,0.0,0.0,0.0,0.0,0.0,0.0,0.0,0.0,0.0,0.0,0.0,0.0,0.0,0.0,0.0,0.0,0.0,0.0,0.0,0.0,0.0,0.0,1.5755,1.5808,1.5808,1.5808,1.5581,1.5471,1.5471,0.0,0.0,0.0,0.0,0.0,0.0,0.0,0.0,0.0,0.0,0.0,0.0,0.0,0.0,0.0,0.0,0.0,0.0,0.0,0.0,0.0,0.0,0.0,0.0,0.0,0.0,0.0,0.0,0.0,0.0,0.0,0.0,0.0,0.0,0.0,0.0,0.0,0.0,0.0,0.0,0.0,0.0,0.0,0.0,0.0,0.0,0.0,0.0,0.0,0.0,0.0,0.0,0.0,0.0,0.0,0.0,0.0,0.0,0.0,0.0,0.0,0.0,0.0,0.0,0.0,0.0,0.0,0.0,0.0,0.0,0.0,0.0,0.0,0.0,0.0,0.0,0.0,0.0,0.0,0.0,0.0,0.0,0.0,0.0,0.0,0.0,0.0,0.0,0.0,0.0,0.0,0.0,0.0,0.0,0.0,0.0,0.0,0.0,0.0,0.0,0.0,0.0,0.0,0.0,1.5701,1.5795,1.5808,1.5808,1.5808,1.5768,1.5741,1.5741,0.0,0.0,0.0,0.0,0.0,0.0,0.0,0.0,0.0,0.0,0.0,0.0,0.0,0.0,0.0,0.0,0.0,0.0,0.0,0.0,0.0,0.0,0.0,0.0,0.0,0.0,0.0,0.0,0.0,0.0,0.0,0.0,0.0,0.0,0.0,0.0,0.0,0.0,0.0,0.0,0.0,0.0,0.0,0.0,0.0,0.0,0.0,0.0,0.0,0.0,0.0,0.0,0.0,0.0,0.0,0.0,0.0,0.0,0.0,0.0,0.0,0.0,0.0,0.0,0.0,0.0,0.0,0.0,0.0,0.0,0.0,0.0,0.0,0.0,0.0,0.0,0.0,0.0,0.0,0.0,0.0,0.0,0.0,0.0,0.0,0.0,0.0,0.0,0.0,0.0,0.0,0.0,0.0,0.0,0.0,0.0,0.0,0.0,0.0,0.0,0.0,0.0,0.0,1.5728,1.5808,1.5808,1.5808,1.5808,1.5808,1.5808,1.5808,1.5808,1.5578,0.0,0.0,0.0,0.0,0.0,0.0,0.0,0.0,0.0,0.0,0.0,0.0,0.0,0.0,0.0,0.0,0.0,0.0,0.0,0.0,0.0,0.0,0.0,0.0,0.0,0.0,0.0,0.0,0.0,0.0,0.0,0.0,0.0,0.0,0.0,0.0,0.0,0.0,0.0,0.0,0.0,0.0,0.0,0.0,0.0,0.0,0.0,0.0,0.0,0.0,0.0,0.0,0.0,0.0,0.0,0.0,0.0,0.0,0.0,0.0,0.0,0.0,0.0,0.0,0.0,0.0,0.0,0.0,0.0,0.0,0.0,0.0,0.0,0.0,0.0,0.0,0.0,0.0,0.0,0.0,0.0,0.0,0.0,0.0,0.0,0.0,0.0,0.0,0.0,0.0,0.0,0.0,0.0,0.0,0.0,0.0,0.0,0.0,0.0,0.0,0.0,0.0,1.5915,1.5941,1.6008,1.6008,1.6008,1.6008,1.5941,1.5915,1.5915,1.5848,0.0,0.0,0.0,0.0,0.0,0.0,0.0,0.0,0.0,0.0,0.0,0.0,0.0,0.0,0.0,0.0,0.0,0.0,0.0,0.0,0.0,0.0,0.0,0.0,0.0,0.0,0.0,0.0,0.0,0.0,0.0,0.0,0.0,0.0,0.0,0.0,0.0,0.0,0.0,0.0,0.0,0.0,0.0,0.0,0.0,0.0,0.0,0.0,0.0,0.0,0.0,0.0,0.0,0.0,0.0,0.0,0.0,0.0,0.0,0.0,0.0,0.0,0.0,0.0,0.0,0.0,0.0,0.0,0.0,0.0,0.0,0.0,0.0,0.0,0.0,0.0,0.0,0.0,0.0,0.0,0.0,0.0,0.0,0.0,0.0,0.0,0.0,0.0,0.0,0.0,0.0,0.0,0.0,0.0,0.0,0.0,0.0,0.0,0.0,0.0,0.0,0.0,1.627,1.6364,1.662,1.6647,1.6647,1.6647,1.6393,1.627,1.627,1.5979,0.0,0.0,0.0,0.0,0.0,0.0,0.0,0.0,0.0,0.0,0.0,0.0,0.0,0.0,0.0,0.0,0.0,0.0,0.0,0.0,0.0,0.0,0.0,0.0,0.0,0.0,0.0,0.0,0.0,0.0,0.0,0.0,0.0,0.0,0.0,0.0,0.0,0.0,0.0,0.0,0.0,0.0,0.0,0.0,0.0,0.0,0.0,0.0,0.0,0.0,0.0,0.0,0.0,0.0,0.0,0.0,0.0,0.0,0.0,0.0,0.0,0.0,0.0,0.0,0.0,0.0,0.0,0.0,0.0,0.0,0.0,0.0,0.0,0.0,0.0,0.0,0.0,0.0,0.0,0.0,0.0,0.0,0.0,0.0,0.0,0.0,0.0,0.0,0.0,0.0,0.0,0.0,0.0,0.0,0.0,0.0,0.0,0.0,0.0,0.0,0.0,0.0,1.654,1.658,0.0,1.67,1.67,1.67,1.6607,1.654,1.654,0.0,0.0,0.0,0.0,0.0,0.0,0.0,0.0,0.0,0.0,0.0,0.0,0.0,0.0,0.0,0.0,0.0,0.0,0.0,0.0,0.0,0.0,0.0,0.0,0.0,0.0,0.0,0.0,0.0,0.0,0.0,0.0,0.0,0.0,0.0,0.0,0.0,0.0,0.0,0.0,0.0,0.0,0.0,0.0,0.0,0.0,0.0,0.0,0.0,0.0,0.0,0.0,0.0,0.0,0.0,0.0,0.0,0.0,0.0,0.0,0.0,0.0,0.0,0.0,0.0,0.0,0.0,0.0,0.0,0.0,0.0,0.0,0.0,0.0,0.0,0.0,0.0,0.0,0.0,0.0,0.0,0.0,0.0,0.0,0.0,0.0,0.0,0.0,0.0,0.0,0.0,0.0,0.0,0.0,0.0,0.0,0.0,0.0,0.0,0.0,0.0,0.0,1.6807,1.6872,1.6887,0.0,1.6981,1.6981,1.6981,1.6901,1.6872,1.6872,0.0,0.0,0.0,0.0,0.0,0.0,0.0,0.0,0.0,0.0,0.0,0.0,0.0,0.0,0.0,0.0,0.0,0.0,0.0,0.0,0.0,0.0,0.0,0.0,0.0,0.0,0.0,0.0,0.0,0.0,0.0,0.0,0.0,0.0,0.0,0.0,0.0,0.0,0.0,0.0,0.0,0.0,0.0,0.0,0.0,0.0,0.0,0.0,0.0,0.0,0.0,0.0,0.0,0.0,0.0,0.0,0.0,0.0,0.0,0.0,0.0,0.0,0.0,0.0,0.0,0.0,0.0,0.0,0.0,0.0,0.0,0.0,0.0,0.0,0.0,0.0,0.0,0.0,0.0,0.0,0.0,0.0,0.0,0.0,0.0,0.0,0.0,0.0,0.0,0.0,0.0,0.0,0.0,0.0,0.0,0.0,0.0,0.0,0.0,0.0,0.0,0.0,1.7166,1.7206,1.7313,1.7582,1.7608,1.7608,1.7608,1.7367,1.7206,0.0,0.0,0.0,0.0,0.0,0.0,0.0,0.0,0.0,0.0,0.0,0.0,0.0,0.0,0.0,0.0,0.0,0.0,0.0,0.0,0.0,0.0,0.0,0.0,0.0,0.0,0.0,0.0,0.0,0.0,0.0,0.0,0.0,0.0,0.0,0.0,0.0,0.0,0.0,0.0,0.0,0.0,0.0,0.0,0.0,0.0,0.0,0.0,0.0,0.0,0.0,0.0,0.0,0.0,0.0,0.0,0.0,0.0,0.0,0.0,0.0,0.0,0.0,0.0,0.0,0.0,0.0,0.0,0.0,0.0,0.0,0.0,0.0,0.0,0.0,0.0,0.0,0.0,0.0,0.0,0.0,0.0,0.0,0.0,0.0,0.0,0.0,0.0,0.0,0.0,0.0,0.0,0.0,0.0,0.0,0.0,0.0,0.0,0.0,0.0,0.0,0.0,0.0,0.0,1.7488,1.7515,1.7595,1.7608,1.7608,1.7608,1.7528,1.7488,1.7488,0.0,0.0,0.0,0.0,0.0,0.0,0.0,0.0,0.0,0.0,0.0,0.0,0.0,0.0,0.0,0.0,0.0,0.0,0.0,0.0,0.0,0.0,0.0,0.0,0.0,0.0,0.0,0.0,0.0,0.0,0.0,0.0,0.0,0.0,0.0,0.0,0.0,0.0,0.0,0.0,0.0,0.0,0.0,0.0,0.0,0.0,0.0,0.0,0.0,0.0,0.0,0.0,0.0,0.0,0.0,0.0,0.0,0.0,0.0,0.0,0.0,0.0,0.0,0.0,0.0,0.0,0.0,0.0,0.0,0.0,0.0,0.0,0.0,0.0,0.0,0.0,0.0,0.0,0.0,0.0,0.0,0.0,0.0,0.0,0.0,0.0,0.0,0.0,0.0,0.0,0.0,0.0,0.0,0.0,0.0,0.0,0.0,0.0,0.0,0.0,0.0,0.0,1.7582,1.7608,1.7608,1.7608,1.7608,1.7608,1.7608,1.7608,1.7608,1.7608,0.0,0.0,0.0,0.0,0.0,0.0,0.0,0.0,0.0,0.0,0.0,0.0,0.0,0.0,0.0,0.0,0.0,0.0,0.0,0.0,0.0,0.0,0.0,0.0,0.0,0.0,0.0,0.0,0.0,0.0,0.0,0.0,0.0,0.0,0.0,0.0,0.0,0.0,0.0,0.0,0.0,0.0,0.0,0.0,0.0,0.0,0.0,0.0,0.0,0.0,0.0,0.0,0.0,0.0,0.0,0.0,0.0,0.0,0.0,0.0,0.0,0.0,0.0,0.0,0.0,0.0,0.0,0.0,0.0,0.0,0.0,0.0,0.0,0.0,0.0,0.0,0.0,0.0,0.0,0.0,0.0,0.0,0.0,0.0,0.0,0.0,0.0,0.0,0.0,0.0,0.0,0.0,0.0,0.0,0.0,0.0,0.0,0.0,0.0,0.0,0.0,0.0,1.7689,1.7689,1.7689,1.7689,1.7689,1.7689,1.7689,1.7689,1.7689,1.7689,0.0,0.0,0.0,0.0,0.0,0.0,0.0,0.0,0.0,0.0,0.0,0.0,0.0,0.0,0.0,0.0,0.0,0.0,0.0,0.0,0.0,0.0,0.0,0.0,0.0,0.0,0.0,0.0,0.0,0.0,0.0,0.0,0.0,0.0,0.0,0.0,0.0,0.0,0.0,0.0,0.0,0.0,0.0,0.0,0.0,0.0,0.0,0.0,0.0,0.0,0.0,0.0,0.0,0.0,0.0,0.0,0.0,0.0,0.0,0.0,1.9791,0.0,0.0,0.0,0.0,0.0,0.0,0.0,0.0,0.0,0.0,0.0,0.0,0.0,0.0,0.0,0.0,0.0,0.0,0.0,0.0,0.0,0.0,0.0,0.0,0.0,0.0,0.0,0.0,0.0,0.0,0.0,0.0,0.0,0.0,0.0,0.0,0.0,0.0,0.0,0.0,0.0,1.8263,1.8303,1.8303,1.8303,1.8303,1.8303,1.8303,1.8303,1.8303,1.8303,0.0,0.0,0.0,0.0,0.0,0.0,0.0,0.0,0.0,0.0,0.0,0.0,0.0,0.0,0.0,0.0,0.0,0.0,0.0,0.0,0.0,0.0,0.0,0.0,0.0,0.0,0.0,0.0,0.0,0.0,0.0,0.0,0.0,0.0,0.0,0.0,0.0,0.0,0.0,0.0,0.0,0.0,0.0,0.0,0.0,0.0,0.0,0.0,0.0,0.0,0.0,0.0,0.0,0.0,0.0,0.0,0.0,0.0,0.0,0.0,0.0,2.1065,0.0,0.0,0.0,0.0,0.0,0.0,0.0,0.0,0.0,0.0,0.0,0.0,0.0,0.0,0.0,0.0,0.0,0.0,0.0,0.0,0.0,0.0,0.0,0.0,0.0,0.0,0.0,0.0,0.0,0.0,0.0,0.0,0.0,0.0,0.0,0.0,0.0,0.0,0.0,0.0,1.8477,1.849,1.849,1.849,1.849,1.849,1.849,1.849,1.849,1.849,1.8343,0.0,0.0,0.0,0.0,0.0,0.0,0.0,0.0,0.0,0.0,0.0,0.0,0.0,0.0,0.0,0.0,0.0,0.0,0.0,0.0,0.0,0.0,0.0,0.0,0.0,0.0,0.0,0.0,0.0,0.0,0.0,0.0,0.0,0.0,0.0,0.0,0.0,0.0,0.0,0.0,0.0,0.0,0.0,0.0,0.0,0.0,0.0,0.0,0.0,0.0,0.0,0.0,0.0,0.0,0.0,2.4391,2.4469,2.4531,2.4531,2.4586,2.3992,2.291,0.0,0.0,0.0,0.0,0.0,0.0,0.0,0.0,0.0,0.0,0.0,0.0,0.0,0.0,0.0,0.0,0.0,0.0,0.0,0.0,0.0,0.0,0.0,0.0,0.0,1.7319,1.7647,0.0,0.0,0.0,0.0,0.0,0.0,0.0,0.0,0.0,0.0,0.0,0.0,1.8637,1.8679,1.8679,1.8679,1.8679,1.8679,1.8679,1.8889,1.9042,1.9042,1.9001,1.9085,0.0,0.0,0.0,0.0,0.0,0.0,0.0,0.0,0.0,0.0,0.0,0.0,0.0,0.0,0.0,0.0,0.0,0.0,0.0,0.0,0.0,0.0,0.0,0.0,0.0,0.0,0.0,0.0,0.0,0.0,0.0,0.0,2.1915,2.1915,0.0,0.0,0.0,0.0,0.0,0.0,0.0,0.0,0.0,0.0,0.0,0.0,0.0,0.0,2.4391,2.4391,2.4391,2.4391,2.4391,2.4391,2.441,2.4828,2.5004,2.5024,2.5367,0.0,2.416,2.416,0.0,0.0,0.0,0.0,0.0,0.0,0.0,0.0,0.0,0.0,0.0,0.0,0.0,0.0,0.0,0.0,0.0,0.0,0.0,0.0,0.0,0.0,1.8988,1.8035,1.881,1.9796,0.0,1.8766,1.7555,1.7836,0.0,0.0,0.0,0.0,0.0,0.0,0.0,0.0,1.9241,1.9281,1.9281,1.9281,1.9281,1.9281,1.9281,2.0473,2.1183,2.1183,2.0974,2.142,2.271,1.9954,0.0,0.0,0.0,0.0,0.0,0.0,0.0,0.0,0.0,0.0,0.0,0.0,0.0,0.0,0.0,0.0,0.0,0.0,0.0,0.0,0.0,0.0,0.0,0.0,0.0,0.0,0.0,0.0,0.0,2.2576,2.2676,2.293,2.3125,2.332,0.0,0.0,0.0,0.0,0.0,0.0,0.0,0.0,0.0,2.4809,2.4785,2.4902,2.5132,2.5132,2.5249,2.5527,2.5527,2.5644,2.5854,2.6074,2.6172,2.6172,2.6342,2.6206,2.5815,2.5328,2.4823,2.4349,0.0,0.0,0.0,0.0,0.0,0.0,2.2166,0.0,0.0,0.0,0.0,0.0,0.0,0.0,0.0,0.0,0.0,0.0,0.0,0.0,0.0,2.0654,2.1219,2.173,2.1916,2.123,2.0609,0.0,2.0082,1.9602,1.9916,0.0,0.0,0.0,0.0,0.0,2.1854,2.1885,2.1885,2.1885,2.1885,2.1885,2.1885,2.2464,2.2842,2.2842,2.1959,2.2091,2.3563,2.0465,1.9431,0.0,0.0,0.0,0.0,0.0,0.0,0.0,0.0,0.0,0.0,0.0,0.0,0.0,0.0,0.0,0.0,0.0,0.0,0.0,0.0,0.0,0.0,0.0,0.0,0.0,0.0,0.0,0.0,2.3413,2.3571,2.3906,2.3945,2.4082,0.0,0.0,0.0,0.0,0.0,0.0,2.4723,2.484,2.5078,2.5415,2.5532,2.5723,2.603,2.603,2.6206,2.6543,2.6543,2.6719,2.6986,2.6986,2.6986,2.6986,2.6986,2.6986,2.6947,2.6303,2.603,2.603,2.603,2.5418,0.0,2.4534,2.3914,2.3189,2.419,2.4534,2.4484,2.414,0.0,2.3113,2.1064,0.0,0.0,0.0,0.0,2.1598,2.3068,0.0,2.2017,2.2838,2.3281,2.3565,2.3693,2.3416,2.3104,0.0,2.2129,2.148,2.1736,0.0,0.0,0.0,0.0,2.3794,2.3794,2.3794,2.3794,2.3794,2.3794,2.3794,2.3794,2.4156,2.4378,2.4378,2.3375,2.3235,2.435,2.167,2.0484,0.0,0.0,0.0,0.0,0.0,0.0,0.0,0.0,0.0,0.0,0.0,0.0,0.0,0.0,0.0,0.0,0.0,0.0,0.0,0.0,0.0,0.0,0.0,0.0,0.0,0.0,0.0,0.0,0.0,0.0,2.4352,2.4352,0.0,0.0,0.0,0.0,2.5063,2.543,2.5615,2.5615,2.6074,2.6309,2.6328,2.6699,2.6908,2.6928,2.6928,2.6947,2.6973,2.6973,2.6992,2.6986,2.6986,2.6986,2.6986,2.6986,2.6986,2.7012,2.6947,2.6928,2.6928,2.6928,2.6902,2.6832,2.6832,2.6781,2.673,2.6826,2.6832,2.6628,2.5338,2.4044,2.2895,2.2779,2.2752,0.0,0.0,2.3869,2.3121,2.4516,2.4847,2.4544,2.3611,2.4343,2.5415,2.5847,2.4796,2.3673,0.0,2.3315,2.3349,2.3628,0.0,0.0,2.371,2.3738,2.3794,2.3794,2.3794,2.3794,2.3794,2.3794,2.3794,2.3794,2.5123,2.5991,2.5991,2.5909,2.5909,2.5991,2.4416,2.2939,2.1584,2.1186,0.0,0.0,0.0,0.0,0.0,0.0,0.0,0.0,0.0,0.0,0.0,0.0,0.0,0.0,0.0,0.0,0.0,0.0,0.0,0.0,0.0,0.0,0.0,0.0,0.0,0.0,0.0,0.0,2.4805,2.4867,0.0,0.0,2.5664,2.5942,2.5942,2.6328,2.6537,2.6537,2.6719,2.6797,2.6797,2.6934,2.6986,2.6986,2.6986,2.7148,2.7467,2.7467,2.7578,2.7832,2.7832,2.7832,2.7832,2.7832,2.7832,2.7832,2.7832,2.7519,2.6986,2.6986,2.6986,2.6986,2.6986,2.6986,2.6986,2.6986,2.6986,2.691,2.6455,2.5359,2.4411,2.5281,2.5132,2.4943,2.6342,2.5876,2.529,2.6763,2.6425,2.5855,2.6422,2.6916,2.7321,2.7473,2.7087,2.668,2.6577,2.5793,2.5158,2.5271,2.6073,2.6363,2.5398,2.6073,2.6689,2.6689,2.6689,2.6689,2.6689,2.6689,2.6689,2.6689,2.7195,2.7538,2.7538,2.6635,2.6527,2.7465,2.5123,2.4017,2.4488,2.2464,2.1152,0.0,0.0,0.0,0.0,0.0,0.0,0.0,0.0,0.0,0.0,0.0,0.0,0.0,0.0,0.0,0.0,0.0,0.0,0.0,0.0,0.0,0.0,0.0,0.0,0.0,0.0,2.4996,2.5493,2.5532,2.5708,2.6108,2.6426,2.6602,2.6602,2.6855,2.6986,2.6986,2.7148,2.7226,2.7226,2.7363,2.7441,2.7441,2.7441,2.7598,2.7897,2.7897,2.8054,2.8301,2.8301,2.8301,2.8301,2.8301,2.8301,2.8301,2.8301,2.7949,2.7441,2.7441,2.7441,2.7441,2.7441,2.7441,2.7441,2.7441,2.7441,2.7441,2.7441,2.685,2.6263,2.7162,2.6996,2.6728,2.7641,2.7382,2.7087,2.804,2.7565,2.7087,2.8067,2.8301,2.8301,2.8301,2.8301,2.8301,2.8301,2.7511,2.6825,2.6825,2.7645,2.7987,2.7006,2.7672,2.8301,2.8301,2.8301,2.8301,2.8301,2.8301,2.8301,2.8301,2.8301,2.8301,2.8301,2.7384,2.706,2.7538,2.5635,2.482,2.5316,2.3375,2.1841,2.0859,0.0,0.0,0.0,0.0,0.0,0.0,0.0,0.0,0.0,0.0,0.0,0.0,0.0,0.0,0.0,0.0,0.0,0.0,0.0,0.0,0.0,0.0,0.0,2.5796,2.5713,2.5913,2.6348,2.6431,2.6562,2.6947,2.7006,2.7006,2.7006,2.7025,2.7025,2.7025,2.7461,2.7702,2.7702,2.8112,2.8301,2.8301,2.8301,2.8301,2.8301,2.8301,2.8301,2.8301,2.8301,2.8301,2.8301,2.8301,2.8301,2.8301,2.8301,2.8301,2.8301,2.8301,2.8301,2.8301,2.8301,2.8301,2.8301,2.8301,2.8301,2.8301,2.8301,2.8301,2.8301,2.8301,2.8301,2.8301,2.8301,2.8301,2.8301,2.8301,2.8301,2.8301,2.8301,2.8301,2.8301,2.8301,2.8301,2.8301,2.8301,2.8301,2.8301,2.8301,2.8301,2.8301,2.8301,2.8301,0.0,2.8301,2.8301,2.8301,2.8301,2.8301,2.8301,2.8301,2.8301,2.8301,2.8301,2.8301,2.7672,2.6236,2.6182,2.5426,2.3905,2.3877,2.2407,1.9475,0.0,0.0,0.0,0.0,0.0,0.0,0.0,0.0,0.0,0.0,0.0,0.0,0.0,0.0,0.0,0.0,0.0,0.0,0.0,0.0,0.0,0.0,2.8925,2.6522,2.644,2.6674,2.6836,2.6836,2.6894,2.6986,2.7305,2.7506,2.7506,2.7773,2.7949,2.7949,2.8047,2.8151,2.8151,2.8223,2.8301,2.8301,2.8301,2.8301,2.8301,2.8301,2.8301,2.8301,2.8301,2.8301,2.8301,2.8301,2.8301,2.8301,2.8301,2.8301,2.8301,2.8301,2.8301,2.8301,2.8301,2.8301,2.8301,2.8301,2.8301,2.8301,2.8301,2.8301,2.8301,2.8301,2.8301,2.8301,2.8301,2.8301,2.8301,2.8301,2.8301,2.8301,2.8301,2.8301,2.8301,2.8301,2.8301,2.8301,2.8301,2.8301,2.8301,2.8301,2.8301,2.8301,2.8301,0.0,0.0,2.8301,2.8301,2.8301,2.8301,2.8301,2.8301,2.8301,2.8301,2.8301,0.0,2.8301,2.8121,2.7699,2.7699,2.7006,2.548,2.5453,2.3989,0.0,0.0,0.0,0.0,0.0,0.0,0.0,0.0,0.0,0.0,0.0,0.0,0.0,0.0,0.0,0.0,0.0,0.0,0.0,0.0,0.0,0.0,3.0666,3.0685,2.8855,2.815,2.7915,2.8096,2.7625,2.7576,2.8327,2.862,2.8782,2.8782,2.9527,2.999,2.999,2.999,2.9702,2.9164,2.9934,3.0069,2.948,3.0281,3.0384,2.9762,2.9762,2.9459,2.8855,2.8855,2.8855,0.0,2.8855,2.873,2.8555,2.8555,2.8457,0.0,0.0,0.0,0.0,0.0,2.8301,2.8301,2.8301,2.8301,2.8301,2.8301,2.8301,2.8301,2.8301,2.8301,2.8301,2.8301,2.8301,2.8301,2.8301,2.8301,2.8301,2.8301,2.8301,2.8301,2.8301,2.8301,2.8301,2.8301,0.0,0.0,2.8301,2.8301,2.8301,2.8301,2.8301,2.8301,0.0,2.8301,2.8301,2.8301,2.8301,2.8301,2.8301,2.8301,0.0,0.0,0.0,2.8014,2.7384,0.0,0.0,0.0,0.0,2.5535,0.0,0.0,0.0,0.0,1.9515,1.9214,0.0,0.0,0.0,0.0,0.0,0.0,0.0,0.0,0.0,0.0,0.0,0.0,0.0,0.0,0.0,0.0,3.1851,3.2171,3.2024,3.0611,2.9686,2.9982,2.8921,2.8845,3.039,3.0514,3.0514,3.0514,3.1688,3.2395,0.0,0.0,0.0,0.0,0.0,3.2693,3.1455,3.3117,3.3338,3.2044,3.2044,3.1278,2.9829,2.9829,2.9766,2.9598,2.9598,2.9355,2.8984,2.8984,2.8769,2.8418,2.832,2.8301,2.8301,2.8301,2.8301,0.0,0.0,0.0,0.0,2.8301,2.8301,2.8301,2.8301,2.8301,2.8301,2.8301,2.8301,2.8301,2.8301,2.8301,2.8301,2.8301,2.8301,2.8301,2.8301,2.8301,2.8301,2.8301,2.8301,2.8301,2.8301,2.8301,2.8301,2.8301,2.8301,0.0,2.8301,2.8301,2.8301,2.8301,0.0,0.0,2.8301,2.8301,2.8301,2.8301,2.8301,2.7699,2.64,2.7592,2.7033,2.435,2.6952,2.6898,2.4044,2.4044,2.3291,2.1813,2.0141,1.9401,0.0,0.0,0.0,0.0,0.0,0.0,0.0,0.0,0.0,0.0,0.0,0.0,0.0,0.0,0.0,3.3736,3.4727,3.5112,3.4024,3.3588,3.2951,3.192,3.1566,3.156,3.1876,3.1901,3.1901,3.1901,3.261,3.3035,3.3035,3.3424,0.0,3.3287,3.366,3.3705,3.3443,3.3821,3.3866,3.3576,0.0,0.0,3.1359,3.1359,3.0723,2.9598,2.9598,2.9559,2.9481,2.9481,2.9422,2.9285,2.8555,2.8301,2.8301,2.8301,2.8301,2.8301,2.8301,2.8301,2.8301,2.8301,2.8301,2.8301,2.8301,2.8301,0.0,2.8301,2.8301,2.8301,2.8301,2.8301,2.8301,2.8301,2.8301,2.8301,2.8301,2.8301,2.8301,2.8301,2.8301,2.8301,2.8301,2.8301,2.8301,2.8301,2.8301,2.8301,2.8301,2.8301,2.8301,2.8301,2.8301,2.8301,2.8301,2.8301,2.8301,2.8301,2.8301,2.8174,2.7906,2.8147,2.804,2.7457,2.8014,2.743,2.5663,2.5663,2.4875,2.3319,2.0658,1.9401,0.0,0.0,0.0,0.0,0.0,0.0,0.0,0.0,0.0,0.0,0.0,3.3033,0.0,0.0,3.5403,3.5403,3.5953,3.6168,3.5499,3.5403,3.4896,3.3502,3.2733,3.2557,3.3279,3.3586,3.3773,3.3773,3.4891,3.5603,3.5603,3.5866,3.5679,3.5013,3.5939,3.6107,3.5408,3.6367,3.6459,3.5753,3.5753,3.4982,3.3568,3.3568,3.3157,3.2413,3.1681,3.1223,3.0916,2.9984,2.9598,2.9559,2.9129,2.8809,2.8574,2.8379,2.8301,2.8301,2.8301,2.8301,2.8301,2.8301,2.8301,2.8301,2.8301,2.8301,2.8301,2.8301,2.8301,2.8301,2.8301,2.8301,2.8301,2.8301,2.8301,2.8301,2.8301,2.8301,2.8359,2.8574,2.8613,2.8672,2.8914,2.8953,2.8816,2.8359,2.8301,2.8301,2.8301,2.8301,2.8301,2.8301,2.8301,2.8301,2.8301,2.8301,2.8301,2.8301,2.8301,2.8301,2.8301,2.8301,2.8301,2.8301,2.8301,2.796,2.7195,2.6472,2.569,2.4893,2.2633,2.1601,0.0,0.0,0.0,0.0,0.0,0.0,0.0,0.0,3.3039,3.4485,3.4775,3.4775,3.4775,3.5667,3.6405,3.6405,3.6405,3.6405,3.6405,3.6405,3.6027,3.5066,3.3939,3.3691,3.4822,3.5426,3.5739,3.5739,3.7246,3.8165,3.8165,3.8266,3.7841,3.6755,3.8237,3.851,3.7356,3.8906,3.9103,3.7928,3.7928,3.7133,3.5727,3.5727,3.5563,3.5206,3.3733,3.2727,3.2008,3.0477,2.9852,2.9852,2.9755,2.9473,2.9094,2.8691,2.8535,2.8535,2.8535,2.8535,2.8535,2.8535,2.8535,2.8535,2.8535,2.8535,2.8535,2.8535,2.8535,2.8535,2.8535,2.8535,2.8535,2.8535,2.8535,2.8535,2.8535,2.8535,2.8633,2.8984,2.9043,2.916,2.954,2.9598,2.9364,2.8652,2.8535,2.8535,2.8535,2.8535,2.8535,2.8535,2.8535,2.8535,2.8535,2.8457,2.8418,2.8418,2.834,2.8301,2.8301,2.8301,2.8301,2.8301,2.8301,2.8301,2.8301,2.7114,2.6527,2.6491,2.5251,2.435,3.4243,3.4591,3.4915,3.4964,3.5383,3.5827,0.0,0.0,3.5926,3.6119,3.6192,3.6192,3.6192,3.631,3.6405,3.6405,3.6405,3.6405,3.6405,3.6405,3.651,3.6867,3.6747,3.6698,3.6868,3.7368,3.7692,3.7692,3.8367,3.8793,3.8793,3.9271,3.9445,3.929,3.952,3.9545,3.9365,3.9595,3.962,3.9439,3.9439,3.8687,3.724,3.724,3.6541,3.5206,3.3733,3.2338,3.1062,3.0849,3.0742,3.0703,3.0293,3.0098,3.0,2.9618,2.9461,2.9461,2.9461,2.9461,2.9461,2.9461,2.9461,2.9461,2.9461,2.9461,2.9461,2.9461,2.9461,2.9461,2.9461,2.9461,2.9461,2.9461,2.9461,2.9461,2.9461,2.9461,2.9461,2.952,2.952,2.954,2.9598,2.9598,2.9559,2.9461,2.9461,2.9461,2.9461,2.9461,2.9461,2.9461,2.9461,2.9461,2.9461,2.9062,2.882,2.882,2.8496,2.8301,2.8301,2.8301,2.8301,2.8301,2.8301,2.8301,2.8301,2.8121,2.804,2.804,2.7879,2.6363,3.5082,3.5581,3.6006,0.0,3.6205,3.6405,3.6405,3.6405,3.6405,3.6405,3.6405,3.6405,3.6405,3.6405,3.6405,0.0,3.6405,3.6405,3.6405,3.6658,3.6959,3.7185,3.7788,3.8065,3.7688,3.8191,3.8542,3.8542,3.9044,3.9371,3.9371,3.9572,3.9697,3.9697,3.9998,4.0174,4.0174,4.0474,4.0625,4.0625,4.0625,4.0308,3.9699,3.938,3.8268,3.6541,3.5922,3.482,3.3388,3.253,3.2178,3.2072,3.104,3.0605,3.0508,2.9852,2.9598,2.9598,2.9598,2.9598,2.9598,2.9598,2.9598,2.9598,2.9598,2.9598,2.9598,2.9598,2.9598,2.9598,2.9598,2.9598,2.9598,2.9598,2.9598,2.9598,2.9598,2.9598,2.9676,2.9883,2.997,3.0048,3.0322,3.0361,3.0361,3.0361,2.9931,2.9598,2.9598,2.9598,2.9598,2.9598,2.9598,2.9598,2.9598,2.9422,2.9297,2.9297,2.8887,2.8652,2.8652,2.8418,2.8301,2.8301,2.8301,2.8301,2.8301,2.8301,2.8301,2.8301,2.8301,2.7618,3.5631,0.0,0.0,3.6405,3.6405,3.6405,3.6405,3.6405,3.6405,3.6405,3.6405,3.6405,3.6405,3.6405,3.6405,3.6405,3.6405,3.6455,3.6582,3.6959,3.7336,3.7637,3.8391,3.8793,3.8492,3.8843,3.912,3.912,3.9471,3.9747,3.9923,3.9923,3.9998,4.0149,4.0499,4.0725,4.0725,4.1127,4.1302,4.1302,4.1302,4.1302,4.1302,4.0901,3.9707,3.7959,3.7959,3.7026,3.5435,3.4376,3.3833,3.3557,3.2064,3.1527,3.139,3.0327,2.997,2.997,2.997,2.997,2.997,2.997,2.997,2.997,2.997,2.997,2.997,2.997,2.997,2.997,2.997,2.997,2.997,2.997,2.997,2.997,2.997,2.997,3.0048,3.0332,3.0391,3.0488,3.084,3.0898,3.0898,3.0898,3.038,2.997,2.997,2.997,2.997,2.997,2.997,2.997,2.997,2.9852,2.9774,2.9774,2.9336,2.9101,2.9101,2.8809,2.8652,2.8652,2.8652,2.8652,2.8652,2.8652,2.8652,2.8652,2.8652,2.8652,0.0,0.0,3.6405,3.6405,3.6405,3.6405,3.6405,3.6405,3.6405,3.6405,3.6405,3.6405,3.6405,3.6405,3.6405,3.6405,3.6405,3.6582,3.711,3.721,3.7612,3.8718,3.8869,3.9095,0.0,3.9647,3.9672,3.9672,3.9697,3.9923,4.045,4.0474,4.07,4.1252,4.1277,4.1277,4.1277,4.1275,4.1302,4.1302,4.1302,4.1302,4.1302,4.1275,4.0471,3.9058,3.9058,3.7943,3.6061,3.6033,3.5686,3.5096,3.3614,3.3021,3.2851,3.1401,3.0859,3.0859,3.0859,3.0859,3.0859,3.0859,3.0859,3.0859,3.0859,3.0859,3.0859,3.0859,3.0859,3.0859,3.0859,3.0859,3.0859,3.0859,3.0859,3.0859,3.0859,3.0859,3.0859,3.0859,3.0859,3.0879,3.0898,3.0898,3.0898,3.0898,3.0859,3.0859,3.0859,3.0859,3.0859,3.0859,3.0859,3.0859,3.0859,3.043,3.0176,3.0176,2.9813,2.9579,2.9579,2.9579,2.9559,2.9559,2.9559,2.9559,2.9559,2.9559,2.9559,2.9559,2.9559,2.9559,3.6405,0.0,3.6405,3.6405,3.6405,3.6405,3.6405,3.6405,3.6405,3.6405,3.6405,3.6405,3.6405,3.6405,3.6405,3.6405,3.6405,3.6606,3.7135,3.7487,3.8015,3.8793,3.922,0.0,0.0,0.0,0.0,3.9697,4.0023,4.0325,4.0474,4.0826,4.1127,4.1275,4.1681,4.1909,4.1909,4.2233,4.2434,4.2434,4.2434,4.2233,4.1909,4.1909,4.1411,4.055,4.055,4.018,3.9467,3.8485,3.7765,3.7134,3.567,3.4883,3.4487,3.4007,3.381,3.3529,3.1585,3.0898,3.0898,3.0898,3.0898,3.0898,3.0898,3.0898,3.0898,3.0898,3.0898,3.0898,3.0898,3.0898,3.0898,3.0898,3.0898,3.0898,3.0898,3.0898,3.0898,3.0898,3.0898,3.0898,3.0898,3.0898,3.0898,3.0898,3.0898,3.0898,3.0898,3.0898,3.0898,3.0898,3.0898,3.0898,3.0898,3.0742,3.0664,3.0664,3.0263,2.998,2.998,2.9755,2.9598,2.9598,2.9598,2.9598,2.9598,2.9598,2.9598,2.9598,2.9598,2.9598,3.6405,3.6405,3.6405,3.6405,3.6405,3.6405,3.6405,3.6405,3.6405,3.6405,3.6405,3.6405,3.6405,3.6405,3.6405,3.6405,3.6557,3.6859,3.7387,3.7965,3.8542,3.912,3.9471,0.0,0.0,0.0,0.0,3.9998,4.0325,4.0701,4.1078,4.143,4.1731,4.1879,4.2258,4.2487,4.2487,4.2838,4.3014,4.3014,4.3014,4.2813,4.2487,4.2487,4.2258,4.1904,4.1904,4.1806,4.1549,4.0602,3.9877,3.9252,3.7752,3.6847,3.6329,3.5778,3.5473,3.5013,3.3127,3.2465,3.2379,3.1854,3.1681,3.1585,3.1054,3.0898,3.0898,3.0898,3.0898,3.0898,3.0898,3.0898,3.0898,3.0898,3.0898,3.0898,3.0898,3.0898,3.0898,3.0898,3.0898,3.0898,3.0898,3.0898,3.0898,3.0898,3.0898,3.0898,3.0898,3.0898,3.0898,3.0898,3.0898,3.0898,3.0898,3.0898,3.0898,3.0898,3.0605,3.0449,3.0449,3.0204,3.0067,3.0067,3.0067,3.0067,3.0067,3.0067,3.0067,3.0067,3.0067,3.0067,3.6405,3.6405,3.6405,3.6405,3.6405,3.6405,3.6405,3.6405,3.6405,3.6405,3.6405,3.6405,0.0,0.0,3.6405,3.6405,3.6859,3.7411,3.7939,3.8542,3.9095,0.0,0.0,0.0,0.0,0.0,0.0,4.0575,0.0,4.1053,4.2135,4.2238,4.2462,4.2989,4.3014,4.3014,4.3014,4.3014,4.3014,4.3014,4.3014,4.3014,4.3014,4.3014,4.3014,4.3014,4.3014,4.2713,4.2263,4.2263,4.1909,4.1218,3.9812,3.8953,3.8285,3.6883,3.6037,3.558,3.558,3.5448,3.5068,3.3649,3.3219,3.2936,3.1556,3.1141,3.1112,3.1025,3.0995,3.0995,3.0928,3.0898,3.0898,3.0898,3.0898,3.0898,3.0898,3.0898,3.0898,3.0898,3.0898,3.0898,3.0898,3.0898,3.0898,3.0898,3.0898,3.0898,3.0898,3.0898,3.0898,3.0898,3.0898,3.0898,3.0898,3.0898,3.0898,3.0898,3.0898,3.0898,3.0898,3.0898,3.0898,3.0898,3.0898,3.0898,3.0898,3.0898,3.0898,3.0898,3.0898,3.0898,3.6405,3.6405,3.6405,3.6405,3.6405,3.6405,3.6405,3.6405,3.6405,3.6405,3.6405,3.6405,0.0,0.0,0.0,3.6405,3.6859,0.0,3.7939,3.8542,0.0,0.0,0.0,3.9848,4.0275,4.0399,0.0,0.0,4.1758,4.1884,4.2187,4.2562,4.2864,4.2989,4.3014,4.3014,4.3014,4.3014,4.3014,4.3014,4.3014,4.3014,4.3014,4.3014,4.3014,4.3014,4.3014,4.2914,4.2788,4.2788,4.2462,4.193,4.1551,4.1064,4.0488,4.0109,3.9607,3.9167,3.9167,3.7486,3.5233,3.4847,3.4736,3.4681,3.4286,3.4174,3.3951,3.2843,3.253,3.2293,3.1199,3.0898,3.0898,3.0898,3.0898,3.0898,3.0898,3.0898,3.0898,3.0898,3.0898,3.0898,3.0898,3.0898,3.0898,3.0898,3.0898,3.0898,3.0898,3.0898,3.0898,3.0898,3.0898,3.0898,3.0898,3.0898,3.0898,3.0898,3.0898,3.0898,3.0898,3.0898,3.0898,3.0898,3.0898,3.0898,3.0898,3.0898,3.0898,3.0898,3.0898,3.0898,3.6405,3.6405,3.6405,3.6405,3.6405,3.6405,3.6405,3.6405,3.6405,3.6405,3.6405,0.0,0.0,0.0,0.0,0.0,0.0,0.0,3.7965,3.8718,3.9371,0.0,3.9697,0.0,4.045,4.07,4.1229,0.0,4.2213,4.2286,4.2537,4.2838,4.3014,4.3014,4.3014,4.3014,4.3014,4.3014,4.3014,4.3014,4.3014,4.3014,4.3014,4.3014,4.3014,4.3014,0.0,4.3014,4.3014,4.3014,4.2813,4.2537,4.2537,4.221,4.1681,4.1681,4.1354,4.0826,4.0575,3.922,3.7436,3.653,3.6271,3.6135,3.5508,3.5288,3.4985,3.3529,3.3106,3.2758,3.1267,3.0898,3.0898,3.0898,3.0898,3.0898,3.0898,3.0898,3.0898,3.0898,3.0898,3.0898,3.0898,3.0898,3.0898,3.0898,3.0898,3.0898,3.0898,3.0898,3.0898,3.0898,3.0898,3.0898,3.0898,3.0898,3.0898,3.0898,3.0898,3.0898,3.0898,3.0898,3.0898,3.0898,3.0898,3.0898,3.0898,3.0898,3.0898,3.0898,3.0898,3.0898,3.6405,3.6405,3.6405,3.6405,3.6405,3.6405,3.6405,3.6405,3.6405,3.6405,0.0,3.6405,3.6405,3.6405,3.6405,3.6405,0.0,3.8015,3.8015,3.8969,3.9697,3.9697,3.9747,4.0023,4.0549,4.1102,4.1681,4.2261,4.2313,4.2512,4.2989,4.3014,4.3014,4.3014,4.3014,4.3014,4.3014,4.3014,4.3014,4.3014,4.3014,4.3014,4.3014,4.3014,4.3014,4.3014,0.0,0.0,4.3014,4.3014,4.3014,4.3014,4.3014,4.2713,4.2313,4.2313,4.1932,4.1352,4.0902,4.065,4.029,3.841,3.7796,3.7557,3.6271,3.5863,3.5563,3.4097,3.3677,3.3332,3.1883,3.1469,3.1469,3.1469,3.1325,3.1199,3.1199,3.1025,3.0898,3.0898,3.0898,3.0898,3.0898,3.0898,3.0898,3.0898,3.0898,3.0898,3.0898,3.0898,3.0898,3.0898,3.0898,3.0898,3.0898,3.0898,3.0898,3.0898,3.0898,3.0898,3.0898,3.0898,3.0898,3.0898,3.0898,3.0898,3.0898,3.0898,3.0898,3.0898,3.0898,3.0898,3.6405,3.6405,3.6405,3.6405,3.6405,3.6405,3.6405,3.6405,0.0,0.0,3.6405,3.6405,3.6405,3.6405,3.6405,3.6405,0.0,0.0,0.0,0.0,3.9697,0.0,0.0,0.0,0.0,0.0,0.0,0.0,0.0,0.0,4.2989,4.3014,4.3014,4.3014,4.3014,4.3014,4.3014,4.3014,4.3014,4.3014,4.3014,4.3014,4.3014,4.3014,4.3014,4.3014,0.0,0.0,4.3014,4.3014,4.3014,4.3014,4.3014,4.2939,4.2864,4.2864,4.2512,4.2034,4.1934,4.158,4.0948,3.9712,3.9336,3.9284,3.8999,3.8947,3.8635,3.7133,3.6757,3.6406,3.493,3.4536,3.4536,3.4536,3.3614,3.2729,3.2729,3.1767,3.0898,3.0898,3.0898,3.0898,3.0898,3.0898,3.0898,3.0898,3.0898,3.0898,3.0898,3.0898,3.0898,3.0898,3.0898,3.0898,3.0898,3.0898,3.0898,3.0898,3.0898,3.0898,3.0898,3.0898,3.0898,3.0898,3.0898,3.0898,3.0898,3.0898,3.0898,3.0898,3.0898,3.0898,3.6405,3.6405,3.6405,3.6405,3.6405,3.6405,3.6405,0.0,0.0,0.0,3.6405,3.6405,3.6405,3.6405,0.0,3.6758,3.7462,3.8115,0.0,0.0,0.0,0.0,0.0,0.0,0.0,0.0,0.0,0.0,0.0,0.0,4.3014,4.3014,4.3014,4.3014,4.3014,4.3014,4.3014,4.3014,4.3014,4.3014,4.3014,4.3014,4.3014,4.3014,4.3014,4.3014,0.0,0.0,4.3014,4.3014,4.3014,4.3014,4.3014,4.3014,4.3014,4.3014,4.2838,4.2562,4.2313,4.2009,4.163,4.0802,4.035,4.0074,3.9772,3.9697,3.9388,3.7902,3.7503,3.716,3.5672,3.5288,3.5288,3.5288,3.4764,3.4041,3.3275,3.253,3.1825,3.1054,3.0898,3.0898,3.0898,3.0898,3.0898,3.0898,3.0898,3.0898,3.0898,3.0898,3.0898,3.0898,3.0898,3.0898,3.0898,3.0898,3.0898,3.0898,3.0898,3.0898,3.0898,3.0898,3.0898,3.0898,3.0898,3.0898,3.0898,3.0898,3.0898,3.0898,3.0898,3.0898,3.6405,3.6405,3.6405,3.6405,3.6405,3.6405,3.6405,3.6405,0.0,0.0,3.6405,3.6405,3.6405,3.6405,3.6581,0.0,3.7638,3.8216,3.8818,3.9371,0.0,0.0,0.0,0.0,0.0,0.0,0.0,0.0,0.0,0.0,0.0,4.3014,4.3014,4.3014,4.3014,4.3014,4.3014,4.3014,4.3014,4.3014,4.3014,4.3014,4.3014,4.3014,4.3014,4.3014,0.0,0.0,0.0,4.3014,4.3014,4.3014,4.3014,4.3014,4.3014,4.3014,4.3014,4.2939,4.2512,4.2389,4.2261,4.1681,4.1026,4.0399,3.9998,3.9798,3.9465,3.8295,3.7954,3.769,3.6541,3.6217,3.6162,3.5836,3.5781,3.5371,3.3873,3.3332,3.2758,3.1594,3.1112,3.0898,3.0898,3.0898,3.0898,3.0898,3.0898,3.0898,3.0898,3.0898,3.0898,3.0898,3.0898,3.0898,3.0898,3.0898,3.0898,3.0898,3.0898,3.0898,3.0898,3.0898,3.0898,3.0898,3.0898,3.0898,3.0898,3.0898,3.0898,3.0898,3.0898,3.0898,3.6405,3.6405,3.6405,3.6405,3.6405,3.6405,3.6405,0.0,0.0,3.6405,3.6405,3.6405,3.6405,3.6405,0.0,0.0,0.0,3.8216,3.8818,3.9371,3.9697,3.9697,0.0,0.0,0.0,0.0,0.0,0.0,0.0,0.0,0.0,4.3014,4.3014,4.3014,4.3014,4.3014,4.3014,4.3014,4.3014,4.3014,4.3014,4.3014,4.3014,4.3014,4.3014,4.3014,0.0,0.0,0.0,4.3014,4.3014,4.3014,4.3014,4.3014,4.3014,4.3014,4.3014,4.2989,4.2939,4.2939,4.2838,4.2286,4.1379,4.0474,4.0424,4.0099,3.9671,3.9543,3.9491,3.9465,3.9336,3.931,3.8947,3.761,3.7293,3.6892,3.5426,3.4041,3.3049,3.2907,3.1825,3.0898,3.0898,3.0898,3.0898,3.0898,3.0898,3.0898,3.0898,3.0898,3.0898,3.0898,3.0898,3.0898,3.0898,3.0898,3.0898,3.0898,3.0898,3.0898,3.0898,3.0898,3.0898,3.0898,3.0898,3.0898,3.0898,3.0898,3.0898,3.0898,3.0898,3.0898,3.6405,3.6405,3.6405,3.6405,3.6405,3.6405,3.6405,0.0,3.6405,3.6405,3.6405,3.6405,3.6405,3.6405,3.6683,3.7538,3.7864,0.0,3.9271,3.9572,3.9697,3.9697,0.0,0.0,0.0,0.0,0.0,0.0,0.0,0.0,0.0,4.3014,4.3014,4.3014,4.3014,4.3014,4.3014,4.3014,4.3014,4.3014,4.3014,4.3014,4.3014,4.3014,4.3014,4.3014,0.0,0.0,0.0,4.3014,4.3014,4.3014,4.3014,4.3014,4.3014,4.3014,4.3014,4.3014,4.3014,4.3014,4.2964,4.2738,4.1907,4.0926,4.06,4.0124,3.9697,3.9697,3.9697,3.9697,3.9697,3.9697,3.9543,3.8973,3.8818,3.8425,3.6945,3.614,3.5485,3.4598,3.3951,3.3268,3.2379,3.2236,3.194,3.1025,3.0898,3.0898,3.0898,3.0898,3.0898,3.0898,3.0898,3.0898,3.0898,3.0898,3.0898,3.0898,3.0898,3.0898,3.0898,3.0898,3.0898,3.0898,3.0898,3.0898,3.0898,3.0898,3.0898,3.0898,3.0898,3.0898,3.6405,3.6405,3.6405,3.6405,3.6405,3.6405,0.0,0.0,3.6405,3.6405,3.6405,3.6405,3.6405,3.6405,3.6758,3.7839,3.8015,3.8391,3.9546,3.9697,3.9747,0.0,0.0,0.0,0.0,0.0,0.0,0.0,0.0,0.0,0.0,4.3014,4.3014,4.3014,4.3014,4.3014,4.3014,4.3014,4.3014,4.3014,4.3014,4.3014,4.3014,4.3014,4.3014,0.0,0.0,0.0,0.0,4.3014,4.3014,4.3014,4.3014,4.3014,4.3014,4.3014,4.3014,4.3014,4.3014,4.3014,4.2989,4.2813,4.2108,4.1202,4.065,4.0124,3.9697,3.9697,3.9697,3.9697,3.9697,3.9697,3.9697,3.9697,3.9697,3.9413,3.8374,3.7796,3.7186,3.6162,3.559,3.4958,3.3929,3.3733,3.3247,3.1767,3.1556,3.1383,3.0957,3.0898,3.0898,3.0898,3.0898,3.0898,3.0898,3.0898,3.0898,3.0898,3.0898,3.0898,3.0898,3.0898,3.0898,3.0898,3.0898,3.0898,3.0898,3.0898,3.0898,3.0898,3.0898,3.0898,3.6405,3.6405,3.6405,3.6405,3.6405,3.6405,0.0,0.0,3.6405,3.6405,3.6405,3.6405,3.6405,3.6405,3.6758,3.7839,3.8015,3.8391,3.9546,3.9697,3.9898,0.0,0.0,0.0,0.0,0.0,0.0,0.0,0.0,0.0,0.0,0.0,4.3014,4.3014,4.3014,4.3014,4.3014,4.3014,4.3014,4.3014,4.3014,4.3014,4.3014,4.3014,0.0,0.0,0.0,0.0,0.0,4.3014,4.3014,4.3014,4.3014,4.3014,4.3014,4.3014,4.3014,4.3014,4.3014,4.3014,4.2914,4.2361,4.1781,4.1202,4.065,4.0124,3.9697,3.9697,3.9697,3.9697,3.9697,3.9697,3.9697,3.9697,3.9697,3.9697,3.9697,3.853,3.7503,3.748,3.6298,3.5288,3.5288,3.5261,3.4764,3.3304,3.3077,3.2558,3.1083,3.0898,3.0898,3.0898,3.0898,3.0898,3.0898,3.0898,3.0898,3.0898,3.0898,3.0898,3.0898,3.0898,3.0898,3.0898,3.0898,3.0898,3.0898,3.0898,3.0898,3.0898,3.0898,3.0898,3.6405,3.6405,3.6405,3.6405,3.6405,3.6405,3.6405,3.6405,3.6405,3.6405,3.6405,3.6405,3.6405,3.6405,3.6632,3.7361,3.7764,3.8266,0.0,0.0,0.0,0.0,0.0,0.0,0.0,0.0,0.0,0.0,0.0,0.0,0.0,0.0,4.3014,4.3014,4.3014,4.3014,4.3014,4.3014,4.3014,4.3014,4.3014,4.3014,4.3014,4.3014,0.0,0.0,0.0,0.0,0.0,4.3014,4.3014,4.3014,4.3014,4.3014,4.3014,4.3014,4.3014,4.2939,4.2587,4.2436,4.2361,4.1781,4.1202,4.0725,4.0549,4.0124,3.9697,3.9697,3.9697,3.9697,3.9697,3.9697,3.9697,3.9697,3.9697,3.9697,3.9697,3.9336,3.8999,3.8999,3.8635,3.7979,3.6972,3.6784,3.6298,3.482,3.3733,3.2936,3.2444,3.1527,3.0898,3.0898,3.0898,3.0898,3.0898,3.0898,3.0898,3.0898,3.0898,3.0898,3.0898,3.0898,3.0898,3.0898,3.0898,3.0898,3.0898,3.0898,3.0898,3.0898,3.0898,3.1055,3.6405,3.6405,3.6405,3.6405,3.6405,0.0,0.0,3.6405,3.6405,3.6405,3.6405,3.6405,3.6405,3.6405,3.6581,3.711,3.7638,0.0,0.0,0.0,0.0,0.0,0.0,0.0,0.0,0.0,0.0,0.0,0.0,0.0,0.0,0.0,4.3014,4.3014,4.3014,4.3014,4.3014,4.3014,4.3014,4.3014,4.3014,4.3014,4.3014,0.0,0.0,0.0,0.0,0.0,0.0,4.3014,4.3014,4.3014,4.3014,4.3014,4.2989,4.2763,4.2688,4.2612,4.206,4.1856,4.1756,4.1177,4.0625,4.0199,4.0199,3.9973,3.9697,3.9697,3.9697,3.9697,3.9697,3.9697,3.9697,3.9697,3.9697,3.9697,3.9697,3.9697,3.9697,3.9697,3.9697,3.9413,3.8504,3.8321,3.7822,3.6352,3.4875,3.3733,3.3162,3.1825,3.0898,3.0898,3.0898,3.0898,3.0898,3.0898,3.0898,3.0898,3.0898,3.0898,3.0898,3.0898,3.0898,3.0898,3.0898,3.0898,3.0898,3.0898,3.0898,3.0898,3.1055,3.1269,0.0,3.6405,3.6405,3.6405,3.6405,3.6405,3.6405,3.6405,0.0,3.6405,3.6405,3.6405,3.6405,3.6405,3.6557,0.0,0.0,0.0,0.0,0.0,0.0,0.0,0.0,0.0,0.0,0.0,0.0,0.0,0.0,0.0,0.0,0.0,0.0,4.3014,4.3014,4.3014,4.3014,4.3014,4.3014,4.3014,4.3014,4.3014,4.3014,0.0,0.0,0.0,0.0,0.0,0.0,4.3014,4.3014,4.3014,4.2964,4.2939,4.2889,4.2336,4.2135,4.2034,4.1453,4.1225,4.1152,4.0625,4.0124,3.9697,3.9697,3.9697,3.9697,3.9697,3.9697,3.9697,3.9697,3.9697,3.9697,3.9697,3.9697,3.9697,3.9697,3.9697,3.9697,3.9697,3.9697,3.9697,3.9697,3.9697,3.9207,3.7849,3.6406,3.4958,3.3592,3.2121,3.117,3.1054,3.1054,3.0995,3.0928,3.0898,3.0898,3.0898,3.0898,3.0898,3.0898,3.0898,3.0898,3.0898,3.0898,3.0898,3.0898,3.0898,3.0898,3.0937,3.1328,3.1513,3.6405,0.0,3.6405,3.6405,3.6405,3.6405,0.0,0.0,0.0,0.0,0.0,3.6405,3.6405,3.6405,3.6455,0.0,0.0,0.0,0.0,0.0,0.0,0.0,0.0,0.0,0.0,0.0,0.0,0.0,0.0,0.0,0.0,0.0,0.0,4.3014,4.3014,4.3014,4.3014,4.3014,4.3014,4.3014,4.3014,4.3014,4.3014,0.0,0.0,0.0,0.0,0.0,0.0,4.3014,4.3014,4.2964,4.2537,4.2386,4.2311,4.1731,4.1503,4.1428,4.0876,4.0675,4.06,4.0074,3.9798,3.9697,3.9697,3.9697,3.9697,3.9697,3.9697,3.9697,3.9697,3.9697,3.9697,3.9697,3.9697,3.9697,3.9697,3.9697,3.9697,3.9697,3.9697,3.9697,3.9697,3.9697,3.9569,3.9258,3.7952,3.6865,3.6514,3.5178,3.3838,3.2701,3.2587,3.2121,3.0995,3.0898,3.0898,3.0898,3.0898,3.0898,3.0898,3.0898,3.0898,3.0898,3.0898,3.0898,3.0898,3.0898,3.1055,3.1367,3.1465,3.1875,3.6405,3.6405,3.6405,3.6405,3.6405,3.6405,3.6405,3.6405,0.0,0.0,0.0,3.6405,3.6405,3.6405,0.0,0.0,0.0,0.0,0.0,0.0,0.0,0.0,0.0,0.0,0.0,0.0,0.0,0.0,0.0,0.0,0.0,0.0,0.0,0.0,4.3014,4.3014,4.3014,4.3014,4.3014,4.3014,4.3014,4.3014,4.3014,0.0,0.0,0.0,0.0,0.0,4.3014,4.3014,4.2864,4.2587,4.2286,4.2034,4.1706,4.1127,4.0926,4.0851,4.0325,4.0149,4.0099,3.9798,3.9697,3.9697,3.9697,3.9697,3.9697,3.9697,3.9697,3.9697,3.9697,3.9697,3.9697,3.9697,3.9697,3.9697,3.9697,3.9697,3.9697,3.9697,3.9697,3.9697,3.9697,3.9697,3.9697,3.9697,3.8427,3.7503,3.7503,3.6217,3.4985,3.4181,3.4097,3.3529,3.2035,3.1911,3.1623,3.0937,3.0898,3.0898,3.0898,3.0898,3.0898,3.0898,3.0898,3.0898,3.0898,3.0898,3.1113,3.1523,3.1719,3.2168,3.6405,3.6405,3.6405,3.6405,3.6405,3.6405,3.6405,3.6405,3.6405,0.0,0.0,0.0,3.6615,3.6523,0.0,0.0,0.0,0.0,0.0,0.0,0.0,0.0,0.0,0.0,0.0,0.0,0.0,0.0,0.0,0.0,0.0,0.0,0.0,0.0,4.3014,4.3014,4.3014,4.3014,4.3014,4.3014,4.3014,4.3014,4.3014,4.3014,0.0,0.0,0.0,0.0,4.2889,4.2889,4.2562,4.2034,4.1959,4.163,4.1127,4.0575,4.0374,4.0299,3.9848,3.9697,3.9697,3.9697,3.9697,3.9697,3.9697,3.9697,3.9697,3.9697,3.9697,3.9697,3.9697,3.9697,3.9697,3.9697,3.9697,3.9697,3.9697,3.9697,3.9697,3.9697,3.9697,3.9697,3.9697,3.9697,3.9697,3.9697,3.8635,3.7822,3.7822,3.673,3.589,3.5645,3.5645,3.5041,3.3564,3.3445,3.2815,3.1325,3.1025,3.0898,3.0898,3.0898,3.0898,3.0898,3.0898,3.0898,3.0898,3.0957,3.1211,3.1621,3.2101,3.2511,3.6405,3.6405,3.6405,3.6405,3.6405,3.6405,3.6405,3.6405,3.6405,0.0,0.0,0.0,0.0,3.7034,0.0,0.0,0.0,0.0,0.0,0.0,0.0,0.0,0.0,0.0,0.0,0.0,0.0,0.0,0.0,0.0,0.0,0.0,0.0,0.0,0.0,4.3014,4.3014,4.3014,4.3014,4.3014,4.3014,4.3014,4.3014,4.3014,4.3014,0.0,0.0,0.0,4.2338,4.2338,4.1984,4.1378,4.0953,4.07,4.0549,4.0023,3.9823,3.9798,3.9722,3.9697,3.9697,3.9697,3.9697,3.9697,3.9697,3.9697,3.9697,3.9697,3.9697,3.9697,3.9697,3.9697,3.9697,3.9697,3.9697,3.9697,3.9697,3.9697,3.9697,3.9697,3.9697,3.9697,3.9697,3.9697,3.9697,3.9697,3.9491,3.9362,3.9362,3.9155,3.8556,3.7293,3.716,3.6568,3.5096,3.4958,3.432,3.2851,3.1585,3.0898,3.0898,3.0898,3.0898,3.0898,3.0898,3.0898,3.0898,3.125,3.1641,3.2101,3.2531,3.293,3.6405,3.6405,3.6405,3.6405,3.6405,3.657,3.7173,3.7335,3.7335,0.0,0.0,0.0,0.0,0.0,0.0,0.0,0.0,0.0,0.0,0.0,0.0,0.0,0.0,0.0,0.0,0.0,0.0,0.0,0.0,0.0,0.0,0.0,0.0,0.0,0.0,0.0,4.4098,4.4098,4.374,4.3014,4.3014,4.3014,4.3014,4.3014,4.2838,0.0,0.0,4.2235,4.1706,4.1706,4.1404,4.0851,4.06,4.0299,4.0049,3.9798,3.9697,3.9697,3.9697,3.9697,3.9697,3.9697,3.9697,3.9697,3.9697,3.9697,3.9697,3.9697,3.9697,3.9697,3.9697,3.9697,3.9697,3.9697,3.9697,3.9697,3.9697,3.9697,3.9697,3.9697,3.9697,3.9697,3.9697,3.9697,3.9697,3.9697,3.9697,3.9697,3.9697,3.9697,3.9439,3.8765,3.8687,3.8084,3.6595,3.6487,3.5513,3.3247,3.171,3.0898,3.0898,3.0898,3.0898,3.0898,3.0898,3.0996,3.123,3.1426,3.1855,3.255,3.2695,3.3027,3.6405,3.6405,3.6405,3.6405,3.6405,3.6686,3.7861,3.8107,0.0,0.0,0.0,0.0,0.0,0.0,0.0,0.0,0.0,0.0,0.0,0.0,0.0,0.0,0.0,0.0,0.0,0.0,0.0,0.0,0.0,0.0,0.0,0.0,0.0,0.0,0.0,0.0,4.5021,4.4994,4.4318,4.3014,4.3014,4.3014,4.2989,4.2864,4.2587,4.2213,4.2034,4.1656,4.1127,4.1127,4.08,4.0299,4.0299,4.0074,3.9697,3.9697,3.9697,3.9697,3.9697,3.9697,3.9697,3.9697,3.9697,3.9697,3.9697,3.9697,3.9697,3.9697,3.9697,3.9697,3.9697,3.9697,3.9697,3.9697,3.9697,3.9697,3.9697,3.9697,3.9697,3.9697,3.9697,3.9697,3.9697,3.9697,3.9697,3.9697,3.9697,3.9697,3.9697,3.9697,3.9697,3.9697,3.9697,3.9233,3.8111,3.7716,3.6541,3.427,3.2416,3.1257,3.0928,3.0898,3.0898,3.0898,3.0898,3.1094,3.1494,3.1621,3.2051,3.2793,3.2891,3.3105,3.6405,3.6405,3.6405,3.6405,3.6405,3.6686,3.7861,3.8107,0.0,3.9536,0.0,0.0,0.0,0.0,0.0,0.0,0.0,0.0,0.0,0.0,0.0,0.0,0.0,0.0,0.0,0.0,0.0,0.0,0.0,0.0,0.0,0.0,0.0,0.0,0.0,0.0,4.5021,4.4994,4.4318,4.3014,4.3014,4.3014,4.2989,4.2487,4.2263,4.2187,4.163,4.1051,4.0549,4.0549,4.0249,3.9747,3.9747,3.9722,3.9697,3.9697,3.9697,3.9697,3.9697,3.9697,3.9697,3.9697,3.9697,3.9697,3.9697,3.9697,3.9697,3.9697,3.9697,3.9697,3.9697,3.9697,3.9697,3.9697,3.9697,3.9697,3.9697,3.9697,3.9697,3.9697,3.9697,3.9697,3.9697,3.9697,3.9697,3.9697,3.9697,3.9697,3.9697,3.9697,3.9697,3.9697,3.9697,3.9671,3.9543,3.8295,3.74,3.7186,3.4515,3.235,3.0957,3.0898,3.0898,3.0898,3.0898,3.1094,3.1494,3.1934,3.2394,3.2812,3.3184,3.3367,3.6405,3.6919,3.7289,3.6593,3.6943,0.0,0.0,3.9227,3.9558,4.0724,4.0958,0.0,0.0,0.0,0.0,0.0,0.0,0.0,0.0,0.0,0.0,0.0,0.0,0.0,0.0,0.0,0.0,0.0,0.0,0.0,0.0,0.0,0.0,0.0,0.0,0.0,0.0,4.6997,4.6095,4.4279,4.3077,4.2487,4.2487,4.1907,4.1455,4.1128,4.0901,4.0499,3.9998,3.9998,3.9873,3.9697,3.9697,3.9697,3.9697,3.9697,3.9697,3.9697,3.9697,3.9697,3.9697,3.9697,3.9697,3.9697,3.9697,3.9697,3.9697,3.9697,3.9697,3.9697,3.9697,3.9697,3.9697,3.9697,3.9697,3.9697,3.9697,3.9697,3.9697,3.9697,3.9697,3.9697,3.9697,3.9697,3.9697,3.9697,3.9697,3.9697,3.9697,3.9697,3.9697,3.9697,3.9697,3.9697,3.9697,3.9181,3.8504,3.7557,3.4714,3.2851,3.2293,3.1383,3.0898,3.0898,3.1152,3.1484,3.1934,3.2344,3.2773,3.3184,3.3308,3.3386,3.6943,3.7792,3.8469,3.7701,3.8088,3.8983,4.0167,4.0145,4.0318,4.1844,4.2132,0.0,0.0,0.0,0.0,0.0,0.0,0.0,0.0,0.0,0.0,0.0,0.0,0.0,0.0,0.0,0.0,0.0,0.0,0.0,0.0,0.0,0.0,0.0,0.0,0.0,0.0,4.7875,4.6943,4.5076,4.3596,4.2967,4.3096,4.2527,4.2061,4.1672,4.1106,4.0645,4.0262,3.9852,3.9697,3.9697,3.9697,3.9697,3.9697,3.9697,3.9697,3.9697,3.9697,3.9697,3.9697,3.9697,3.9697,3.9697,3.9697,3.9697,3.9697,3.9697,3.9697,3.9697,3.9697,3.9697,3.9697,3.9697,3.9697,3.9697,3.9697,3.9697,3.9697,3.9697,3.9697,3.9697,3.9697,3.9697,3.9697,3.9697,3.9697,3.9697,3.9697,3.9697,3.9697,3.9697,3.9697,3.9697,3.9697,3.9697,3.9284,3.8269,3.584,3.4069,3.3134,3.2121,3.1442,3.1094,3.1367,3.1797,3.2394,3.2687,3.3008,3.3386,3.3386,3.3386,3.8107,3.9006,3.9913,3.9913,3.9913,4.021,4.1337,4.0724,4.0554,4.284,0.0,0.0,0.0,0.0,0.0,0.0,0.0,0.0,0.0,0.0,0.0,0.0,0.0,0.0,0.0,0.0,0.0,0.0,0.0,0.0,0.0,0.0,0.0,0.0,0.0,0.0,0.0,4.7213,4.6493,4.5098,4.4566,4.4597,4.5073,4.4542,4.429,4.419,4.2373,4.1591,4.1518,4.0211,3.9697,3.9697,3.9697,3.9697,3.9697,3.9697,3.9697,3.9697,3.9697,3.9697,3.9697,3.9697,3.9697,3.9697,3.9697,3.9697,3.9697,3.9697,3.9697,3.9697,3.9697,3.9697,3.9697,3.9697,3.9697,3.9697,3.9697,3.9697,3.9697,3.9697,3.9697,3.9697,3.9697,3.9697,3.9697,3.9697,3.9697,3.9697,3.9697,3.9697,3.9697,3.9697,3.9697,3.9697,3.9697,3.9697,3.9697,3.9697,3.8321,3.6194,3.3254,3.3106,3.2613,3.1534,3.1523,3.1953,3.2793,3.2793,3.3008,3.3386,3.3386,3.3386,3.936,4.021,0.0,4.008,4.0511,0.0,0.0,4.1337,0.0,0.0,0.0,0.0,0.0,0.0,0.0,0.0,0.0,0.0,0.0,0.0,0.0,0.0,0.0,0.0,0.0,0.0,0.0,0.0,0.0,0.0,0.0,0.0,0.0,0.0,0.0,0.0,0.0,0.0,4.753,4.6654,4.6501,4.574,4.4514,4.398,4.3756,4.3657,4.2211,4.1591,4.1518,4.0211,3.9697,3.9697,3.9697,3.9697,3.9697,3.9697,3.9697,3.9697,3.9697,3.9697,3.9697,3.9697,3.9697,3.9697,3.9697,3.9697,3.9697,3.9697,3.9697,3.9697,3.9697,3.9697,3.9697,3.9697,3.9697,3.9697,3.9697,3.9697,3.9697,3.9697,3.9697,3.9697,3.9697,3.9697,3.9697,3.9697,3.9697,3.9697,3.9697,3.9697,3.9697,3.9697,3.9697,3.9697,3.9697,3.9697,3.9697,3.9697,3.931,3.819,3.6275,3.4456,3.3364,3.3044,3.2614,3.2539,3.2793,3.3086,3.3269,3.3386,3.3386,3.3386,4.0575,4.1399,0.0,4.1428,4.1782,4.2275,4.2275,0.0,0.0,0.0,0.0,0.0,0.0,0.0,0.0,0.0,0.0,0.0,0.0,0.0,0.0,0.0,0.0,0.0,0.0,0.0,0.0,0.0,0.0,0.0,0.0,0.0,0.0,0.0,0.0,0.0,0.0,0.0,0.0,4.7309,4.7309,4.669,4.5474,4.5172,4.5024,4.4909,4.3122,4.1789,4.0794,4.0032,3.9697,3.9697,3.9697,3.9697,3.9697,3.9697,3.9697,3.9697,3.9697,3.9697,3.9697,3.9697,3.9697,3.9697,3.9697,3.9697,3.9697,3.9697,3.9697,3.9697,3.9697,3.9697,3.9697,3.9697,3.9697,3.9697,3.9697,3.9697,3.9697,3.9697,3.9697,3.9697,3.9697,3.9697,3.9697,3.9697,3.9697,3.9697,3.9697,3.9697,3.9697,3.9697,3.9697,3.9697,3.9697,3.9697,3.9697,3.9697,3.9898,3.9633,3.8741,3.6654,3.5448,3.5236,3.4253,3.3819,3.398,3.3595,3.3386,3.3386,3.3386,3.3386,4.1732,4.2508,0.0,4.329,4.329,0.0,0.0,0.0,0.0,0.0,0.0,0.0,0.0,0.0,0.0,0.0,0.0,0.0,0.0,0.0,0.0,0.0,0.0,0.0,0.0,0.0,0.0,0.0,0.0,0.0,0.0,0.0,0.0,0.0,0.0,0.0,0.0,0.0,0.0,0.0,4.7309,4.7309,4.7309,4.7309,4.7244,4.6997,4.4674,4.223,3.9852,3.9852,3.98,3.9697,3.9697,3.9697,3.9697,3.9697,3.9697,3.9697,3.9697,3.9697,3.9697,3.9697,3.9697,3.9697,3.9697,3.9697,3.9697,3.9697,3.9697,3.9697,3.9697,3.9697,3.9697,3.9697,3.9697,3.9697,3.9697,3.9697,3.9697,3.9697,3.9697,3.9697,3.9697,3.9697,3.9697,3.9697,3.9697,3.9697,3.9697,3.9697,3.9697,3.9697,3.9697,3.9697,3.9697,3.9697,3.9722,3.9772,4.0249,4.0551,4.0651,3.9242,3.825,3.7805,3.6113,3.5416,3.5806,3.4195,3.3386,3.3386,3.3386,3.3386,4.2921,4.313,0.0,0.0,4.329,4.329,4.329,0.0,0.0,0.0,0.0,0.0,0.0,0.0,0.0,0.0,0.0,0.0,0.0,0.0,0.0,0.0,0.0,0.0,0.0,0.0,0.0,0.0,0.0,0.0,0.0,0.0,0.0,0.0,0.0,0.0,4.7309,4.7309,4.7309,0.0,4.7309,4.7309,4.7309,4.7309,4.6748,4.5779,4.5229,4.3551,4.1194,4.1194,4.0592,3.9697,3.9697,3.9697,3.9697,3.9697,3.9697,3.9697,3.9697,3.9697,3.9697,3.9697,3.9697,3.9697,3.9697,3.9697,3.9697,3.9697,3.9697,3.9697,3.9697,3.9697,3.9697,3.9697,3.9697,3.9697,3.9697,3.9697,3.9697,3.9697,3.9697,3.9697,3.9697,3.9697,3.9697,3.9697,3.9697,3.9697,3.9697,3.9697,3.9697,3.9697,3.9697,3.9697,3.9697,3.9697,3.9873,4.03,4.045,4.0902,4.1783,4.0332,3.9452,3.9324,3.6923,3.5701,3.5806,3.4195,3.3386,3.3386,3.3386,3.3386,4.329,0.0,0.0,4.329,0.0,4.329,4.329,0.0,0.0,0.0,0.0,0.0,0.0,0.0,0.0,0.0,0.0,0.0,0.0,0.0,0.0,0.0,0.0,0.0,0.0,0.0,0.0,0.0,0.0,0.0,0.0,0.0,0.0,0.0,0.0,0.0,4.7309,4.7309,4.7309,4.7309,4.7309,4.7309,4.7309,4.7309,4.6594,4.5389,4.5389,4.4303,4.2496,4.2496,4.2133,4.1517,4.1517,4.1517,4.1468,4.0844,4.0592,4.0542,3.9904,3.9697,3.9697,3.9697,3.9697,3.9697,3.9697,3.9697,3.9697,3.9697,3.9697,3.9697,3.9697,3.9697,3.9697,3.9697,3.9697,3.9697,3.9697,3.9697,3.9697,3.9697,3.9697,3.9697,3.9697,3.9697,3.9697,3.9697,3.9697,3.9697,3.9697,3.9697,3.9697,3.9697,3.9697,3.9697,3.9697,3.9697,3.9923,4.0449,4.0725,4.1279,4.2162,4.1639,4.1341,4.1341,3.8451,3.6941,3.6941,3.455,3.3386,3.3386,3.3386,3.3386,4.329,4.329,4.329,4.329,4.329,0.0,4.329,4.329,0.0,0.0,0.0,0.0,0.0,0.0,0.0,0.0,0.0,0.0,0.0,0.0,0.0,0.0,0.0,0.0,0.0,0.0,0.0,0.0,0.0,0.0,0.0,0.0,0.0,0.0,0.0,4.7309,4.7309,4.7309,4.7309,4.7309,4.7309,4.7309,4.7309,4.7309,4.6704,4.5734,4.5734,4.5024,4.3834,4.3834,4.3693,4.3504,4.3504,4.3504,4.3385,4.2301,4.1789,4.1468,4.0389,3.9878,3.9697,3.9697,3.9697,3.9697,3.9697,3.9697,3.9697,3.9697,3.9697,3.9697,3.9697,3.9697,3.9697,3.9697,3.9697,3.9697,3.9697,3.9697,3.9697,3.9697,3.9697,3.9697,3.9697,3.9697,3.9697,3.9697,3.9697,3.9697,3.9697,3.9697,3.9697,3.9697,3.9697,3.9697,3.9697,3.9772,4.0074,4.06,4.1152,4.1731,4.2311,4.2763,4.3014,4.3014,3.9844,3.8194,3.8194,3.4984,3.3386,3.3386,3.3386,3.3386,4.329,0.0,4.329,0.0,4.329,4.329,0.0,0.0,0.0,0.0,0.0,0.0,0.0,0.0,0.0,0.0,0.0,0.0,0.0,0.0,0.0,0.0,0.0,0.0,0.0,0.0,0.0,0.0,0.0,0.0,0.0,0.0,4.7309,4.7309,4.7309,0.0,4.7309,4.7309,4.7309,4.7309,4.7309,4.7309,4.7309,4.7309,4.7222,4.704,4.704,4.6322,4.5161,4.5161,4.4489,4.3504,4.3504,4.3504,4.348,4.3313,4.2544,4.1566,4.1419,4.0617,3.9697,3.9697,3.9697,3.9697,3.9697,3.9697,3.9697,3.9697,3.9697,3.9697,3.9697,3.9697,3.9697,3.9697,3.9697,3.9697,3.9697,3.9697,3.9697,3.9697,3.9697,3.9697,3.9697,3.9697,3.9697,3.9697,3.9697,3.9697,3.9697,3.9697,3.9697,3.9697,3.9697,3.9697,3.9697,4.0124,4.0625,4.1177,4.1731,4.2311,4.2864,4.2964,4.3014,4.3014,3.9844,3.8194,3.8194,3.4984,3.3386,3.3386,3.3386,3.3386,4.329,4.329,4.329,0.0,4.329,4.329,4.329,0.0,0.0,0.0,0.0,0.0,0.0,0.0,0.0,0.0,0.0,0.0,0.0,0.0,0.0,0.0,0.0,0.0,0.0,0.0,0.0,0.0,0.0,0.0,0.0,4.7309,4.7309,4.7309,4.7309,0.0,4.7309,4.7309,4.7309,4.7309,4.7309,4.7309,4.7309,4.7309,4.7309,4.7309,4.7309,4.6975,4.6484,4.6484,4.6144,4.5644,4.5644,4.5644,4.5553,4.484,4.421,4.3527,4.2108,4.1219,4.0642,3.9929,3.9697,3.9697,3.9697,3.9697,3.9697,3.9697,3.9697,3.9697,3.9697,3.9697,3.9697,3.9697,3.9697,3.9697,3.9697,3.9697,3.9697,3.9697,3.9697,3.9697,3.9697,3.9697,3.9697,3.9697,3.9697,3.9697,3.9697,3.9697,3.9697,3.9697,3.9697,3.9697,3.9697,4.0199,4.0725,4.1277,4.1884,4.2436,4.2989,4.3014,4.3014,4.3014,4.0707,3.9522,3.9522,3.7235,3.5643,3.4736,3.4736,3.4258,4.329,0.0,4.329,4.329,4.329,4.329,0.0,0.0,0.0,0.0,0.0,0.0,0.0,0.0,0.0,0.0,0.0,0.0,0.0,0.0,0.0,0.0,0.0,0.0,0.0,0.0,0.0,0.0,0.0,0.0,4.7309,4.7309,4.7309,4.7309,4.7309,4.7309,4.7309,4.7309,4.7309,4.7309,4.7309,4.7309,4.7309,4.7309,4.7309,4.7309,4.7309,4.7309,4.7309,4.7309,4.7309,4.7309,4.7309,4.7309,4.7171,4.6233,4.5689,4.5092,4.2858,4.1862,4.1394,4.0109,3.9697,3.9697,3.9697,3.9697,3.9697,3.9697,3.9697,3.9697,3.9697,3.9697,3.9697,3.9697,3.9697,3.9697,3.9697,3.9697,3.9697,3.9697,3.9697,3.9697,3.9697,3.9697,3.9697,3.9697,3.9697,3.9697,3.9697,3.9697,3.9697,3.9697,3.9697,3.9747,3.9898,4.0374,4.0926,4.1478,4.2085,4.2587,4.2989,4.3014,4.3014,4.3014,4.1814,4.1019,4.0592,3.8994,3.7363,3.5806,3.5806,3.4933,0.0,4.329,0.0,4.329,4.329,0.0,0.0,0.0,0.0,0.0,0.0,0.0,0.0,0.0,0.0,0.0,0.0,0.0,0.0,0.0,0.0,0.0,0.0,0.0,0.0,0.0,0.0,0.0,0.0,0.0,4.7309,4.7309,4.7309,4.7309,4.7309,4.7309,4.7309,4.7309,4.7309,4.7309,4.7309,4.7309,4.7309,4.7309,4.7309,4.7309,4.7309,4.7309,4.7309,4.7309,4.7309,4.7309,4.7309,4.7309,4.7287,4.7244,4.6432,4.5207,4.3882,4.2593,4.1394,4.0109,3.9697,3.9697,3.9697,3.9697,3.9697,3.9697,3.9697,3.9697,3.9697,3.9697,3.9697,3.9697,3.9697,3.9697,3.9697,3.9697,3.9697,3.9697,3.9697,3.9697,3.9697,3.9697,3.9697,3.9697,3.9697,3.9697,3.9697,3.9697,3.9697,3.9697,3.9697,3.9898,4.0425,4.0951,4.1503,4.2137,4.2663,4.2964,4.3014,4.3014,4.3014,4.3014,4.293,4.2121,4.0592,3.8994,3.7363,3.5806,3.5806,3.4933,0.0,0.0,0.0,4.329,4.329,4.329,0.0,0.0,0.0,0.0,0.0,0.0,0.0,0.0,0.0,0.0,0.0,0.0,0.0,0.0,0.0,0.0,0.0,0.0,0.0,0.0,0.0,0.0,0.0,0.0,4.7279,4.7309,4.7309,4.7309,4.7309,4.7309,4.7309,4.7309,4.7309,4.7309,4.7309,4.7309,4.7309,4.7309,4.7309,4.7309,4.7309,4.7309,4.7309,4.7309,4.7309,4.7309,4.7309,4.7309,4.7309,4.7309,4.7019,4.6322,4.4233,4.3194,4.2471,4.0389,3.9697,3.9697,3.9697,3.9697,3.9697,3.9697,3.9697,3.9697,3.9697,3.9697,3.9697,3.9697,3.9697,3.9697,3.9697,3.9697,3.9697,3.9697,3.9697,3.9697,3.9697,3.9697,3.9697,3.9697,3.9697,3.9697,3.9697,3.9697,3.9697,3.9697,3.9697,3.9923,4.0449,4.1001,4.1553,4.2162,4.2688,4.3014,4.3014,4.3014,4.3014,4.3014,4.3014,4.2709,4.215,4.1558,4.0448,3.8853,3.7813,3.6478,4.329,0.0,0.0,0.0,0.0,4.329,0.0,0.0,0.0,0.0,0.0,0.0,0.0,0.0,0.0,0.0,0.0,0.0,0.0,0.0,0.0,0.0,0.0,0.0,0.0,0.0,0.0,0.0,0.0,0.0,4.695,4.6958,4.707,4.7309,4.7309,4.7309,4.7309,4.7309,4.7309,4.7309,4.7309,4.7309,4.7309,4.7309,4.7309,4.7309,4.7309,4.7309,4.7309,4.7309,4.7309,4.7309,4.7309,4.7309,4.7309,4.7309,4.7309,4.6953,4.4373,4.3787,4.3646,4.0668,3.9981,4.0262,3.9826,3.9697,3.9697,3.9697,3.9697,3.9697,3.9697,3.9697,3.9697,3.9697,3.9697,3.9697,3.9697,3.9697,3.9697,3.9697,3.9697,3.9697,3.9697,3.9697,3.9697,3.9697,3.9697,3.9697,3.9697,3.9697,3.9697,3.9697,3.9697,3.9998,4.07,4.1102,4.1628,4.2411,4.2788,4.3014,4.3014,4.3014,4.3014,4.3014,4.3014,4.3014,4.3014,4.3014,4.2178,4.0563,3.8964,3.7054,0.0,0.0,0.0,0.0,0.0,0.0,0.0,0.0,0.0,0.0,0.0,0.0,0.0,0.0,0.0,0.0,0.0,0.0,0.0,0.0,0.0,0.0,0.0,0.0,0.0,0.0,0.0,0.0,0.0,4.5574,4.6241,4.63,4.66,4.7279,4.7309,4.7309,4.7309,4.7309,4.7309,4.7309,4.7309,4.7309,4.7309,4.7309,4.7309,4.7309,4.7309,4.7309,4.7309,4.7309,4.7309,4.7309,4.7309,4.7309,4.7309,4.7309,4.7309,4.6953,4.4419,4.4373,4.4794,4.1019,4.0642,4.1419,4.016,3.9774,3.9749,3.9723,3.9697,3.9697,3.9697,3.9697,3.9697,3.9697,3.9697,3.9697,3.9697,3.9697,3.9697,3.9697,3.9697,3.9697,3.9697,3.9697,3.9697,3.9697,3.9697,3.9697,3.9697,3.9697,3.9697,3.9697,3.9697,4.0149,4.1227,4.1327,4.1804,4.2939,4.3014,4.3014,4.3014,4.3014,4.3014,4.3014,4.3014,4.3014,4.3014,4.3014,4.2206,4.0621,3.8964,3.6478,4.329,0.0,0.0,0.0,0.0,0.0,0.0,0.0,0.0,0.0,0.0,0.0,0.0,0.0,0.0,0.0,0.0,0.0,0.0,0.0,0.0,0.0,0.0,0.0,0.0,0.0,0.0,0.0,4.4586,4.4885,4.5544,4.6031,4.66,4.7279,4.7309,4.7309,4.7309,4.7309,4.7309,4.7309,4.7309,4.7309,4.7309,4.7309,4.7309,4.7309,4.7309,4.7309,4.7309,4.7309,4.7309,4.7309,4.7309,4.7309,4.7309,4.7309,4.7309,4.7062,4.5434,4.5115,4.507,4.3098,4.2689,4.2738,4.1468,4.1069,4.0895,3.9955,3.9697,3.9697,3.9697,3.9697,3.9697,3.9697,3.9697,3.9697,3.9697,3.9697,3.9697,3.9697,3.9697,3.9697,3.9697,3.9697,3.9697,3.9697,3.9697,3.9697,3.9697,3.9697,3.9697,3.9697,4.0049,4.0549,4.1225,4.1706,4.2261,4.2964,4.3014,4.3014,4.3014,4.3014,4.3014,4.3014,4.3014,4.3014,4.3014,4.3014,4.2765,4.2263,3.9493,3.6478,0.0,0.0,0.0,0.0,0.0,0.0,0.0,4.329,0.0,0.0,0.0,0.0,0.0,0.0,0.0,0.0,0.0,0.0,0.0,0.0,0.0,0.0,0.0,0.0,0.0,0.0,0.0,0.0,4.3878,4.4177,4.4855,4.5514,4.6181,4.6839,4.6869,4.704,4.7309,4.7309,4.7309,4.7309,4.7309,4.7309,4.7309,4.7309,4.7309,4.7309,4.7309,4.7309,4.7309,4.7309,4.7309,4.7309,4.7309,4.7309,4.7309,4.7309,4.7309,4.7106,4.5846,4.5756,4.5891,4.4093,4.3858,4.4046,4.2786,4.2035,4.1468,4.0693,4.0109,3.9697,3.9697,3.9697,3.9697,3.9697,3.9697,3.9697,3.9697,3.9697,3.9697,3.9697,3.9697,3.9697,3.9697,3.9697,3.9697,3.9697,3.9697,3.9697,3.9697,3.9697,3.9697,3.9697,4.0199,4.0725,4.1252,4.1831,4.2411,4.2964,4.3014,4.3014,4.3014,4.3014,4.3014,4.3014,4.3014,4.3014,4.3014,4.3014,4.2319,4.0961,3.9082,3.6478,0.0,0.0,0.0,0.0,0.0,0.0,4.329,4.329,0.0,0.0,0.0,0.0,0.0,0.0,0.0,0.0,0.0,0.0,0.0,0.0,0.0,0.0,0.0,0.0,0.0,0.0,4.329,4.329,4.329,4.3609,4.4267,4.4855,4.5514,4.6181,4.6271,4.66,4.7189,4.7279,4.7309,4.7309,4.7309,4.7309,4.7309,4.7309,4.7309,4.7309,4.7309,4.7309,4.7309,4.7309,4.7309,4.7309,4.7309,4.7309,4.7309,4.7309,4.7309,4.7127,4.5981,4.6344,4.6931,4.4651,4.4674,4.5366,4.4093,4.293,4.1961,4.1665,4.0668,3.9697,3.9697,3.9697,3.9697,3.9697,3.9697,3.9697,3.9697,3.9697,3.9697,3.9697,3.9697,3.9697,3.9697,3.9697,3.9697,3.9697,3.9697,3.9697,3.9697,3.9697,3.9722,3.9772,4.0275,4.08,4.1352,4.1959,4.2487,4.2964,4.3014,4.3014,4.3014,4.3014,4.3014,4.3014,4.3014,4.3014,4.3014,4.3014,4.1419,3.8461,3.8461,3.6751,0.0,0.0,0.0,0.0,0.0,0.0,4.329,4.329,4.329,0.0,0.0,0.0,0.0,0.0,0.0,0.0,0.0,0.0,0.0,0.0,0.0,0.0,0.0,0.0,0.0,0.0,4.329,4.329,4.329,4.3609,4.4267,4.4416,4.4796,4.5484,4.6001,4.636,4.648,4.704,4.7309,4.7309,4.7309,4.7309,4.7309,4.7309,4.7309,4.7309,4.7309,4.7309,4.7309,4.7309,4.7309,4.7309,4.7309,4.7309,4.7309,4.7309,4.7309,4.7266,4.7019,4.7084,4.7222,4.6704,4.6726,4.6682,4.5411,4.4863,4.4233,4.2181,4.0668,3.9697,3.9697,3.9697,3.9697,3.9697,3.9697,3.9697,3.9697,3.9697,3.9697,3.9697,3.9697,3.9697,3.9697,3.9697,3.9697,3.9697,3.9697,3.9697,3.9697,3.9697,3.9873,4.03,4.0826,4.1378,4.1984,4.2537,4.2889,4.2989,4.3014,4.3014,4.3014,4.3014,4.3014,4.3014,4.3014,4.3014,4.3014,4.3014,4.2012,4.0129,4.0129,3.8409,0.0,0.0,0.0,4.329,0.0,0.0,0.0,4.329,4.329,0.0,0.0,0.0,0.0,0.0,0.0,0.0,0.0,0.0,0.0,0.0,0.0,0.0,0.0,0.0,0.0,0.0,4.329,4.329,4.329,4.3439,4.3788,4.3818,4.4117,4.4796,4.5134,4.5613,4.63,4.6629,4.6958,4.7309,4.7309,4.7309,4.7309,4.7309,4.7309,4.7309,4.7309,4.7309,4.7309,4.7309,4.7309,4.7309,4.7309,4.7309,4.7309,4.7309,4.7309,4.7309,4.7309,4.7309,4.7309,4.7309,4.7309,4.7171,4.655,4.5891,4.4886,4.2301,4.1144,4.0516,3.9852,3.9697,3.9697,3.9697,3.9697,3.9697,3.9697,3.9697,3.9697,3.9697,3.9697,3.9697,3.9697,3.9697,3.9697,3.9697,3.9697,3.9697,3.9697,3.9697,3.9898,4.0424,4.0976,4.1528,4.2135,4.2688,4.3014,4.3014,4.3014,4.3014,4.3014,4.3014,4.3014,4.3014,4.3014,4.3014,4.3014,4.3014,4.2178,4.0592,4.0592,3.9317,0.0,0.0,0.0,0.0,0.0,4.329,0.0,0.0,0.0,4.329,0.0,0.0,0.0,0.0,0.0,0.0,0.0,0.0,0.0,0.0,0.0,0.0,0.0,0.0,0.0,0.0,4.329,4.329,4.329,4.329,4.329,4.329,4.3549,4.4087,4.4237,4.4805,4.5912,4.6181,4.657,4.713,4.7249,4.7309,4.7309,4.7309,4.7309,4.7309,4.7309,4.7309,4.7309,4.7309,4.7309,4.7309,4.7309,4.7309,4.7309,4.7309,4.7309,4.7309,4.7309,4.7309,4.7309,4.7309,4.7309,4.7309,4.7309,4.6388,4.4978,4.2906,4.1985,4.1369,4.0338,3.9878,3.9697,3.9697,3.9697,3.9697,3.9697,3.9697,3.9697,3.9697,3.9697,3.9697,3.9697,3.9697,3.9697,3.9697,3.9697,3.9697,3.9697,3.9798,4.0074,4.06,4.1152,4.1706,4.2286,4.2738,4.3014,4.3014,4.3014,4.3014,4.3014,4.3014,4.3014,4.3014,4.3014,4.3014,4.3014,4.3014,4.2319,4.1076,4.1076,4.0216,0.0,0.0,0.0,0.0,4.329,0.0,0.0,0.0,4.329,4.329,0.0,0.0,0.0,0.0,0.0,0.0,0.0,0.0,0.0,0.0,0.0,0.0,0.0,0.0,0.0,0.0,0.0,4.329,4.329,4.329,4.329,4.329,4.3319,4.3409,4.3997,4.4356,4.4536,4.5702,4.633,4.642,4.704,4.7309,4.7309,4.7309,4.7309,4.7309,4.7309,4.7309,4.7309,4.7309,4.7309,4.7309,4.7309,4.7309,4.7309,4.7309,4.7309,4.7309,4.7309,4.7309,4.7309,4.7309,4.7309,4.7309,4.7309,4.6388,4.5343,4.5047,4.3337,4.1566,4.1419,4.0541,3.9697,3.9697,3.9697,3.9697,3.9697,3.9697,3.9697,3.9697,3.9697,3.9697,3.9697,3.9697,3.9697,3.9697,3.9697,3.9697,3.9697,4.0124,4.06,4.1152,4.1731,4.2311,4.2864,4.2964,4.3014,4.3014,4.3014,4.3014,4.3014,4.3014,4.3014,4.3014,4.3014,4.3014,4.3014,4.3014,4.293,4.2737,4.2737,4.187,0.0,0.0,0.0,0.0,0.0,0.0,0.0,0.0,4.4004,0.0,0.0,0.0,0.0,0.0,0.0,0.0,0.0,0.0,0.0,0.0,0.0,0.0,0.0,0.0,0.0,0.0,0.0,0.0,0.0,4.329,4.329,4.329,4.329,4.329,4.3579,4.3908,4.4296,4.4865,4.5523,4.63,4.66,4.6899,4.7309,4.7309,4.7309,4.7309,4.7309,4.7309,4.7309,4.7309,4.7309,4.7309,4.7309,4.7309,4.7309,4.7309,4.7309,4.7309,4.7309,4.7309,4.7309,4.7309,4.7309,4.7309,4.7309,4.6931,4.6344,4.5621,4.4627,4.3456,4.1985,4.1194,4.0617,3.9878,3.9697,3.9697,3.9697,3.9697,3.9697,3.9697,3.9697,3.9697,3.9697,3.9697,3.9697,3.9697,3.9697,3.9697,3.9697,4.0174,4.07,4.1225,4.1831,4.2439,4.2964,4.3014,4.3014,4.3014,4.3014,4.3014,4.3014,4.3014,4.3014,4.3014,4.3014,4.3014,4.3014,4.3014,4.3014,4.3014,4.3014,4.2653,4.4243,0.0,0.0,0.0,0.0,0.0,0.0,0.0,0.0,0.0,0.0,0.0,0.0,0.0,0.0,0.0,0.0,0.0,0.0,0.0,0.0,0.0,0.0,0.0,0.0,0.0,0.0,0.0,0.0,0.0,4.329,4.329,4.329,4.329,4.329,4.3529,4.4027,4.4207,4.4775,4.5762,4.6121,4.654,4.7018,4.7219,4.7309,4.7309,4.7309,4.7309,4.7309,4.7309,4.7309,4.7309,4.7309,4.7309,4.7309,4.7309,4.7309,4.7309,4.7309,4.7309,4.7309,4.7309,4.7309,4.7309,4.7309,4.7309,4.7106,4.6188,4.5666,4.4978,4.3122,4.2374,4.1789,4.0542,4.0211,4.0134,3.98,3.9697,3.9697,3.9697,3.9697,3.9697,3.9697,3.9697,3.9697,3.9697,3.9697,3.9747,3.9898,4.04,4.0926,4.1478,4.2085,4.2562,4.2964,4.3014,4.3014,4.3014,4.3014,4.3014,4.3014,4.3014,4.3014,4.3014,4.3014,4.3014,4.3014,4.3014,4.3014,4.3014,4.3014,4.3014,0.0,0.0,0.0,0.0,0.0,0.0,0.0,0.0,4.6138,0.0,0.0,0.0,0.0,0.0,0.0,0.0,0.0,0.0,0.0,0.0,0.0,0.0,0.0,0.0,0.0,0.0,0.0,0.0,0.0,0.0,4.329,4.329,4.329,4.329,4.329,4.329,4.3319,4.3967,4.4326,4.4386,4.5672,4.63,4.636,4.6988,4.7309,4.7309,4.7309,4.7309,4.7309,4.7309,4.7309,4.7309,4.7309,4.7309,4.7309,4.7309,4.7309,4.7309,4.7309,4.7309,4.7309,4.7309,4.7309,4.7309,4.7309,4.7309,4.7287,4.7266,4.6344,4.5366,4.5298,4.4349,4.3122,4.1838,4.1517,4.1194,3.9981,3.9697,3.9697,3.9697,3.9697,3.9697,3.9697,3.9697,3.9697,3.9697,3.9697,3.9898,4.0425,4.0951,4.1503,4.211,4.2637,4.2989,4.3014,4.3014,4.3014,4.3014,4.3014,4.3014,4.3014,4.3014,4.3014,4.3014,4.3014,4.3014,4.3014,4.3014,4.3014,4.3014,4.3014,4.3014,0.0,0.0,4.7688,4.6134,0.0,0.0,0.0,0.0,0.0,0.0,0.0,0.0,0.0,0.0,0.0,0.0,0.0,0.0,0.0,0.0,0.0,0.0,0.0,0.0,0.0,0.0,0.0,0.0,0.0,0.0,0.0,4.329,4.329,4.329,4.329,4.329,4.329,4.3499,4.3878,4.4296,4.5214,4.5873,4.633,4.6988,4.7309,4.7309,4.7309,4.7309,4.7309,4.7309,4.7309,4.7309,4.7309,4.7309,4.7309,4.7309,4.7309,4.7309,4.7309,4.7309,4.7309,4.7309,4.7309,4.7309,4.7309,4.7309,4.7309,4.7309,4.6997,4.6484,4.5621,4.4442,4.3194,4.1912,4.097,4.0211,3.98,3.9697,3.9697,3.9697,3.9697,3.9697,3.9697,3.9697,3.9697,3.9697,3.9697,3.9898,4.0424,4.0976,4.1528,4.2135,4.2688,4.3014,4.3014,4.3014,4.3014,4.3014,4.3014,4.3014,4.3014,4.3014,4.3014,4.3014,4.3014,4.3014,4.3014,4.3014,4.3014,4.3014,4.3014,4.3014,4.6936,4.7819,0.0,0.0,4.7852,0.0,0.0,0.0,0.0,0.0,0.0,0.0,0.0,0.0,0.0,0.0,0.0,0.0,0.0,4.3693,0.0,0.0,0.0,0.0,0.0,0.0,0.0,0.0,0.0,0.0,0.0,0.0,4.329,4.329,4.329,4.329,4.329,4.329,4.3519,4.3938,4.4616,4.5304,4.5971,4.6629,4.7048,4.7309,4.7309,4.7309,4.7309,4.7309,4.7309,4.7309,4.7309,4.7309,4.7309,4.7309,4.7309,4.7309,4.7309,4.7309,4.7309,4.7309,4.7309,4.7309,4.7309,4.7309,4.7399,4.7878,4.7668,4.7225,4.6879,4.5825,4.4512,4.3242,4.2301,4.1493,4.0567,4.0389,4.0236,3.98,3.9697,3.9697,3.9697,3.9697,3.9697,3.9697,3.9697,3.9973,4.0675,4.1102,4.1603,4.2386,4.2788,4.3014,4.3014,4.3014,4.3014,4.3014,4.3014,4.3014,4.3014,4.3014,4.319,4.3564,4.319,4.319,4.3564,4.319,4.3014,4.3014,4.3014,4.3014]}]]